[[[{"header":{"parameterUnit":"kt","parameterCategory":2,"dx":1,"dy":1,"la1":29.285339999999998,"la2":30.599998999999997,"lo1":-89.70041500000002,"lo2":-87.6738589999976,"nx":112,"ny":82,"refTime":"2022-09-30T18:00:00:Z","depth":0,"parameterNumber":1,"parameterNumberName":"U-component_of_WINDS"},"data":[5.6546,5.8602,0.0,4.6508,4.5306,0.0,3.0287,0.0,0.0,0.0,0.0,0.0,0.0,0.0,2.8048,2.7092,2.4396,2.1536,0.0,0.0,0.0,0.0,0.0,0.0,0.0,0.0,0.0,0.0,0.0,0.0,0.0,0.0,8.3119,8.5124,8.6637,8.8161,8.9709,9.1299,9.3385,9.588,9.6902,9.8168,9.9572,9.9572,9.9893,10.0464,10.1463,10.1926,10.1998,10.3032,10.3425,10.3425,10.3425,10.3425,10.3425,10.3425,10.3425,10.3425,10.3425,10.3425,10.3425,10.3425,10.3425,10.3532,10.4103,10.4245,10.4245,10.4245,10.4638,10.4959,10.4388,10.4673,10.5316,10.6315,10.6564,10.6422,10.5851,10.5744,10.5137,10.2997,10.1748,10.107,10.107,10.025,9.975,10.0178,9.9393,9.893,9.95,9.9572,9.9786,10.0357,9.8073,9.5205,9.1896,8.783,8.5508,8.5508,8.5508,8.5247,8.4648,8.4611,8.4349,8.3788,8.3788,8.3788,8.3788,8.3788,8.3788,8.3788,8.3788,8.2592,0.0,0.0,5.066,3.8393,0.0,0.0,0.0,0.0,0.0,0.0,0.0,0.0,0.0,2.627,2.5415,2.3443,2.2687,0.0,0.0,0.0,0.0,0.0,0.0,0.0,0.0,0.0,0.0,0.0,0.0,0.0,0.0,8.1442,8.2888,8.4368,8.588,8.7469,8.8994,9.011,9.1743,9.3687,9.5197,9.634,9.7269,9.7739,9.8252,9.8823,9.9821,10.0285,10.0357,10.1427,10.2176,10.264,10.264,10.2961,10.3318,10.2247,10.2176,10.264,10.264,10.2997,10.3425,10.3425,10.3425,10.3425,10.3425,10.3425,10.3425,10.3425,10.3425,10.3425,10.3425,10.3425,10.3675,10.4709,10.4959,10.4959,10.4959,10.4959,10.4495,10.2925,10.1784,10.107,10.107,9.9786,9.9108,10.0107,9.8965,9.8145,9.868,9.8287,9.7794,9.749,9.5112,9.2644,9.0119,8.6158,8.3788,8.3788,8.3788,8.3527,8.2928,8.2928,8.2667,8.2069,8.2069,8.2069,8.2069,8.2069,8.2069,8.2069,8.2069,8.0872,0.0,0.0,0.0,3.0916,0.0,0.0,0.0,0.0,2.6066,0.0,0.0,0.0,0.0,0.0,2.4921,2.2029,0.0,0.0,0.0,0.0,0.0,0.0,0.0,0.0,0.0,0.0,0.0,0.0,0.0,0.0,7.8877,8.1409,8.2856,8.4269,8.5848,8.6746,8.6854,8.6854,8.7364,8.8633,8.9789,9.1772,9.4474,9.5716,9.7146,9.8609,9.8644,9.868,9.868,9.8751,9.9643,10.0999,10.0999,10.1926,10.2925,9.9857,9.9679,10.0999,10.0999,10.1998,10.3282,10.3353,10.3353,10.3389,10.3425,10.3425,10.3425,10.3425,10.3425,10.3425,10.3425,10.3425,10.3425,10.3425,10.3425,10.3425,10.3425,10.3425,10.2961,10.1427,10.1106,10.107,10.107,9.9821,9.8823,9.8823,9.7467,9.7003,9.8573,9.7396,9.6019,9.4863,9.2607,9.0045,8.7554,8.501,8.3639,8.3639,8.3639,8.2891,8.1246,8.1171,8.0386,7.8741,7.8704,7.8704,7.8704,7.8704,7.8704,7.8704,7.8704,7.8704,3.6333,0.0,0.0,0.0,0.0,0.0,0.0,0.0,0.0,0.0,0.0,0.0,0.0,0.0,0.0,0.0,0.0,0.0,0.0,0.0,0.0,0.0,0.0,0.0,0.0,0.0,0.0,0.0,0.0,0.0,7.7792,8.085,8.2395,8.279,8.5289,8.7469,8.9252,8.9286,9.0254,9.2356,9.2716,9.3316,9.4089,9.439,9.4827,9.5291,9.6504,9.7039,9.711,9.8287,9.9001,9.9393,9.9393,9.9643,9.9929,9.9072,9.9037,9.9393,9.9393,9.9679,10.0214,10.1356,10.1712,10.1926,10.3068,10.3425,10.3425,10.3425,10.3425,10.3425,10.3425,10.3425,10.3425,10.3425,10.3425,10.3425,10.3425,10.3425,10.3282,10.2854,10.1855,10.107,10.107,10.0713,10.0428,10.0428,9.9108,9.8252,9.868,9.8394,9.6842,9.3524,9.0874,8.7829,8.4263,8.1582,8.0087,8.0087,8.0087,7.99,7.9451,7.9414,7.919,7.8704,7.8704,7.8704,7.8704,7.8704,7.8704,7.8704,7.8704,7.8704,0.0,0.0,0.0,0.0,0.0,0.0,2.3557,0.0,2.1586,0.0,0.0,0.0,0.0,0.0,0.0,0.0,0.0,0.0,0.0,0.0,0.0,0.0,0.0,0.0,0.0,0.0,0.0,0.0,0.0,6.7475,7.7462,8.0094,8.131,8.131,8.3579,8.5504,8.6806,8.7448,8.8738,9.0759,9.1841,9.2635,9.3182,9.3638,9.3899,9.3971,9.4898,9.5326,9.5398,9.6325,9.7146,9.7681,9.7003,9.6718,9.6718,9.6718,9.7146,9.7752,9.7752,9.818,9.8894,9.9786,10.0107,10.025,10.1177,10.1926,10.2462,10.2462,10.2925,10.3425,10.3425,10.3425,10.3425,10.3425,10.3425,10.3425,10.3425,10.3425,10.3425,10.3425,10.2676,10.2069,10.2069,10.2069,10.2069,10.2069,10.0713,9.9714,9.9714,9.763,9.48,9.1287,8.8006,8.4699,8.1291,7.9592,7.8704,7.8704,7.8704,7.8704,7.8704,7.8704,7.8704,7.8704,7.8704,7.8704,7.8704,7.8704,7.8367,7.7731,7.7021,7.6685,0.0,0.0,0.0,0.0,2.9233,0.0,0.0,0.0,0.0,0.0,0.0,0.0,0.0,0.0,0.0,0.0,0.0,0.0,0.0,0.0,0.0,0.0,0.0,0.0,0.0,0.0,6.8532,7.733,6.9801,6.8698,7.7528,7.9305,8.0094,8.0094,8.1544,8.2404,8.2474,8.3865,8.5146,8.6232,8.8718,9.0558,9.1745,9.3012,9.3646,9.3714,9.3825,9.3899,9.3899,9.3899,9.4791,9.5968,9.447,9.3899,9.3899,9.3899,9.4827,9.6076,9.6076,9.7039,9.8216,9.8216,9.8323,9.8466,9.8466,9.9572,10.0785,10.0785,10.1819,10.2925,10.2925,10.3032,10.3175,10.3175,10.3282,10.3425,10.3425,10.3425,10.3425,10.3425,10.3425,10.3318,10.2961,10.2925,10.2925,10.2925,10.1712,10.0757,10.0444,9.5917,9.1598,8.8518,8.5022,8.1734,7.8972,7.8704,7.8704,7.8704,7.8704,7.8704,7.8704,7.8704,7.8704,7.8704,7.8704,7.8704,7.8704,7.8554,7.7657,7.6049,7.4553,7.388,0.0,0.0,0.0,0.0,0.0,2.6233,0.0,0.0,0.0,0.0,0.0,0.0,0.0,0.0,0.0,0.0,0.0,0.0,0.0,0.0,0.0,0.0,0.0,0.0,0.0,7.5223,7.5882,7.7857,7.6178,7.5915,7.7792,7.9305,8.0094,8.0094,8.2382,8.367,8.38,8.4917,8.566,8.6017,8.7446,8.8414,8.8928,9.1037,9.2201,9.2555,9.345,9.3899,9.3899,9.3899,9.4078,9.4327,9.4042,9.3899,9.3899,9.3899,9.4113,9.4363,9.4363,9.4577,9.4827,9.4827,9.5754,9.6825,9.6825,9.7931,9.9215,9.9215,9.9429,9.9643,9.9643,10.0571,10.1534,10.1534,10.2497,10.3425,10.3425,10.3425,10.3425,10.3425,10.3425,10.264,10.0107,9.9643,9.9643,9.9643,9.9393,9.8448,9.6311,9.5079,9.2146,8.6274,8.4953,8.2958,7.9047,7.8704,7.8704,7.8704,7.8704,7.8704,7.8704,7.8704,7.8704,7.8704,7.8704,7.8704,7.8704,7.7432,7.5974,7.4366,7.403,7.388,0.0,0.0,0.0,2.5535,0.0,0.0,0.0,0.0,0.0,0.0,0.0,0.0,0.0,0.0,0.0,0.0,0.0,0.0,0.0,0.0,0.0,0.0,0.0,0.0,0.0,7.7891,7.7891,7.7891,7.7891,7.7891,7.7891,7.8614,7.9009,7.9009,8.0326,8.095,8.1047,8.229,8.3492,8.4782,8.6084,8.7381,8.8681,8.9858,9.0468,9.0725,9.2143,9.2758,9.2793,9.3578,9.3435,9.2829,9.3578,9.3899,9.3899,9.3899,9.3899,9.3899,9.3899,9.3899,9.3899,9.3899,9.447,9.5148,9.5148,9.5683,9.6504,9.7324,9.8145,9.8751,9.8751,9.9322,9.9893,9.9893,10.0499,10.1106,10.1106,10.1106,10.1106,10.1106,10.1106,10.0571,9.9037,9.8751,9.8751,9.8751,9.8751,9.7482,9.407,9.1825,8.8518,8.3099,8.062,7.8531,7.6468,7.6273,7.6273,7.6273,7.6273,7.6273,7.6273,7.6273,7.6273,7.6273,7.6273,7.6273,7.6273,7.4666,7.3432,7.2572,7.1787,7.145,2.728,2.7018,2.7106,0.0,0.0,0.0,2.4223,2.419,0.0,0.0,0.0,0.0,0.0,0.0,0.0,0.0,0.0,0.0,0.0,0.0,0.0,0.0,0.0,0.0,0.0,7.7891,7.7891,7.7891,7.7891,7.7891,7.7891,7.7891,7.7891,7.7891,7.815,7.815,7.7891,7.9339,8.0833,8.2548,8.4094,8.5903,8.782,8.826,8.8619,8.8939,9.0219,9.0898,9.1259,9.2793,9.2544,9.1295,9.2829,9.3471,9.3471,9.3792,9.3899,9.3899,9.3899,9.3899,9.3899,9.3899,9.3899,9.3899,9.3899,9.3899,9.4185,9.5505,9.6825,9.7788,9.7788,9.8038,9.8287,9.8287,9.8537,9.8751,9.8751,9.8751,9.8573,9.7931,9.7788,9.7788,9.7788,9.7788,9.7788,9.7788,9.7788,9.6091,9.128,8.7854,8.4039,7.9386,7.5883,7.388,7.388,7.388,7.388,7.388,7.388,7.388,7.388,7.388,7.388,7.388,7.388,7.388,7.388,7.1861,7.0889,7.0852,6.9655,6.9057,2.3848,2.4314,2.5757,2.7455,0.0,0.0,4.2433,4.3705,0.0,0.0,0.0,0.0,0.0,0.0,0.0,0.0,0.0,0.0,0.0,0.0,0.0,0.0,0.0,0.0,0.0,7.7891,7.7891,7.7891,7.7891,7.7891,7.7891,7.7891,7.7891,7.7891,7.8874,7.8874,7.7989,7.9041,7.9202,7.8575,8.0748,8.2053,8.2711,8.4814,8.6483,8.7706,8.796,8.8638,8.9618,9.1188,9.0902,8.9618,9.1224,9.183,9.2008,9.34,9.3899,9.3899,9.3899,9.3899,9.3899,9.3899,9.3899,9.3899,9.3899,9.3899,9.3935,9.4113,9.4292,9.4434,9.4434,9.554,9.6646,9.6646,9.7717,9.8751,9.8751,9.8751,9.7895,9.5005,9.4434,9.4434,9.4434,9.4434,9.4434,9.4434,9.4434,9.2115,8.571,8.4518,8.1709,7.5239,7.4151,7.388,7.388,7.388,7.388,7.388,7.388,7.388,7.388,7.388,7.388,7.388,7.388,7.388,7.388,7.0777,6.9282,6.9282,6.9207,6.9207,2.1918,2.2772,2.3819,2.4168,0.0,0.0,0.0,4.1537,0.0,0.0,0.0,0.0,0.0,0.0,0.0,0.0,0.0,0.0,0.0,0.0,0.0,0.0,0.0,0.0,0.0,0.0,0.0,7.7891,7.7891,7.7891,7.7891,7.7891,7.7891,7.7891,7.8407,7.8407,7.7891,7.8407,7.872,7.8874,8.0479,8.17,8.2555,8.4162,8.5207,8.5809,8.6802,8.7445,8.7941,8.8584,8.8477,8.8013,8.9618,9.0225,9.0403,9.1973,9.2544,9.2686,9.3578,9.3899,9.3899,9.3899,9.3899,9.3899,9.3899,9.3899,9.3899,9.3899,9.3899,9.3899,9.3899,9.4399,9.4934,9.4934,9.5433,9.5933,9.5933,9.5933,9.554,9.4185,9.3899,9.3899,9.3899,9.3899,9.3899,9.3899,9.1867,8.8373,8.3156,8.0395,7.6866,7.159,7.1039,7.1039,7.1039,7.1039,7.1039,7.1039,7.1039,7.1039,7.1039,7.1039,7.1039,7.1039,7.1039,7.1039,7.1039,6.9693,6.9057,6.9132,6.9282,6.9297,2.0495,0.0,0.0,0.0,0.0,0.0,0.0,0.0,0.0,0.0,0.0,0.0,0.0,0.0,0.0,0.0,0.0,0.0,0.0,0.0,0.0,0.0,0.0,0.0,0.0,0.0,0.0,0.0,7.7891,7.7891,7.7891,7.8247,7.8407,7.8407,7.8086,7.7891,7.7891,7.7891,7.8311,7.912,8.0253,8.1273,8.2036,8.3177,8.379,8.4211,8.5278,8.5952,8.6265,8.6265,8.6265,8.6407,8.7977,8.8584,8.8798,9.0332,9.1224,9.1759,9.2865,9.3543,9.3899,9.3899,9.3899,9.3899,9.3899,9.4012,9.4195,9.4195,9.4374,9.4548,9.4548,9.4374,9.4195,9.3974,9.3899,9.3899,9.3899,9.3899,9.3899,9.3899,9.3899,9.3899,9.3899,9.3899,9.3509,9.2297,8.9589,8.5742,8.0413,7.706,7.3612,6.9452,6.8993,6.8993,6.8993,6.8993,6.8993,6.8993,6.8993,6.8993,6.8993,6.8993,6.8993,6.8993,6.8993,6.8993,6.8993,6.9095,6.9169,6.9244,6.9372,6.943,0.0,0.0,0.0,3.5569,3.6994,4.0484,5.6742,0.0,0.0,0.0,0.0,0.0,0.0,0.0,0.0,0.0,0.0,0.0,0.0,0.0,0.0,0.0,0.0,0.0,0.0,0.0,0.0,0.0,0.0,7.7891,7.7891,7.8874,7.9418,7.9418,7.8469,7.7891,7.7891,7.7891,7.7989,7.7989,7.922,7.97,7.9689,8.0821,8.1957,8.3064,8.3134,8.3682,8.4624,8.4624,8.4624,8.4766,8.6336,8.6978,8.7157,8.8726,9.026,9.158,9.1652,9.2651,9.3899,9.3899,9.3899,9.3899,9.3899,9.4408,9.5047,9.5047,9.5581,9.6114,9.6114,9.5581,9.4818,9.4049,9.3899,9.3899,9.3899,9.3899,9.3899,9.3899,9.3899,9.3899,9.3899,9.3899,9.2512,8.8489,8.7724,8.4719,7.6484,7.5314,7.3612,6.9452,6.8993,6.8993,6.8993,6.8993,6.8993,6.8993,6.8993,6.8993,6.8993,6.8993,6.8993,6.8993,6.8993,6.8993,6.8993,6.9282,6.9394,6.942,6.939,6.9546,2.5494,2.8967,3.2981,4.031,4.6301,5.1885,5.7498,6.2093,0.0,0.0,0.0,0.0,0.0,0.0,0.0,0.0,0.0,0.0,0.0,0.0,0.0,0.0,0.0,0.0,0.0,0.0,0.0,0.0,0.0,0.0,7.7891,7.8311,7.8469,7.8469,7.815,7.7891,7.7891,7.7891,7.7891,7.7989,7.9846,8.0685,8.0736,8.2622,8.3648,8.4001,8.4001,8.4209,8.4552,8.4552,8.4552,8.4588,8.5123,8.5337,8.5515,8.7121,8.8013,8.8798,9.0867,9.1937,9.2544,9.3578,9.3899,9.3899,9.3899,9.4049,9.4303,9.4303,9.4479,9.4751,9.5269,9.5205,9.4982,9.4683,9.4651,9.4548,9.4012,9.4719,9.5112,9.4049,9.4303,9.4443,9.3938,9.3899,9.2506,8.8478,8.5511,8.1699,7.6325,7.3039,7.069,6.9292,6.9095,6.8993,6.8993,6.8993,6.8993,6.8993,6.8993,6.8993,6.8993,6.8993,6.8993,6.8993,6.9095,6.9184,6.9277,6.9353,6.9497,6.966,6.9651,6.9729,2.9142,3.2864,3.6761,4.6475,5.3572,5.8748,6.1104,6.5467,6.9015,0.0,0.0,0.0,0.0,0.0,0.0,0.0,0.0,0.0,0.0,0.0,0.0,0.0,0.0,0.0,0.0,0.0,0.0,0.0,0.0,0.0,7.9187,7.9187,7.8908,7.8564,7.8469,7.8311,7.7891,7.7891,7.7891,7.7989,7.9428,8.0253,8.0651,8.2546,8.3576,8.4001,8.4381,8.4552,8.4552,8.4552,8.4552,8.4552,8.4552,8.4552,8.4659,8.5694,8.6407,8.7192,8.9226,9.0795,9.215,9.3155,9.4011,9.4719,9.4719,9.4885,9.5112,9.5112,9.5368,9.5642,9.5822,9.5702,9.5395,9.5112,9.4818,9.4651,9.4719,9.5305,9.5519,9.4479,9.4479,9.4479,9.3938,9.3899,9.208,8.6554,8.3443,7.9688,7.4206,7.1019,6.9269,6.9271,6.9207,6.9169,6.9169,6.9169,6.9132,6.9095,6.9095,6.9095,6.9095,6.9095,6.9132,6.9169,6.9244,6.9048,6.8645,6.8077,6.7874,6.8034,6.8034,6.811,3.0543,3.4221,3.9103,5.4112,5.8923,6.1424,6.7619,6.9015,0.0,0.0,0.0,0.0,0.0,0.0,0.0,0.0,0.0,0.0,0.0,0.0,0.0,0.0,0.0,0.0,0.0,0.0,0.0,0.0,0.0,8.1273,8.1273,8.1273,8.0736,7.9599,7.9599,7.912,7.815,7.8183,7.8183,7.8183,7.815,7.872,7.9689,8.0905,8.2036,8.3173,8.414,8.4552,8.4552,8.4552,8.4552,8.4552,8.4552,8.4552,8.4552,8.4552,8.548,8.6868,8.694,8.941,9.254,9.2685,9.4293,9.6117,9.6227,9.6752,9.7324,9.7324,9.7845,9.825,9.7548,9.6804,9.6114,9.5395,9.4651,9.4479,9.594,9.5642,9.5112,9.5112,9.4512,9.4012,9.3938,9.3757,9.0867,8.2856,8.15,7.8446,7.0433,6.9402,6.9408,6.9435,6.9383,6.9409,6.9409,6.9409,6.9334,6.9222,6.9233,6.9244,6.9244,6.9233,6.9297,6.9409,6.9248,6.8502,6.7123,6.5643,6.4921,6.4921,6.4921,6.4921,3.7079,4.5183,5.2235,6.0501,6.4555,6.6979,6.8637,6.9015,6.9363,0.0,0.0,0.0,0.0,0.0,0.0,0.0,0.0,0.0,0.0,0.0,0.0,0.0,0.0,0.0,0.0,0.0,0.0,0.0,0.0,8.1273,8.1273,8.1273,8.1073,8.0821,8.0821,8.0651,8.0427,8.0427,8.0427,8.0427,8.1307,8.1877,8.2115,8.3251,8.3896,8.414,8.4449,8.4552,8.4552,8.4552,8.4552,8.4552,8.4552,8.4552,8.4552,8.4552,8.5091,8.6055,8.7183,8.8638,9.0364,9.2666,9.386,9.4558,9.5861,9.6339,9.6503,9.6503,9.6647,9.6906,9.7276,9.7191,9.7191,9.7548,9.7093,9.6647,9.6994,9.6449,9.594,9.594,9.5763,9.5431,9.4885,9.1868,8.783,8.2658,7.9355,7.5593,7.0482,6.9747,6.9709,6.9682,6.952,6.9404,6.9404,6.9404,6.9366,6.9366,6.9329,6.9356,6.9356,6.9352,6.9366,6.9404,6.7187,6.5873,6.5491,6.5111,6.4921,6.4921,6.4921,6.4921,3.562,4.6045,5.662,6.4395,6.7676,6.9015,6.9015,6.9015,6.9238,7.0084,0.0,0.0,0.0,0.0,0.0,0.0,0.0,0.0,0.0,0.0,0.0,0.0,0.0,0.0,0.0,0.0,0.0,0.0,0.0,8.2733,8.2733,8.2272,8.2036,8.2036,8.1519,8.1273,8.1273,8.1273,8.1273,8.1239,8.1957,8.2497,8.3024,8.3612,8.414,8.4552,8.4552,8.4552,8.4588,8.5301,8.5159,8.4624,8.5301,8.5159,8.4552,8.4552,8.4811,8.5194,8.6094,8.7572,8.9333,9.1093,9.3052,9.4896,9.5822,9.6636,9.7276,9.7276,9.7276,9.7276,9.7372,9.7372,9.7372,9.7502,9.7191,9.7044,9.772,9.7548,9.7179,9.6804,9.6449,9.5392,9.2793,9.0236,8.6373,8.0292,7.7461,7.4564,7.0502,6.9934,6.986,6.986,6.9735,6.9663,6.9663,6.9663,6.9649,6.9562,6.8884,6.8458,6.847,6.7727,6.738,6.7418,6.5101,6.3896,6.3896,6.3137,6.2795,6.2795,6.2795,6.2795,3.2488,4.2831,5.5709,6.5973,6.8859,6.9015,6.9015,6.9015,6.9015,0.0,0.0,0.0,0.0,0.0,0.0,0.0,0.0,0.0,0.0,0.0,0.0,0.0,0.0,0.0,0.0,0.0,0.0,0.0,0.0,0.0,8.4552,8.3683,8.3247,8.3247,8.2194,8.1682,8.1682,8.1682,8.1682,8.1682,8.1682,8.2194,8.3247,8.3247,8.3683,8.4552,8.4552,8.4659,8.4945,8.6336,8.6086,8.498,8.6372,8.6012,8.4716,8.4716,8.4811,8.4969,8.4969,8.6722,8.9013,8.9234,9.2085,9.5454,9.5902,9.7061,9.8258,9.8482,9.8557,9.8406,9.772,9.7548,9.7372,9.6699,9.654,9.6906,9.825,9.8557,9.8366,9.7676,9.6994,9.5109,9.0596,8.8764,8.5225,7.7219,7.5552,7.3957,7.0426,6.9971,6.9971,6.9971,6.9971,6.9971,6.9971,6.9781,6.9601,6.945,6.7895,6.6935,6.6933,6.5529,6.4617,6.4276,6.2947,6.2264,6.2226,6.0783,6.0062,6.0062,6.0062,6.0062,4.1907,4.7521,5.3304,6.3933,6.785,6.9015,6.9015,6.9015,6.9334,7.0513,6.9991,0.0,0.0,0.0,0.0,0.0,0.0,0.0,0.0,0.0,0.0,0.0,0.0,0.0,0.0,0.0,0.0,0.0,0.0,0.0,8.4552,8.4381,8.4313,8.4313,8.4105,8.3966,8.3966,8.3966,8.3966,8.3966,8.3966,8.4105,8.4313,8.4313,8.4381,8.4552,8.4552,8.5301,8.6514,8.68,8.6764,8.655,8.68,8.6238,8.5322,8.5322,8.6092,8.7142,8.7142,8.7809,8.8922,9.0339,9.1346,9.25,9.5192,9.6239,9.6725,9.8146,9.8557,9.852,9.8366,9.8366,9.8327,9.8172,9.8131,9.825,9.8481,9.8557,9.852,9.8366,9.825,9.7218,9.4357,8.7316,8.0726,7.6644,7.316,7.0768,7.0085,6.9971,6.9971,6.9971,6.9971,6.9971,6.9971,6.868,6.788,6.7851,6.6252,6.5323,6.5339,6.5035,6.363,6.0973,6.0631,6.0479,6.0479,6.0213,6.0062,6.0062,6.0062,6.0062,4.021,4.7315,5.4766,6.0656,6.5568,6.9015,6.9015,6.9015,6.9459,7.0845,7.0634,7.0965,0.0,0.0,0.0,0.0,0.0,0.0,0.0,0.0,0.0,0.0,0.0,0.0,0.0,0.0,0.0,0.0,0.0,0.0,0.0,8.4552,8.4552,8.4552,8.4552,8.4552,8.4552,8.4552,8.4552,8.4552,8.4552,8.4552,8.4552,8.4552,8.4552,8.4588,8.5408,8.6193,8.6978,8.8133,8.8151,8.7461,8.7803,8.7209,8.6147,8.6147,8.6605,8.7179,8.7179,8.7618,8.8287,8.9106,9.0153,9.1453,9.3023,9.4669,9.6201,9.6987,9.7847,9.8557,9.8557,9.8557,9.8557,9.8557,9.8557,9.8557,9.8557,9.8557,9.8557,9.8557,9.7809,9.6312,9.3492,8.6513,7.9346,7.3721,7.1224,6.9971,6.9971,6.9971,6.9971,6.9971,6.9971,6.9629,6.8718,6.7921,6.7085,6.6174,6.4617,6.3706,6.3706,6.2871,6.1656,6.01,6.0062,6.0062,6.0062,6.0062,6.0062,6.0062,6.0062,6.0062,3.7829,4.5936,5.5193,5.8236,6.3093,6.7545,6.8695,6.9238,6.9773,7.0935,7.1174,7.2055,7.5069,0.0,0.0,0.0,0.0,0.0,0.0,0.0,0.0,0.0,0.0,0.0,0.0,0.0,0.0,0.0,0.0,0.0,0.0,0.0,0.0,8.4552,8.4552,8.4552,8.4552,8.4552,8.4552,0.0,8.4552,8.4552,8.4619,8.484,8.5032,8.5104,8.6101,8.6687,8.6978,8.8727,8.9104,8.8445,8.87,8.8438,8.786,8.7161,8.7258,8.7611,8.7242,8.745,8.7864,8.7864,8.9107,9.0705,9.1042,9.321,9.5566,9.594,9.7248,9.8557,9.8557,9.8557,9.8557,9.8557,9.8557,9.8557,9.8557,9.8557,9.8557,9.8557,9.7174,9.4931,9.1421,8.5812,7.9338,7.2083,7.0388,6.9971,6.9971,6.9971,6.9857,6.9477,6.9439,6.8756,6.7047,6.6592,6.5832,6.4504,6.2909,6.2036,6.2036,6.0783,6.0062,6.0062,6.0062,6.0062,6.0062,6.0062,6.0062,6.0062,6.0062,6.0062,4.1758,4.5535,5.0397,5.8408,6.0834,6.2639,6.7801,6.9991,7.0935,7.1174,7.1174,7.2055,7.5069,7.4562,0.0,0.0,0.0,0.0,0.0,0.0,0.0,0.0,0.0,0.0,0.0,0.0,0.0,0.0,0.0,0.0,0.0,0.0,0.0,8.4552,8.4552,8.4552,8.4552,8.4552,8.4552,0.0,8.4552,8.4552,8.4583,8.5906,8.6502,8.645,8.588,8.613,8.6907,8.7118,8.8373,9.004,8.8518,8.9614,9.1619,8.8692,8.8948,9.0525,8.8993,8.8505,8.854,8.854,8.8689,8.9172,9.0705,9.2388,9.4033,9.5603,9.7248,9.8557,9.8557,9.8557,9.8557,9.8557,9.8557,9.8557,9.8557,9.8557,9.8557,9.8557,9.7174,9.4556,8.9887,8.5042,8.0112,7.4978,7.1793,6.9971,6.9971,6.9971,6.9401,6.7845,6.7693,6.7009,6.5301,6.3858,6.2947,6.2795,6.1239,6.0289,6.0289,6.0138,6.0062,6.0062,6.0062,6.0062,6.0062,6.0062,6.0062,6.0062,6.0062,6.0062,3.5317,4.1424,4.79,4.9643,5.6023,6.2317,6.4616,6.5605,6.7236,7.1675,7.1903,7.1591,7.218,7.4392,0.0,0.0,0.0,0.0,0.0,0.0,0.0,0.0,0.0,0.0,0.0,0.0,0.0,0.0,0.0,0.0,0.0,0.0,0.0,0.0,8.5149,8.5358,8.5829,8.5829,8.5829,8.5829,8.5829,8.5829,8.585,8.645,8.6656,8.6656,8.6397,8.6984,8.8298,8.9595,9.1333,9.2972,9.1712,9.2017,9.2835,9.0599,9.0376,9.093,8.921,8.8612,8.8612,8.8612,8.8612,8.8761,8.9434,9.078,9.2425,9.4033,9.5715,9.7248,9.8258,9.8557,9.8557,9.8557,9.8557,9.8557,9.8557,9.8557,9.8557,9.8557,9.4856,9.0488,8.6684,8.1292,7.6237,7.24,7.0768,6.9971,6.9971,6.9971,6.9325,6.7617,6.7465,6.6364,6.3744,6.2947,6.215,6.1125,6.0441,6.0062,6.0062,6.0062,6.0062,6.0062,6.0062,6.0062,6.0062,6.0062,6.0062,6.0062,6.0062,6.0062,3.186,3.7507,4.3636,4.3738,5.0691,5.8245,6.1224,6.0942,6.2648,7.1633,7.173,7.0204,7.0192,7.2681,0.0,0.0,0.0,0.0,0.0,0.0,0.0,0.0,0.0,0.0,0.0,0.0,0.0,0.0,0.0,0.0,0.0,0.0,0.0,0.0,8.5442,8.5793,8.6345,8.6554,8.6656,8.6656,8.6656,8.6904,8.7271,8.7271,8.7271,8.7271,8.7048,8.7615,8.8743,9.062,9.2777,9.4823,9.3649,9.396,9.4669,9.2126,9.1453,9.1565,8.9397,8.8612,8.8612,8.8612,8.8612,8.8612,8.8612,8.9808,9.1416,9.25,9.4369,9.6276,9.751,9.8295,9.8819,9.8819,9.8819,9.8819,9.8819,9.8707,9.8482,9.8034,9.3026,8.7686,8.407,7.8574,7.3577,7.0426,6.9971,6.9971,6.9971,6.9971,6.9135,6.6933,6.6706,6.5377,6.2112,6.1846,6.1314,6.0138,6.0062,6.0062,6.0062,6.0062,6.0062,6.0062,6.0062,6.0062,6.0062,6.0062,6.0062,6.0062,6.0062,6.0062,3.4589,3.4644,3.6415,4.35,4.5383,4.8088,5.8209,5.7156,5.7836,7.0752,7.0103,6.777,6.9798,6.8495,0.0,0.0,0.0,0.0,0.0,0.0,0.0,0.0,0.0,0.0,0.0,0.0,0.0,0.0,0.0,0.0,0.0,0.0,0.0,0.0,8.5211,8.5524,8.5561,8.6308,8.6656,8.6656,8.6656,8.7362,8.8612,8.8612,8.8612,8.8577,8.7944,8.766,8.7766,8.8682,9.1407,9.486,9.3154,9.4989,9.7884,9.2986,9.2163,9.3023,8.9771,8.8612,8.8612,8.8612,8.8612,8.8612,8.8612,8.9808,9.1191,9.1191,9.3509,9.6015,9.6052,9.7697,9.9343,9.9343,9.9343,9.9343,9.9343,9.9118,9.8445,9.6762,9.2316,8.7364,8.267,7.7862,7.3577,7.0426,6.9971,6.9971,6.9971,6.9971,6.868,6.5301,6.4959,6.363,6.0365,6.01,6.01,6.0062,6.0062,6.0062,6.0062,6.0062,6.0062,6.0062,6.0062,6.0062,6.0062,6.0062,6.0062,6.0062,6.0062,6.0062,3.3109,3.6739,4.1011,4.3358,4.5405,4.9311,5.8446,6.0316,6.1223,6.5279,6.6632,6.6512,6.4663,6.7905,7.0861,0.0,0.0,0.0,0.0,0.0,0.0,0.0,0.0,0.0,0.0,0.0,0.0,0.0,0.0,0.0,0.0,0.0,0.0,0.0,8.6867,8.7197,8.7628,8.7907,8.8023,8.8023,8.8023,8.8251,8.8612,8.8612,8.8612,8.8612,8.8435,8.8325,8.8549,9.104,9.283,9.4181,9.5934,9.7433,9.822,9.5491,9.4818,9.4743,9.149,9.0444,9.0331,8.9281,8.8982,8.9057,8.9057,8.9431,9.007,9.1231,9.3173,9.4811,9.4807,9.6217,9.7901,9.907,9.9334,9.9334,9.9334,9.9258,9.8034,9.3994,8.9256,8.4391,7.9476,7.4632,7.111,7.0123,6.9971,6.9971,6.9971,6.9971,6.9135,6.6895,6.4655,6.2453,6.0251,6.0062,6.0062,6.0062,6.0062,6.0062,6.0062,6.0062,6.0062,6.0062,6.0062,6.0062,6.0062,6.0062,6.0062,6.0062,6.0062,6.0062,3.436,3.8535,4.2586,4.351,4.4798,4.8265,5.7295,5.8308,5.7884,5.9862,6.2363,6.2929,5.9052,6.3715,6.834,6.9066,7.4354,0.0,0.0,0.0,0.0,0.0,0.0,0.0,0.0,0.0,0.0,0.0,0.0,0.0,0.0,0.0,0.0,8.7271,8.7531,8.7864,8.8288,8.8543,8.8612,8.8612,8.8612,8.8612,8.8612,8.8612,8.8686,8.8795,8.8795,8.8795,8.9023,9.2313,9.3622,9.3846,9.7211,9.8557,9.8333,9.665,9.6089,9.579,9.3136,9.1864,9.1332,9.0371,8.9667,8.9216,8.9216,8.9216,8.9414,9.0513,9.2016,9.3349,9.3555,9.533,9.7377,9.8412,9.9132,9.9549,9.9549,9.945,9.7716,9.2049,8.7479,8.2796,7.7175,7.2742,6.9971,6.9971,6.9971,6.9971,6.9971,6.9971,6.9325,6.7617,6.5073,6.2567,6.0251,6.0062,6.0062,6.0062,6.0062,6.0062,6.0062,6.0062,6.0062,6.0062,6.0062,6.0062,6.0062,6.0062,6.0062,6.0062,6.0062,6.0062,3.7433,3.9692,4.171,4.3958,4.4112,4.609,5.5049,5.2765,5.0034,5.4729,5.7181,5.7247,5.3288,5.6849,6.1471,6.4971,7.1516,7.7419,0.0,0.0,0.0,0.0,0.0,0.0,0.0,0.0,0.0,0.0,0.0,0.0,0.0,0.0,0.0,8.6806,8.7406,8.774,8.774,8.8325,8.8612,8.8612,8.8612,8.8612,8.8612,8.8612,8.8795,8.9019,8.9016,8.9124,8.9461,9.2612,9.3847,9.407,9.7323,9.8594,9.8407,9.6837,9.6425,9.635,9.4553,9.3047,9.1949,9.1794,9.0647,8.9307,8.9421,8.9383,8.9269,8.9269,9.041,9.1776,9.236,9.4952,9.742,9.7572,9.8749,9.9926,9.9926,9.9451,9.709,9.0564,8.6461,8.1968,7.5438,7.1907,6.9971,6.9971,6.9971,6.9971,6.9971,6.9971,6.9287,6.7465,6.587,6.3592,6.0327,6.0062,6.0062,6.0062,6.0062,6.0062,6.0062,6.0062,6.0062,6.0062,6.0062,6.0062,6.0062,6.0062,6.0062,6.0062,6.0062,6.0062,3.647,3.8682,4.1712,4.5464,4.8898,5.2196,5.5504,5.3962,5.1613,5.0927,5.0888,5.0316,4.8124,5.1975,5.9424,7.1272,7.2767,7.4648,0.0,0.0,0.0,0.0,0.0,0.0,0.0,0.0,0.0,0.0,0.0,0.0,0.0,0.0,8.8176,8.8176,8.8325,8.8435,8.8435,8.8577,8.8612,8.8612,8.8612,8.8612,8.8612,8.8612,8.8649,8.872,8.8935,8.9761,9.1128,9.3305,9.493,9.6239,9.8333,9.9156,9.9118,9.8707,9.8595,9.8218,9.5249,9.4108,9.3786,9.2458,9.1024,9.0075,9.1366,9.0872,8.9809,8.9809,9.0109,9.072,9.2142,9.4079,9.5977,9.7268,9.8749,9.9926,9.9926,9.6865,9.2548,8.7094,8.2332,7.745,7.2021,7.0464,6.9971,6.9971,6.9971,6.9971,6.9971,6.9971,6.8832,6.5832,6.5149,6.3592,6.0327,6.0062,6.0062,6.0062,6.0062,6.0062,6.0062,6.0062,6.0062,6.0062,6.0062,6.0062,6.0062,6.0062,6.0062,6.0062,6.0062,6.0062,3.8968,4.1759,4.488,4.574,4.8401,5.0659,5.0413,4.9504,4.7833,4.4776,4.4715,4.5407,4.6006,4.8657,5.4289,6.5109,6.8705,7.2315,7.8896,0.0,0.0,0.0,0.0,0.0,0.0,0.0,0.0,0.0,0.0,0.0,0.0,0.0,8.8612,8.8612,8.8612,8.8612,8.8612,8.8832,8.8907,8.8907,8.8907,8.8907,8.8907,8.8907,8.8982,8.9094,0.0,9.024,9.1932,9.3762,9.5366,9.699,9.8674,9.9343,9.9343,9.9343,9.9343,9.9079,9.7287,9.6405,9.5749,9.4041,9.2446,9.1193,9.1307,9.0738,9.0016,9.0016,9.0016,9.0206,9.1117,9.2636,9.4307,9.6015,9.7648,9.9052,9.9774,9.6015,9.1042,8.5954,8.0943,7.5931,7.0844,6.9971,6.9971,6.9971,6.9971,6.9971,6.9971,6.9971,6.8984,6.6364,6.5377,6.3896,6.1428,6.0517,6.0062,6.0062,6.0062,6.0062,6.0062,6.0062,6.0062,6.0062,6.0062,6.0062,6.0062,6.0062,6.0062,6.0062,6.0062,6.0062,4.2244,4.5598,4.8383,4.5725,4.5879,4.6196,4.4322,4.3673,4.257,3.9535,4.0286,4.2374,4.5489,4.658,4.884,5.4406,6.2294,6.9846,0.0,0.0,8.395,0.0,0.0,0.0,0.0,0.0,0.0,0.0,0.0,0.0,0.0,8.8612,8.8612,8.8612,8.8649,8.8716,8.8734,8.9065,8.9215,8.9215,8.9215,8.9215,8.9215,8.9215,8.9327,0.0,0.0,9.0738,9.2646,9.4103,9.5752,9.7439,9.8856,9.9424,9.9424,9.9424,9.9424,9.9432,9.9531,9.8711,9.7344,9.5901,9.4117,9.2294,9.1117,9.0396,9.0016,8.9957,8.9971,9.0016,9.0016,9.1269,9.294,9.461,9.6319,9.7761,9.8553,9.4836,8.9864,8.4761,7.9761,7.502,7.073,6.9971,6.9971,6.9971,6.9971,6.9971,6.9971,6.9971,6.9325,6.7617,6.5946,6.4276,6.2719,6.1049,6.0062,6.0062,6.0062,6.0062,6.0062,6.0062,6.0062,6.0062,6.0062,6.0062,6.0062,6.0062,6.0062,6.0062,6.0062,6.0062,4.2347,4.4844,4.729,4.6805,4.5879,4.4987,4.463,4.3167,4.1891,4.1788,4.1647,4.228,4.4522,4.6092,4.777,5.0053,5.7428,6.5959,7.4744,7.7956,8.0674,8.4149,0.0,0.0,0.0,0.0,0.0,0.0,0.0,0.0,0.0,8.8612,8.8612,8.8612,8.887,8.8999,8.911,8.9186,8.9224,8.9224,8.9224,8.9224,8.9224,8.9224,8.9224,0.0,0.0,0.0,9.4312,9.4806,9.6751,9.9461,9.9727,9.9803,9.9803,9.9803,9.9803,9.9841,9.9849,9.8862,9.7534,9.7268,9.5066,9.275,9.3927,9.2256,8.9961,8.9732,8.983,9.0016,9.0016,9.1269,9.2902,9.4383,9.6167,9.6766,9.3826,8.9454,8.4563,7.9366,7.4453,7.0882,7.0123,6.9971,6.9971,6.9971,6.9971,6.9971,6.9971,6.9971,6.9325,6.7617,6.5946,6.4276,6.2719,6.1049,6.0062,6.0062,6.0062,6.0062,6.0062,6.0062,6.0062,6.0062,6.0062,6.0062,6.0062,6.0062,6.0062,6.0062,6.0062,6.0062,4.3881,4.5309,4.7021,4.7021,4.6486,4.5772,4.4916,4.3989,4.3136,4.2492,4.2176,4.2817,4.5486,4.5879,4.7413,5.2337,5.668,6.24,7.0943,7.7077,8.2086,8.5675,8.6713,0.0,0.0,0.0,0.0,0.0,0.0,0.0,0.0,8.8907,8.8945,8.8945,8.9057,8.9171,8.9218,8.9378,8.9345,8.9217,8.9217,8.9217,8.9217,8.9217,8.9217,0.0,0.0,0.0,9.307,9.3222,9.5241,9.8228,9.8363,9.8959,9.9715,9.9859,9.9926,9.9926,9.9926,9.9432,9.8559,9.6774,9.518,9.3659,9.2459,9.0947,8.9545,8.9445,8.9485,8.9572,8.9572,9.015,9.1363,9.3866,9.5137,9.5101,9.2531,8.8109,8.3161,7.8139,7.3235,6.9892,6.9966,6.9971,6.9971,6.9971,6.9971,6.9971,6.9971,6.9971,6.9705,6.8908,6.7313,6.5643,6.401,6.234,6.1049,6.0138,6.0062,6.0062,6.0062,6.0062,6.0062,6.0062,6.0062,6.0062,6.0062,6.0062,6.0062,6.0062,6.0062,6.0062,4.7378,0.0,5.1445,5.1445,5.0589,4.9376,0.0,4.6593,4.538,4.3774,4.3453,4.4203,4.6593,4.6058,4.7237,5.3319,5.5144,5.8462,6.6332,7.3885,8.0243,8.4765,8.6611,0.0,0.0,0.0,0.0,0.0,0.0,0.0,0.0,8.9156,8.9232,8.9232,8.9221,8.9229,8.924,8.943,8.942,8.9238,8.9238,8.9238,8.9238,8.9238,0.0,0.0,0.0,0.0,9.1751,9.1751,9.3736,9.6833,9.7013,9.8068,9.9563,9.9764,9.9859,9.9926,9.9926,9.9926,9.9508,9.6987,9.5629,9.4359,9.1117,8.9975,8.9793,8.9746,8.9465,8.9238,8.9238,8.9238,9.0069,9.3375,9.3351,9.2077,9.0401,8.6144,8.1188,7.6255,7.2259,6.9768,6.9905,6.9948,6.9933,6.997,6.9971,6.9971,6.9971,6.9971,6.9971,6.9971,6.8452,6.6782,6.5073,6.382,6.2453,6.0783,6.0289,6.0062,6.0062,6.0062,6.0062,6.0062,6.0062,6.0062,6.0062,6.0062,6.0062,6.0062,6.0062,6.0062,0.0,5.99,6.436,6.436,6.1077,5.7474,5.594,5.2158,0.0,4.7021,4.67,4.6771,4.6985,4.695,4.7169,4.8093,4.9821,5.3803,6.1755,6.5095,6.9659,0.0,8.1806,0.0,0.0,0.0,0.0,0.0,0.0,0.0,0.0,8.9205,8.9205,8.9205,8.9214,8.9215,8.9231,8.9258,8.9258,8.9231,8.9231,8.9231,8.9231,8.9231,0.0,0.0,0.0,0.0,0.0,9.1769,9.375,9.6816,9.683,9.7921,9.953,9.9527,9.9695,9.9926,9.9926,9.9926,9.9884,9.965,9.7373,9.4329,9.2246,9.1606,9.153,9.1298,9.0247,8.9231,8.9231,8.9231,9.0018,9.3197,9.0593,8.6867,8.4825,8.0761,7.5956,7.0767,6.9598,6.9533,6.9757,6.981,6.9845,6.996,6.9971,6.9971,6.9971,6.9971,6.9971,6.9971,6.8452,6.6782,6.5073,6.4845,6.4086,6.2529,6.0935,6.0062,6.0062,6.0062,6.0062,6.0062,6.0062,6.0062,6.0062,6.0062,6.0062,6.0062,6.0062,6.0062,5.7831,6.172,6.4253,6.4253,6.1722,5.8708,5.677,5.2944,4.9217,4.7417,4.7021,4.7021,4.7021,4.7241,4.8387,5.1489,5.307,5.5662,6.0631,6.549,0.0,7.4807,0.0,0.0,0.0,0.0,0.0,0.0,0.0,0.0,0.0,8.9447,8.9385,8.9239,8.9242,8.9178,8.9103,8.9108,8.9019,8.887,8.887,8.887,8.887,8.887,0.0,0.0,0.0,0.0,0.0,8.9805,9.1186,9.3316,9.3503,9.5189,9.7583,9.7781,9.8543,9.9549,9.9549,9.9549,9.9525,9.9524,9.7928,9.5865,9.51,9.3928,9.2614,9.1565,9.0855,9.0182,8.9132,8.887,8.9693,9.2872,8.9923,8.5927,8.4162,8.0035,7.5134,7.0179,6.9259,6.939,6.9708,6.9768,6.9821,6.996,6.9971,6.9971,6.9971,6.9971,6.9971,6.9971,6.9401,6.8338,6.663,6.6516,6.5377,6.2757,6.1998,6.1163,6.01,6.0062,6.0062,6.0062,6.0062,6.0062,6.0062,6.0062,6.0062,6.0062,6.0062,6.0062,6.3147,6.6286,6.8605,6.8605,6.6524,6.3417,5.9494,5.5563,5.1704,4.7995,4.7241,4.7277,4.7381,4.7647,4.907,5.2887,5.4513,5.694,6.1803,6.6838,0.0,7.5077,8.1742,0.0,0.0,0.0,0.0,0.0,0.0,0.0,0.0,8.9542,8.9362,8.9165,8.9094,8.8982,8.8907,8.8907,8.8832,8.8612,8.8612,8.8612,8.8612,8.8612,0.0,0.0,0.0,0.0,0.0,8.8612,8.9621,9.1191,9.1338,9.3169,9.5709,9.6404,9.7459,9.8604,9.9132,9.8994,9.8617,9.9145,9.775,9.5978,9.6524,9.5939,9.4781,9.3136,9.1977,9.1004,9.0331,8.9397,8.9584,9.3397,8.8911,8.3788,8.3788,7.8629,7.3095,6.9805,6.9169,6.9244,6.9543,6.961,6.9713,6.9897,6.995,6.9971,6.9971,6.9971,6.9971,6.9971,6.9971,6.9515,6.8338,6.7769,6.625,6.3516,6.2871,6.1846,6.0138,6.0062,6.0062,6.0062,6.0062,6.0062,6.0062,6.0062,6.0062,6.0062,6.0062,6.0062,7.0603,7.5169,7.9879,7.9879,7.7524,7.3136,6.518,6.0935,5.6573,4.9141,4.7647,4.7739,4.813,4.8215,4.884,5.0804,5.2584,5.6673,6.5218,6.8037,7.1684,0.0,0.0,0.0,0.0,0.0,0.0,0.0,0.0,0.0,0.0,8.9355,8.9136,8.8982,8.8761,8.8612,8.8612,8.8612,8.8612,8.8612,8.8649,8.8612,8.8612,8.8612,8.8612,0.0,0.0,0.0,0.0,8.8612,8.9621,9.1119,9.1119,9.2238,9.4067,9.5752,9.6574,9.7023,9.8707,9.822,9.7099,9.8819,9.6874,9.4254,9.5902,9.7398,9.8183,9.6501,9.3659,9.1528,9.3061,9.1079,8.9883,9.4818,8.7153,7.9638,8.3041,7.6012,6.8993,6.8993,6.8993,6.9057,6.9207,6.9336,6.9458,6.9722,6.988,6.997,6.9971,6.9971,6.9971,6.9971,6.9971,6.9971,6.9971,6.8452,6.6744,6.5035,6.3479,6.1846,6.0138,6.0062,6.0062,6.0062,6.0062,6.0062,6.0062,6.0062,6.0062,6.0062,6.0062,6.0062,7.2957,7.599,7.8238,7.8238,7.6072,7.2207,6.5323,6.0594,5.5789,4.9347,4.7801,4.7739,4.813,4.8368,4.9052,5.0817,5.4844,5.9022,6.2674,6.8795,7.4494,0.0,0.0,0.0,0.0,0.0,0.0,0.0,0.0,0.0,0.0,8.9021,8.8595,8.8096,8.8436,8.8435,8.7944,8.8435,8.8612,8.8612,8.8176,8.7944,8.7944,8.745,8.7271,8.7271,0.0,0.0,0.0,8.7271,8.7566,8.8009,8.8009,8.9052,9.0687,9.2877,9.4497,9.5878,9.8032,9.8445,9.8108,9.8594,9.8071,9.7286,9.7772,9.7361,9.665,9.6164,9.3659,9.1266,9.1752,9.0711,9.0245,9.2808,8.6378,8.0288,8.2478,7.5622,6.8993,6.8993,6.8993,6.9057,6.9207,6.9248,6.9358,6.9719,6.9848,6.989,6.9966,6.9971,6.9971,6.9971,6.9971,6.9971,6.9971,6.9515,6.7996,6.5111,6.4504,6.2985,6.0176,6.0062,6.0062,6.0062,6.0062,6.0062,6.0062,6.0062,6.0062,6.0062,6.0062,6.0062,7.4738,7.621,7.6928,7.6928,7.6331,7.3594,6.5003,6.1053,5.7152,4.987,4.7692,4.738,4.8411,4.8737,5.0269,5.4681,5.8783,6.3378,6.8993,7.4859,7.9771,8.3001,8.5347,0.0,0.0,0.0,0.0,0.0,0.0,0.0,8.8623,8.8133,8.7703,8.7316,8.7904,8.8061,8.766,8.8325,8.8505,8.8251,8.7864,8.7531,8.7271,8.6855,8.6656,8.6656,0.0,0.0,0.0,8.6656,8.6656,8.6656,8.6656,8.7293,8.8372,9.0387,9.1786,9.3016,9.5721,9.6474,9.6379,9.7642,9.7032,9.5831,9.6114,9.5246,9.43,9.4546,9.3692,9.2497,9.1508,9.164,9.1775,9.073,8.5168,8.0095,8.0139,7.4275,6.8993,6.8993,6.8993,6.9057,6.9132,6.9169,6.9282,6.9506,6.9693,6.9803,6.9868,6.9943,6.9971,6.9971,6.9971,6.9971,6.9971,6.9971,6.8794,6.6098,6.5301,6.3744,6.1163,6.0403,6.0062,6.0062,6.0062,6.0062,6.0062,6.0062,6.0062,6.0062,6.0062,6.0062,7.6054,7.6017,7.6105,7.6105,7.7563,7.606,6.4394,6.2102,5.9737,5.036,4.7393,4.6977,4.866,4.9615,5.2704,6.053,6.4026,6.9524,8.0324,8.3761,8.618,8.8915,0.0,0.0,0.0,0.0,0.0,0.0,0.0,0.0,8.7618,8.7037,8.6656,8.6605,8.7316,8.7618,8.745,8.8176,8.8251,8.7575,8.7531,8.7142,8.6605,8.6502,8.6502,8.6502,0.0,0.0,0.0,8.6502,8.6502,8.6502,8.6502,8.6502,8.6685,8.8312,8.8951,8.939,9.2577,9.3103,9.2924,9.5916,9.4457,9.167,9.2259,9.1911,9.1413,9.2038,9.322,9.3786,9.1508,9.271,9.3397,8.8975,8.3968,7.9465,7.6837,7.2469,6.8993,6.8993,6.8993,6.8993,6.8993,6.9132,6.9207,6.9207,6.9506,6.9768,6.9768,6.9903,6.9971,6.9971,6.9971,6.9971,6.9971,6.9971,6.9249,6.7579,6.587,6.4238,6.2643,6.0973,6.0062,6.0062,6.0062,6.0062,6.0062,6.0062,6.0062,6.0062,6.0062,6.0062,7.612,7.6372,7.6755,7.6755,7.714,7.4928,6.5095,6.2671,5.9615,4.9338,4.7695,4.7928,4.7447,5.2798,5.8251,6.1191,6.9875,7.7552,8.1296,8.5555,8.8566,0.0,0.0,0.0,0.0,0.0,0.0,0.0,0.0,0.0,8.6989,8.6756,8.645,8.5813,8.7011,8.7142,8.6001,8.7234,8.7575,8.6855,8.6308,8.5926,8.5756,8.5272,8.5032,8.5032,8.5032,0.0,0.0,8.5032,8.5032,8.5032,8.5032,8.5032,8.5275,8.749,8.8269,8.8618,9.1169,9.1928,9.1883,9.2582,9.2222,9.1566,9.1722,9.0751,8.962,8.9722,8.9147,8.8362,8.7844,8.8996,9.0229,8.9774,8.5289,8.0111,7.6279,7.2089,6.8993,6.8993,6.8993,6.8993,6.8993,6.9057,6.9095,6.9207,6.9356,6.9543,6.9768,6.9903,6.9971,6.9971,6.9971,6.9971,6.9971,6.9971,6.9249,6.7579,6.587,6.4238,6.2643,6.0973,6.0062,6.0062,6.0062,6.0062,6.0062,6.0062,6.0062,6.0062,6.0062,6.0062,7.7019,7.7188,7.7443,7.7443,7.7645,7.5874,6.843,6.6167,6.299,5.3441,5.1382,5.061,4.84,5.4181,6.0623,6.4616,7.3164,8.0726,8.4791,0.0,0.0,0.0,0.0,0.0,0.0,0.0,0.0,0.0,0.0,8.7729,8.6201,8.6147,8.5793,8.5086,8.6092,8.6271,8.5524,8.6619,8.6855,8.6092,8.5238,8.4844,8.506,8.4207,8.4071,8.4552,8.4552,0.0,8.4552,8.4552,8.4552,8.4552,8.4552,8.4552,8.4691,8.593,8.6409,8.6688,8.8675,8.96,8.9685,8.8575,8.8203,8.8262,8.8571,8.7818,8.6969,8.7276,8.735,8.7441,8.778,8.8756,9.0073,9.1557,8.6018,7.9926,7.8496,7.3351,6.8993,6.8993,6.8993,6.8993,6.8993,6.8993,6.9057,6.9132,6.9282,6.9448,6.9595,6.9829,6.9971,6.9971,6.9971,6.9971,6.9971,6.9971,6.9591,6.8718,6.6288,6.4542,6.3744,6.1352,6.0062,6.0062,6.0062,6.0062,6.0062,6.0062,6.0062,6.0062,6.0062,6.0062,7.7727,7.8024,7.8061,7.8061,7.8412,7.7304,7.1928,7.0034,6.7124,5.9126,5.5971,5.3823,5.1055,5.5491,6.176,6.8588,7.5249,8.184,0.0,0.0,8.9143,0.0,0.0,0.0,0.0,0.0,0.0,0.0,0.0,8.672,8.5442,8.52,8.4925,8.4619,8.4861,8.5164,8.5322,8.5946,8.5853,8.5103,8.4053,8.3752,8.4245,8.3394,8.354,8.4552,0.0,0.0,8.4313,8.4313,8.4313,8.4313,8.4313,8.4381,8.4552,8.4552,8.4552,8.4731,8.6051,8.6907,8.7127,8.5175,8.4552,8.4614,8.5211,8.4996,8.4716,8.5211,8.6358,8.7643,8.8578,8.9523,9.0782,9.2977,8.6369,7.9877,8.1179,7.4872,6.8993,6.8993,6.8993,6.8993,6.8993,6.8993,6.8993,6.8993,6.9244,6.9419,6.9398,6.9738,6.9971,6.9971,6.9971,6.9971,6.9971,6.9971,6.9971,6.9971,6.6782,6.4921,6.4921,6.1808,6.0062,6.0062,6.0062,6.0062,6.0062,6.0062,6.0062,6.0062,6.0062,6.0062,7.691,7.8273,7.8642,7.8642,7.8673,7.7395,7.2374,7.1133,6.9143,6.249,5.8543,5.6201,5.6135,5.9027,6.368,7.0483,0.0,8.3308,8.8471,8.9119,8.9076,8.9019,8.8324,8.786,8.7823,8.7271,8.6904,8.6806,8.6201,8.5502,8.4746,8.386,8.3719,8.4552,8.3719,8.379,8.468,8.4489,8.4021,8.3324,8.2202,8.2124,8.3212,8.3064,8.354,8.4552,0.0,0.0,8.3247,8.3247,8.3247,8.3247,8.3247,8.3755,8.4552,8.4552,8.4552,8.4588,8.4766,8.4971,8.4966,8.4655,8.4552,8.4619,8.4614,8.465,8.4583,8.4614,8.4859,8.536,8.68,8.8261,8.9795,9.1473,8.6405,8.1179,8.1398,7.4872,6.8993,6.8993,6.8993,6.8993,6.8993,6.8993,6.8993,6.8993,6.9244,6.9419,6.9398,6.9738,6.9971,6.9971,6.9971,6.9971,6.9971,6.9971,6.9971,6.9971,6.6782,6.4921,6.4921,6.1808,6.0062,6.0062,6.0062,6.0062,6.0062,6.0062,6.0062,6.0062,6.0062,6.0062,7.3716,7.6452,7.8741,7.8921,7.8846,7.818,7.6161,7.5675,7.4105,6.8507,6.4758,6.1659,5.9027,0.0,0.0,0.0,0.0,0.0,8.799,8.8286,8.813,0.0,8.7353,0.0,8.7132,8.6892,8.6502,0.0,8.4817,8.3998,8.3683,8.2616,8.2194,8.2733,8.2272,8.2539,8.3719,8.3542,8.3326,8.3024,8.119,8.0905,8.1957,8.1321,8.1647,8.2733,0.0,8.2427,8.2036,8.2762,8.3024,8.3099,8.3612,8.414,8.4552,8.4552,8.4552,8.4552,8.4552,8.4552,8.4552,8.4552,8.4552,8.4552,8.4552,8.4552,8.4552,8.4552,8.5194,8.6229,8.7799,8.9368,9.0938,9.2508,8.7055,8.1434,8.1434,7.4872,6.8993,6.8993,6.8993,6.8993,6.8993,6.9095,6.9132,6.9132,6.9394,6.9607,6.9617,6.9811,6.9971,6.9971,6.9971,6.9971,6.9971,6.9971,6.9971,6.9971,6.7693,6.5908,6.4959,6.2719,6.0973,5.9872,5.9834,5.984,5.9848,5.9848,5.9941,6.0062,6.0062,6.0062,7.0665,7.403,7.7208,7.8734,7.8921,7.8808,7.9108,7.9145,7.8101,7.4491,7.0825,6.7283,0.0,0.0,0.0,7.3048,7.9802,0.0,8.7501,8.7568,0.0,8.6743,0.0,8.6397,8.6397,8.6237,0.0,0.0,8.386,8.3024,8.3024,8.1601,8.0905,8.1273,8.0989,8.1355,8.2574,8.2574,8.2385,8.2036,8.0044,7.9722,8.0821,7.9867,8.0132,8.1273,8.1273,8.1273,8.1321,8.2229,8.2762,8.3099,8.3861,8.4313,8.4552,8.4552,8.4552,8.4552,8.4552,8.4381,8.4245,8.4485,8.4381,8.4209,8.4449,8.4552,8.4552,8.4552,8.5694,8.7194,8.8477,8.9968,9.1247,9.1755,8.6301,8.0792,8.0011,7.4133,6.8993,6.8993,6.8993,6.8993,6.8993,6.9132,6.9196,6.9211,6.951,6.9823,6.9815,6.9933,6.9971,6.9971,6.9971,6.9971,6.9971,6.9971,6.9971,6.9971,6.8376,6.6706,6.4997,6.3441,6.1694,5.972,5.9692,5.9682,5.9673,5.9673,5.9826,6.0062,6.0062,6.0062,6.8795,7.1525,7.2908,7.7873,7.8921,7.8846,7.922,7.922,7.9153,7.9273,7.515,7.1977,0.0,0.0,7.119,7.7846,7.9956,8.2459,8.734,8.7363,8.6875,0.0,0.0,0.0,0.0,0.0,0.0,8.4583,0.0,8.3024,8.3024,8.0821,8.0132,8.119,8.0185,8.0132,8.1355,8.1355,8.0821,7.9689,7.8564,7.8564,7.9599,7.9509,8.0132,8.1273,8.1273,8.1273,8.1273,8.1321,8.1957,8.2989,8.3099,8.3683,8.4552,8.4552,8.4552,8.4552,8.4552,8.3931,8.3212,8.4209,8.3931,8.3247,8.4245,8.4552,8.4552,8.4552,8.5694,8.7018,8.7475,8.8671,8.9332,8.6909,8.297,7.9042,7.6134,7.2073,6.8993,6.8993,6.8993,6.8993,6.8993,6.9132,6.9186,6.9185,6.9517,6.9817,6.9971,6.9971,6.9971,6.9971,6.9971,6.9971,6.9971,6.9971,6.9971,6.9971,6.8376,6.6706,6.4997,6.3441,6.1694,5.972,5.9667,5.9665,5.9673,5.9673,5.9826,6.0062,6.0062,6.0062,6.4757,6.9046,7.2824,7.7948,7.9108,7.907,7.9444,7.9391,7.9323,7.964,7.6461,7.3799,7.4513,7.2989,7.3131,7.7708,8.0064,8.2557,8.5961,8.622,8.5837,8.5369,8.506,0.0,0.0,0.0,0.0,8.354,8.1842,8.0736,8.0736,7.9303,7.872,7.9094,7.872,7.9061,8.0132,8.0132,7.9956,7.9509,7.8469,7.7595,7.6969,7.8018,7.872,7.9187,7.9187,7.9486,8.0219,8.0905,8.1957,8.3064,8.3755,8.4209,8.4552,8.4552,8.4552,8.4552,8.4552,8.3861,8.3173,8.4245,8.3861,8.3173,8.4245,8.4552,8.4552,8.4552,8.6407,8.8264,8.7644,8.9408,9.0377,8.6765,8.2727,7.8878,7.5845,7.1957,6.8993,6.8993,6.8993,6.8993,6.8993,6.9132,6.9262,6.9525,6.977,6.9933,6.9971,6.9971,6.9971,6.9971,6.9971,6.9971,6.9971,6.9971,6.9971,6.9971,6.9401,6.7807,6.5035,6.4314,6.2558,5.9624,5.9475,5.9448,5.956,5.957,5.9725,6.0062,6.0062,6.0062,6.0271,6.5281,7.0483,7.5559,7.7988,7.9303,7.9728,7.963,7.9484,7.9649,7.782,7.6206,7.6143,7.5798,7.6375,7.9057,8.108,8.3067,8.5221,8.5322,8.506,8.4583,8.4245,0.0,0.0,0.0,0.0,8.2914,8.0821,7.9509,7.9509,7.8564,7.7891,7.7891,7.7891,7.8311,7.8934,7.8934,7.8714,7.8175,7.7987,7.7097,7.5631,7.723,7.7891,7.7891,7.7891,7.872,8.0098,8.0905,8.2115,8.3612,8.4313,8.4552,8.4552,8.4552,8.4552,8.4552,8.4552,8.3861,8.3173,8.4245,8.3861,8.3173,8.4245,8.4552,8.4552,8.4552,8.68,8.8868,8.724,8.918,9.0095,8.4495,8.1044,7.7963,7.3981,7.0965,6.8993,6.8993,6.8993,6.9057,6.9095,6.9169,6.9332,6.9732,6.9857,6.9933,6.9971,6.9971,6.9971,6.9971,6.9971,6.9971,6.9971,6.9971,6.9971,6.9971,6.9971,6.8452,6.5073,6.4807,6.306,5.9547,5.9343,5.9336,5.9486,5.9472,5.9662,6.0062,6.0062,6.0062,5.5896,6.0461,6.5491,7.0575,7.5445,7.9158,7.9721,7.9643,7.95,7.9652,7.9484,7.9273,7.9112,7.9688,8.0729,8.232,8.2878,8.3678,8.5248,8.4933,8.4552,8.4552,8.3683,8.3467,0.0,8.3612,8.2914,8.3024,8.0821,7.9509,7.9509,7.8564,7.7891,7.7891,7.7891,7.7891,7.7891,7.7891,7.7097,7.5631,7.7097,7.6996,7.5631,7.723,7.7891,7.7891,7.7891,7.9187,8.1273,8.1273,8.2581,8.4552,8.4552,8.4552,8.4552,8.4552,8.4552,8.4552,8.4552,8.3861,8.3173,8.4245,8.3861,8.3173,8.4245,8.4552,8.4552,8.4552,8.6764,8.8651,8.6143,8.7859,8.8008,7.9729,7.779,7.6133,7.0261,6.8993,6.8993,6.8993,6.8993,6.9057,6.9207,6.9207,6.9352,6.9732,6.9781,6.9857,6.9971,6.9971,6.9971,6.9971,6.9971,6.9971,6.9971,6.9971,6.9971,6.9895,6.9895,6.8376,6.4997,6.4731,6.3005,5.9546,5.9336,5.9336,5.9486,5.9472,5.9662,6.0062,6.0062,6.0062,6.0757,6.2556,0.0,6.8993,7.1256,7.2662,7.4136,7.4243,7.5132,7.893,7.9468,7.9261,7.9137,7.8432,7.874,8.1489,8.129,8.1758,8.4482,8.4716,8.4552,8.4552,8.4313,8.4245,8.4552,8.2844,8.2036,8.2949,8.0821,7.9509,7.9509,7.8564,7.7891,7.7891,7.7891,7.7891,7.7891,7.6863,7.6081,7.5631,7.5026,7.5026,7.5631,7.6081,7.6863,7.7891,7.7891,7.9187,8.1273,8.1273,8.2581,8.4552,8.4552,8.4552,8.4552,8.4552,8.4552,8.4552,8.4552,8.3861,8.3173,8.4245,8.3861,8.3173,8.4245,8.4552,8.4552,8.4552,8.5979,8.7194,8.59,8.6979,8.6696,7.9483,7.779,7.6133,7.0261,6.8993,6.8993,6.8993,6.8993,6.9057,6.9207,6.929,6.9453,6.9739,6.9857,6.9933,6.9971,6.9971,6.9971,6.9971,6.9971,6.9971,6.9971,6.9971,6.9439,6.8224,6.8148,6.6668,6.3365,6.2936,6.1712,5.9546,5.9261,5.9261,5.9486,5.9472,5.9662,6.0062,6.0062,6.0062,5.7407,5.8027,0.0,0.0,6.4403,6.6158,6.862,6.857,6.9054,7.271,7.3319,7.3174,7.2958,7.3726,7.5089,0.0,7.8534,8.0037,8.2298,8.3161,8.3589,8.3589,8.3844,8.4251,8.4897,8.3145,8.2229,8.2914,8.1273,8.0044,7.9509,7.8968,7.8407,7.7989,7.7891,7.7891,7.7891,7.6423,7.5314,7.467,7.4453,7.4453,7.4779,7.5977,7.7097,7.7989,7.8407,7.9633,8.1273,8.1797,8.2994,8.4552,8.4552,8.4552,8.4552,8.4552,8.4552,8.4552,8.4552,8.4176,8.379,8.4381,8.414,8.3755,8.4381,8.4552,8.4552,8.4552,8.5694,8.652,8.5001,8.5313,8.4529,7.8322,7.6359,7.4617,6.9986,6.8993,6.8993,6.8993,6.8993,6.9095,6.9282,6.9336,6.9508,6.9816,6.9933,6.9971,6.9971,6.9971,6.9971,6.9971,6.9971,6.9971,6.9971,6.9971,6.9249,6.7579,6.7465,6.5984,6.2719,6.2209,6.1237,5.9523,5.9224,5.9187,5.9411,5.9472,5.9628,5.9906,6.0009,6.0062,4.9615,5.0343,5.2376,5.3377,5.6035,5.9199,0.0,0.0,6.1446,6.3472,6.403,6.4134,6.4073,6.7738,7.1091,7.2027,7.5732,7.8806,7.9904,8.1274,8.2098,8.1919,8.2748,8.3823,8.5162,8.4061,8.3286,8.3173,8.2115,8.0989,7.9956,7.9778,7.9212,7.815,7.815,7.8086,7.7891,7.6217,7.4779,7.352,7.4779,7.467,7.36,7.659,7.7891,7.7989,7.8968,7.9956,8.1156,8.2462,8.3612,8.4552,8.4552,8.4552,8.4516,8.465,8.465,8.4619,8.465,8.465,8.4552,8.4552,8.4552,8.4552,8.4552,8.4552,8.4552,8.4552,8.5483,8.5987,8.3943,8.3273,8.1808,7.6825,7.4415,7.2482,6.9654,6.8993,6.8993,6.8993,6.8993,6.9095,6.9356,6.9374,6.9546,6.993,6.9971,6.9971,6.9971,6.9971,6.9971,6.9971,6.9971,6.9895,6.9705,6.9515,6.868,6.7009,6.6895,6.5491,6.2415,6.1906,6.0996,5.9486,5.9224,5.9126,5.9299,5.9426,5.9522,5.9658,5.9934,6.0062,0.0,0.0,0.0,0.0,0.0,0.0,0.0,0.0,5.1834,5.7465,5.9706,6.0996,6.2108,6.6906,7.1222,7.2657,7.6416,7.9608,8.1114,8.1573,8.1281,8.0005,8.2311,8.3922,8.3656,8.454,8.4861,8.4278,8.3286,8.2574,8.2307,8.1438,8.0393,7.927,7.9178,7.8814,7.7989,7.5239,7.3712,7.352,7.3712,7.3712,7.36,7.659,7.7891,7.8022,7.815,7.8908,8.0044,8.215,8.3612,8.4552,8.4552,8.4552,8.465,8.5149,8.4996,8.465,8.5149,8.4996,8.4552,8.4552,8.4552,8.4552,8.4552,8.4552,8.4552,8.4552,8.4144,8.3691,8.3417,8.1887,7.9515,7.6344,7.4415,7.2482,6.9654,6.8993,6.8993,6.8993,6.8993,6.9095,6.9356,6.9374,6.9546,6.993,6.9971,6.9971,6.9971,6.9971,6.9971,6.9971,6.9971,6.9439,6.8072,6.6706,6.5225,6.363,6.3554,6.2567,6.0327,6.0079,5.9774,5.9336,5.9187,5.9126,5.9299,5.9409,5.9522,5.9658,5.9934,6.0062,0.0,0.0,0.0,0.0,0.0,0.0,0.0,0.0,0.0,0.0,0.0,5.057,0.0,0.0,6.5818,6.8001,7.3417,7.7827,7.9138,7.9961,8.0414,8.0277,8.1444,8.2288,8.2484,8.3667,8.4118,8.3441,8.3645,8.354,8.3024,8.2462,8.1355,7.9666,7.9543,7.9027,7.8022,7.4918,7.352,7.352,7.352,7.352,7.36,7.659,7.7891,7.7989,7.8469,7.9395,8.0479,8.2307,8.3612,8.4583,8.4869,8.506,8.5149,8.5813,8.5677,8.5086,8.5382,8.5086,8.4552,8.4552,8.4552,8.4552,8.4552,8.4552,8.4552,8.4552,8.3755,8.2937,8.2417,7.9816,7.6778,7.4951,7.2779,7.0763,6.9322,6.8993,6.8993,6.8993,6.8993,6.9095,6.9356,6.8771,6.8333,6.8677,6.7996,6.7465,6.7465,6.7465,6.7161,6.6364,6.6288,6.5946,6.5111,6.4238,6.3744,6.3744,6.3023,6.1732,5.9758,5.9542,5.9421,5.9299,5.9126,5.9126,5.9187,5.9373,5.9526,5.9585,5.9759,5.9927,0.0,0.0,0.0,0.0,0.0,0.0,0.0,0.0,0.0,0.0,0.0,0.0,0.0,0.0,0.0,6.1781,6.9253,7.517,7.6664,7.7943,7.9231,8.059,8.0616,8.0681,8.1276,8.2322,8.2614,8.1834,8.3196,8.3714,8.2899,8.2923,0.0,8.0057,7.9633,7.9027,7.8022,7.4918,7.36,7.3935,0.0,0.0,7.3935,7.6692,7.8086,7.8311,7.9086,8.0306,8.1682,8.2574,8.3612,8.4578,8.4648,8.4677,8.4849,8.5865,8.5892,8.5561,8.5561,8.5086,8.4552,8.4552,8.4552,8.4552,8.4552,8.4381,0.0,8.4516,8.3504,8.215,8.1438,7.7973,7.4532,7.3679,7.1173,6.8993,6.8993,6.8993,6.8993,6.8993,6.8993,6.9095,6.9356,6.7847,6.6674,6.6932,6.5794,6.4921,6.4921,6.4921,6.4428,6.3175,6.3023,6.2909,6.2605,6.2264,6.2605,6.3853,6.241,6.0662,5.8757,5.8559,5.8454,5.8327,5.8214,5.8476,5.9089,5.9336,5.9459,5.9406,5.7314,5.714,0.0,0.0,0.0,0.0,0.0,0.0,0.0,0.0,0.0,0.0,0.0,0.0,0.0,0.0,0.0,0.0,6.5731,7.3008,7.6047,7.6607,7.7304,7.8816,8.028,8.0733,7.9698,8.1059,8.1488,8.0255,8.1627,8.2417,8.2351,0.0,0.0,0.0,0.0,7.9027,7.8022,7.4918,7.4156,7.5314,7.4045,7.4124,7.542,7.713,7.8469,7.9361,7.9418,8.0736,8.2838,8.2914,8.3612,8.4364,8.2207,8.1689,8.2279,8.3843,8.4907,0.0,0.0,0.0,0.0,8.4552,8.4552,8.4552,8.4552,8.3931,8.3394,8.4313,8.228,8.0132,8.0989,7.7442,7.3617,7.3458,7.1173,6.8993,6.8993,6.8993,6.8993,6.8993,6.8993,6.9095,6.9356,6.6943,6.5033,6.5187,6.5035,0.0,6.4921,6.4921,6.4883,6.4655,0.0,0.0,6.2719,6.1125,6.0204,6.0253,5.8683,5.6924,5.5087,5.5009,5.495,5.4812,5.4775,5.6195,5.9089,5.9224,5.9346,5.9228,4.9063,4.757,0.0,0.0,0.0,0.0,0.0,0.0,0.0,0.0,0.0,0.0,0.0,0.0,0.0,0.0,0.0,0.0,6.1551,6.7716,6.9078,7.1719,7.4503,7.7058,7.8778,7.9278,7.8055,7.9422,7.9866,7.8647,7.9986,8.0878,8.0878,8.1053,8.0782,7.9965,7.8581,7.7913,7.7989,7.4165,7.3241,7.5236,7.3795,7.3741,7.4894,7.6441,7.7416,0.0,7.8428,7.9251,8.0253,8.0927,8.1669,0.0,0.0,0.0,0.0,0.0,8.3305,8.3484,8.4433,8.4045,8.3339,8.4231,8.4552,8.4552,8.4552,8.4209,8.4001,8.4449,8.2622,8.0651,8.1073,7.6635,7.199,7.199,6.8975,6.6066,6.6066,6.6066,6.6066,6.6066,0.0,0.0,6.653,6.4741,6.3327,6.3554,6.2719,6.2112,0.0,6.2112,6.1732,6.0745,6.0631,6.0327,5.9606,5.8847,0.0,0.0,0.0,5.8161,5.7392,0.0,0.0,0.0,0.0,0.0,0.0,0.0,0.0,0.0,4.6067,4.5227,0.0,0.0,0.0,0.0,0.0,0.0,0.0,0.0,0.0,0.0,0.0,0.0,0.0,0.0,0.0,0.0,0.0,6.0875,6.0875,6.585,7.0392,7.2793,7.4869,7.5891,7.5308,7.6314,7.7065,7.7372,7.8699,7.9475,7.9475,7.943,7.9167,7.8777,7.7429,7.7022,7.7522,7.393,7.3276,7.5467,7.3977,7.3894,7.498,7.6073,7.6765,7.704,7.7788,7.8429,7.8974,7.9835,8.0527,8.1018,8.073,8.0995,8.1625,8.2071,8.1865,8.1599,8.2828,8.2612,8.2089,8.3441,8.391,8.3981,8.4409,8.4381,8.414,8.4449,8.2994,8.1045,8.0214,7.5728,7.1148,6.9935,6.6734,6.3935,6.3935,6.3935,6.3935,6.3935,6.3387,6.2965,6.3153,6.2318,6.1694,6.1884,0.0,0.0,6.0062,6.0062,5.9606,5.8353,5.8163,5.8087,5.7974,5.7495,5.7812,0.0,5.897,5.8887,5.9373,5.8439,5.7055,5.5261,5.2457,4.9652,0.0,0.0,0.0,0.0,0.0,0.0,0.0,0.0,0.0,0.0,0.0,0.0,0.0,0.0,0.0,0.0,0.0,0.0,0.0,0.0,0.0,0.0,0.0,0.0,5.2679,5.9424,6.4436,6.4691,6.7546,6.9885,7.0869,7.101,7.2695,7.6673,7.7872,7.8355,7.8355,7.8255,7.8183,7.8182,7.7151,7.6564,7.6667,7.4963,7.493,7.6484,7.493,7.5014,7.6495,7.6609,7.7117,7.8112,7.8112,7.9172,8.0778,8.0814,8.1144,8.1389,7.9006,7.8388,7.904,8.0691,8.0877,8.0377,8.0813,8.0942,8.1025,8.199,8.2305,8.259,8.4088,8.3861,8.3247,8.4313,8.2994,8.0575,7.7508,7.467,7.1575,6.743,6.5152,6.3935,6.3935,6.3935,6.3935,6.3935,6.1617,5.9665,5.982,5.9986,6.0138,6.0138,6.01,0.0,6.0062,6.0062,6.0062,5.9986,5.9758,5.9606,5.9606,5.7858,5.751,5.9187,5.7616,5.7392,5.9014,5.6046,5.3578,5.1896,5.0176,4.8456,4.6866,0.0,0.0,0.0,0.0,0.0,0.0,0.0,0.0,0.0,0.0,0.0,0.0,0.0,0.0,0.0,0.0,0.0,0.0,0.0,0.0,0.0,0.0,0.0,0.0,0.0,6.1491,6.266,6.6603,6.8349,6.6209,6.6005,6.6376,6.7349,6.9641,7.1478,7.2612,7.4615,7.6383,7.7839,7.6525,7.6259,7.7076,7.4666,7.4358,7.6037,7.4566,7.4508,7.5678,7.5678,7.5876,7.6233,7.6574,7.7063,7.7684,7.8097,7.8857,7.9618,7.8788,7.8542,7.8778,7.9377,7.9433,7.9201,7.9002,7.9312,7.9939,8.0528,8.0699,8.0263,7.7923,7.6944,7.642,7.4906,7.4717,7.4529,7.277,7.0933,6.8659,6.5388,6.2643,6.0719,6.0719,6.0719,6.0757,6.0832,5.9289,5.7602,5.664,5.8467,5.9302,5.7062,5.8619,6.0062,6.0062,6.0062,6.0024,5.9834,5.972,5.9612,5.944,5.88,5.8663,5.9149,5.8588,5.8514,5.9052,5.8065,5.6681,5.4962,5.3354,4.9054,4.195,0.0,0.0,0.0,0.0,0.0,0.0,0.0,0.0,0.0,0.0,0.0,0.0,0.0,0.0,0.0,0.0,0.0,0.0,0.0,0.0,0.0,0.0,0.0,0.0,0.0,0.0,5.8547,6.1747,0.0,0.0,5.9559,5.9849,6.0505,6.3361,6.5499,6.6544,6.9961,7.2497,7.3892,7.4151,7.4887,7.6306,7.4468,7.4456,7.6204,7.5034,7.486,7.5507,7.5288,7.5288,7.5528,7.5862,7.6309,7.6599,7.5472,7.5167,7.5205,7.4062,7.3585,7.3585,7.3585,7.3585,7.3554,7.3195,7.3381,7.3739,7.3992,7.3861,7.3201,7.1005,7.0294,6.9955,6.8178,6.8832,6.9464,6.7365,6.6008,6.4384,6.1132,5.9251,5.8214,5.8252,5.8214,5.8102,5.7735,5.6976,5.5842,5.4252,5.5847,5.6835,5.524,5.6873,5.8657,5.9758,5.991,5.9832,5.962,5.9569,5.9457,5.9328,5.9261,5.9187,5.9089,5.9089,5.9089,5.9089,5.8514,5.6868,5.3989,5.1784,4.6699,0.0,0.0,0.0,0.0,0.0,0.0,0.0,0.0,0.0,0.0,0.0,0.0,0.0,0.0,0.0,0.0,0.0,0.0,0.0,0.0,0.0,0.0,0.0,0.0,0.0,0.0,0.0,5.2361,5.333,0.0,0.0,0.0,0.0,5.5755,5.8509,6.016,6.0288,6.4393,6.6744,6.6787,7.0136,7.2678,7.4144,7.429,7.5178,7.6718,7.6104,7.5836,7.5909,7.5456,7.5512,7.6054,7.6069,7.6765,7.7467,7.31,7.0309,6.8519,6.5329,6.4089,6.4089,6.4163,6.4201,6.4201,6.4275,6.3992,6.3531,6.3347,6.2683,6.2223,6.3585,6.373,0.0,0.0,6.4837,6.5134,6.1243,6.0274,5.9292,5.5248,5.5373,5.6495,5.6607,5.6554,5.6093,0.0,5.4499,5.3873,5.2165,0.0,5.262,5.4139,5.4595,5.5885,5.9037,5.9492,5.9502,5.9493,5.9384,5.9299,5.9299,5.9187,5.9089,5.9089,5.9089,5.9089,5.9089,5.7392,5.4102,4.9147,4.5839,0.0,0.0,0.0,0.0,0.0,0.0,0.0,0.0,0.0,0.0,0.0,0.0,0.0,0.0,0.0,0.0,0.0,0.0,0.0,0.0,0.0,0.0,0.0,0.0,0.0,0.0,4.4988,4.9376,4.86,4.9957,4.89,0.0,0.0,0.0,0.0,0.0,0.0,5.2383,5.7066,6.0676,6.3086,6.7587,6.9879,6.9831,7.2133,7.3307,7.3367,7.319,7.3729,7.4871,7.472,7.5424,7.6792,7.7232,7.6901,7.5651,7.0197,6.6253,6.3501,6.1507,6.0718,6.0887,6.2034,6.2447,6.2635,6.3914,6.3972,6.314,6.05,0.0,5.811,5.4765,0.0,0.0,0.0,0.0,5.4748,5.4281,0.0,5.8132,5.5186,5.4833,5.5149,5.5174,5.5159,5.4346,0.0,5.0105,4.7913,4.3926,0.0,0.0,0.0,0.0,5.2317,5.562,5.7066,5.8193,5.9232,5.9313,5.9261,5.9126,5.9089,5.9089,5.9089,5.9089,5.9089,5.9089,5.6345,5.2494,0.0,0.0,0.0,0.0,0.0,0.0,0.0,0.0,0.0,0.0,0.0,0.0,0.0,0.0,0.0,0.0,0.0,0.0,0.0,0.0,0.0,0.0,0.0,0.0,0.0,0.0,0.0,0.0,4.1407,4.581,4.5099,4.5264,4.3129,0.0,0.0,0.0,0.0,0.0,0.0,0.0,0.0,0.0,5.5277,5.9403,6.2152,6.3251,6.5773,6.7215,6.7634,6.9501,7.0887,7.1767,7.2934,7.409,7.5227,7.5576,7.2945,6.8033,6.2594,5.84,5.5135,0.0,0.0,0.0,0.0,0.0,5.24,5.3384,0.0,0.0,0.0,0.0,0.0,0.0,0.0,0.0,0.0,0.0,0.0,0.0,0.0,0.0,5.2742,5.2973,5.3532,5.3602,5.0189,4.6601,0.0,4.3091,4.0775,3.732,0.0,0.0,0.0,0.0,0.0,5.4121,5.6047,5.7548,5.9037,5.9224,5.9187,5.9089,5.9089,5.9089,5.9089,5.9089,5.8476,5.7055,5.313,4.8325,0.0,0.0,0.0,0.0,0.0,0.0,0.0,0.0,0.0,0.0,0.0,0.0,0.0,0.0,0.0,0.0,0.0,0.0,0.0,0.0,0.0,0.0,0.0,0.0,0.0,0.0,0.0,0.0,0.0,4.2289,4.1591,0.0,0.0,0.0,0.0,0.0,0.0,0.0,0.0,0.0,0.0,0.0,0.0,0.0,0.0,5.4952,5.7099,5.883,6.0222,6.4187,6.6309,6.6823,6.9094,7.0616,7.1389,7.027,0.0,5.8162,5.33,0.0,0.0,0.0,0.0,0.0,0.0,0.0,0.0,0.0,0.0,0.0,0.0,0.0,0.0,0.0,0.0,0.0,0.0,0.0,0.0,0.0,0.0,4.8606,4.8644,4.9905,5.0931,0.0,4.3243,3.7054,3.6599,0.0,0.0,0.0,0.0,0.0,0.0,0.0,0.0,5.2742,5.5223,5.7018,5.8588,5.8939,5.9089,5.9089,5.8865,5.8775,5.8775,5.8117,5.642,5.3354,4.8923,0.0,0.0,0.0,0.0,0.0,0.0,0.0,0.0,0.0,0.0,0.0,0.0,0.0,0.0,0.0,0.0,0.0,0.0,0.0,0.0,0.0,0.0,0.0,0.0,0.0,0.0,0.0,0.0,0.0,0.0,0.0,0.0,0.0,0.0,0.0,0.0,0.0,0.0,0.0,0.0,0.0,0.0,0.0,0.0,0.0,0.0,0.0,0.0,0.0,0.0,0.0,5.6226,5.8943,5.9393,6.1105,6.3383,5.6579,5.3578,5.3153,0.0,0.0,0.0,0.0,0.0,0.0,0.0,0.0,0.0,0.0,0.0,0.0,0.0,0.0,0.0,0.0,0.0,0.0,0.0,0.0,0.0,0.0,0.0,0.0,0.0,4.4982,4.4641,0.0,0.0,0.0,0.0,0.0,0.0,0.0,0.0,0.0,0.0,0.0,0.0,4.7353,5.1988,5.5261,5.6831,5.8252,5.9089,5.9089,5.7803,5.7018,5.7018,5.3167,5.0064,0.0,0.0,0.0,0.0,0.0,0.0,0.0,0.0,0.0,0.0,0.0,0.0,0.0,0.0,0.0,0.0,0.0,0.0,0.0,0.0,0.0,0.0,0.0,0.0,0.0,0.0,0.0,0.0,0.0,0.0,0.0,0.0,0.0,0.0,0.0,0.0,0.0,0.0,0.0,0.0,0.0,0.0,0.0,0.0,0.0,0.0,0.0,0.0,0.0,0.0,0.0,0.0,0.0,0.0,0.0,0.0,0.0,0.0,0.0,4.2485,0.0,0.0,0.0,0.0,0.0,0.0,0.0,0.0,0.0,0.0,0.0,0.0,0.0,0.0,0.0,0.0,0.0,0.0,0.0,0.0,0.0,0.0,0.0,0.0,0.0,0.0,0.0,0.0,0.0,0.0,0.0,0.0,0.0,0.0,0.0,0.0,0.0,0.0,0.0,0.0,4.599,5.0398,5.3877,5.6308,5.728,5.7766,5.7766,5.7018,5.5485,5.2905,4.9727,0.0,0.0,0.0,0.0,0.0,0.0,0.0,0.0,0.0,0.0,0.0,0.0,0.0,0.0,0.0,0.0,0.0,0.0,0.0,0.0,0.0,0.0,0.0,0.0,0.0,0.0,0.0,0.0,0.0,0.0,0.0,0.0,0.0,0.0,0.0,0.0,0.0,0.0,0.0,0.0,0.0,0.0,0.0,0.0,0.0,0.0,0.0,0.0,0.0,0.0,0.0,0.0,0.0,0.0,0.0,0.0,0.0,0.0,0.0,3.9081,0.0,0.0,0.0,0.0,0.0,0.0,0.0,0.0,0.0,0.0,0.0,0.0,0.0,0.0,0.0,0.0,0.0,0.0,0.0,0.0,0.0,0.0,0.0,0.0,0.0,0.0,0.0,0.0,0.0,0.0,0.0,0.0,0.0,0.0,0.0,0.0,0.0,0.0,0.0,0.0,0.0,4.5468,4.9484,5.2681,5.5261,5.5822,5.6046,5.6046,5.5709,5.3578,4.8979,0.0,0.0,0.0,0.0,0.0,0.0,0.0,0.0,0.0,0.0,0.0,0.0,0.0,0.0,0.0,0.0,0.0,0.0,0.0,0.0,0.0,0.0,0.0,0.0,0.0,0.0,0.0,0.0,0.0,0.0,0.0,0.0,0.0,0.0,0.0,0.0,0.0,0.0,0.0,0.0,0.0,0.0,0.0,0.0,0.0,0.0,0.0,0.0,0.0,0.0,0.0,0.0,0.0,0.0,0.0,0.0,0.0,0.0,0.0,0.0,0.0,0.0,0.0,0.0,0.0,0.0,0.0,0.0,0.0,0.0,0.0,0.0,0.0,0.0,0.0,0.0,0.0,0.0,0.0,0.0,0.0,0.0,0.0,0.0,0.0,0.0,0.0,0.0,0.0,0.0,0.0,0.0,0.0,0.0,0.0,0.0,0.0,0.0,0.0,0.0,0.0,0.0,4.3711,4.8718,5.1821,5.212,5.3541,5.4438,5.4438,5.3055,5.0699,4.7278,0.0,0.0,0.0,0.0,0.0,0.0,0.0,0.0,0.0,0.0,0.0,0.0,0.0,0.0,0.0,0.0,0.0,0.0,0.0,0.0,0.0,0.0,0.0,0.0,0.0,0.0,0.0,0.0,0.0,0.0,0.0,0.0,0.0,0.0,0.0,0.0,0.0,0.0,0.0,0.0,0.0,0.0,0.0,0.0,0.0,0.0,0.0,0.0,0.0,0.0,0.0,0.0,0.0,0.0,0.0,0.0,0.0,0.0,0.0,0.0,0.0,0.0,0.0,0.0,0.0,0.0,0.0,0.0,0.0,0.0,0.0,0.0,0.0,0.0,0.0,0.0,0.0,0.0,0.0,0.0,0.0,0.0,0.0,0.0,0.0,0.0,0.0,0.0,0.0,0.0,0.0,0.0,0.0,0.0,0.0,0.0,0.0,0.0,0.0,0.0,0.0,0.0,4.3595,4.7746,5.0587,5.1597,5.2307,5.2718,5.2718,5.2083,4.9054,4.281,0.0,0.0,0.0,0.0,0.0,0.0,0.0,0.0,0.0,0.0,0.0,0.0,0.0,0.0,0.0,0.0,0.0,0.0,0.0,0.0,0.0,0.0,0.0,0.0,0.0,0.0,0.0,0.0,0.0,0.0,0.0,0.0,0.0,0.0,0.0,0.0,0.0,0.0,0.0,0.0,0.0,0.0,0.0,0.0,0.0,0.0,0.0,0.0,0.0,0.0,0.0,0.0,0.0,0.0,0.0,0.0,0.0,0.0,0.0,0.0,0.0,0.0,0.0,0.0,0.0,0.0,0.0,0.0,0.0,0.0,0.0,0.0,0.0,0.0,0.0,0.0,0.0,0.0,0.0,0.0,0.0,0.0,0.0,0.0,0.0,0.0,0.0,0.0,0.0,0.0,0.0,0.0,0.0,0.0,0.0,0.0,0.0,0.0,0.0,0.0,0.0,0.0,0.0,4.7147,4.9633,5.0849,5.0961,5.0961,5.0961,5.0961,4.7671,3.9969,0.0,0.0,0.0,0.0,0.0,0.0,0.0,0.0,0.0,0.0,0.0,0.0,0.0,0.0,0.0,0.0,0.0,0.0,0.0,0.0,0.0,0.0,0.0,0.0,0.0,0.0,0.0,0.0,0.0,0.0,0.0,0.0,0.0,0.0,0.0,0.0,0.0,0.0,0.0,0.0,0.0,0.0,0.0,0.0,0.0,0.0,0.0,0.0,0.0,0.0,0.0,0.0,0.0,0.0,0.0,0.0,0.0,0.0,0.0,0.0,0.0,0.0,0.0,0.0,0.0,0.0,0.0,0.0,0.0,0.0,0.0,0.0,0.0,0.0,0.0,0.0,0.0,0.0,0.0,0.0,0.0,0.0,0.0,0.0,0.0,0.0,0.0,0.0,0.0,0.0,0.0,0.0,0.0,0.0,0.0,0.0,0.0,0.0,0.0,0.0,0.0,0.0,4.367,4.7147,4.9185,4.9185,4.9185,4.9185,4.9185,4.9185,4.6419,0.0,0.0,0.0,0.0,0.0,0.0,0.0,0.0,0.0,0.0,0.0,0.0,0.0,0.0,0.0,0.0,0.0,0.0,0.0,0.0,0.0,0.0,0.0,0.0,0.0,0.0,0.0,0.0,0.0,0.0,0.0,0.0,0.0,0.0,0.0,0.0,0.0,0.0,0.0,0.0,0.0,0.0,0.0,0.0,0.0,0.0,0.0,0.0,0.0,0.0,0.0,0.0,0.0,0.0,0.0,0.0,0.0,0.0,0.0,0.0,0.0,0.0,0.0,0.0,0.0,0.0,0.0,0.0,0.0,0.0,0.0,0.0,0.0,0.0,0.0,0.0,0.0,0.0,0.0,0.0,0.0,0.0,0.0,0.0,0.0,0.0,0.0,0.0,0.0,0.0,0.0,0.0,0.0,0.0,0.0,0.0,0.0,0.0,0.0,0.0,0.0,0.0,0.0,4.367,4.6213,4.8007,0.0,4.9185,4.9185,4.9185,4.9185,4.683,4.1427,0.0,0.0,0.0,0.0,0.0,0.0,0.0,0.0,0.0,0.0,0.0,0.0,0.0,0.0,0.0,0.0,0.0,0.0,0.0,0.0,0.0,0.0,0.0,0.0,0.0,0.0,0.0,0.0,0.0,0.0,0.0,0.0,0.0,0.0,0.0,0.0,0.0,0.0,0.0,0.0,0.0,0.0,0.0,0.0,0.0,0.0,0.0,0.0,0.0,0.0,0.0,0.0,0.0,0.0,0.0,0.0,0.0,0.0,0.0,0.0,0.0,0.0,0.0,0.0,0.0,0.0,0.0,0.0,0.0,0.0,0.0,0.0,0.0,0.0,0.0,0.0,0.0,0.0,0.0,0.0,0.0,0.0,0.0,0.0,0.0,0.0,0.0,0.0,0.0,0.0,0.0,0.0,0.0,0.0,0.0,0.0,0.0,0.0,0.0,0.0,0.0,0.0,0.0,4.6325,4.8082,0.0,4.9185,4.9185,4.9185,4.9185,4.7054,4.21,0.0,0.0,0.0,0.0,0.0,0.0,0.0,0.0,0.0,0.0,0.0,0.0,0.0,0.0,0.0,0.0,0.0,0.0,0.0,0.0,0.0,0.0,0.0,0.0,0.0,0.0,0.0,0.0,0.0,0.0,0.0,0.0,0.0,0.0,0.0,0.0,0.0,0.0,0.0,0.0,0.0,0.0,0.0,0.0,0.0,0.0,0.0,0.0,0.0,0.0,0.0,0.0,0.0,0.0,0.0,0.0,0.0,0.0,0.0,0.0,0.0,0.0,0.0,0.0,0.0,0.0,0.0,0.0,0.0,0.0,0.0,0.0,0.0,0.0,0.0,0.0,0.0,0.0,0.0,0.0,0.0,0.0,0.0,0.0,0.0,0.0,0.0,0.0,0.0,0.0,0.0,0.0,0.0,0.0,0.0,0.0,0.0,0.0,0.0,0.0,0.0,0.0,0.0,4.7147,4.9073,4.9147,4.9185,4.9185,4.9185,4.9185,4.7129,4.2287,3.7202,0.0,0.0,0.0,0.0,0.0,0.0,0.0,0.0,0.0,0.0,0.0,0.0,0.0,0.0,0.0,0.0,0.0,0.0,0.0,0.0,0.0,0.0,0.0,0.0,0.0,0.0,0.0,0.0,0.0,0.0,0.0,0.0,0.0,0.0,0.0,0.0,0.0,0.0,0.0,0.0,0.0,0.0,0.0,0.0,0.0,0.0,0.0,0.0,0.0,0.0,0.0,0.0,0.0,0.0,0.0,0.0,0.0,0.0,0.0,0.0,0.0,0.0,0.0,0.0,0.0,0.0,0.0,0.0,0.0,0.0,0.0,0.0,0.0,0.0,0.0,0.0,0.0,0.0,0.0,0.0,0.0,0.0,0.0,0.0,0.0,0.0,0.0,0.0,0.0,0.0,0.0,0.0,0.0,0.0,0.0,0.0,0.0,0.0,0.0,0.0,0.0,0.0,4.6941,4.7858,4.9035,4.9185,4.9185,4.9185,4.9185,4.7633,4.3932,3.7875,0.0,0.0,0.0,0.0,0.0,0.0,0.0,0.0,0.0,0.0,0.0,0.0,0.0,0.0,0.0,0.0,0.0,0.0,0.0,0.0,0.0,0.0,0.0,0.0,0.0,0.0,0.0,0.0,0.0,0.0,0.0,0.0,0.0,0.0,0.0,0.0,0.0,0.0,0.0,0.0,0.0,0.0,0.0,0.0,0.0,0.0,0.0,0.0,0.0,0.0,0.0,0.0,0.0,0.0,0.0,0.0,0.0,0.0,0.0,0.0,0.0,0.0,0.0,0.0,0.0,0.0,0.0,0.0,0.0,0.0,0.0,0.0,0.0,0.0,0.0,0.0,0.0,0.0,0.0,0.0,0.0,0.0,0.0,0.0,0.0,0.0,0.0,0.0,0.0,0.0,0.0,0.0,0.0,0.0,0.0,0.0,0.0,0.0,0.0,0.0,0.0,0.0,4.4081,4.5727,4.8848,4.9185,4.9185,4.9185,4.9185,4.7783,4.453,3.881,0.0,0.0,0.0,0.0,0.0,0.0,0.0,0.0,0.0,0.0,0.0,0.0,0.0,0.0,0.0,0.0,0.0,0.0,0.0,0.0,0.0,0.0,0.0,0.0,0.0,0.0,0.0,0.0,0.0,0.0,0.0,0.0,0.0,0.0,0.0,0.0,0.0,0.0,0.0,0.0,0.0,0.0,0.0,0.0,0.0,0.0,0.0,0.0,0.0,0.0,0.0,0.0,0.0,0.0,0.0,0.0,0.0,0.0,0.0,0.0,0.0,0.0,0.0,0.0,0.0,0.0,0.0,0.0,0.0,0.0,0.0,0.0,0.0,0.0,0.0,0.0,0.0,0.0,0.0,0.0,0.0,0.0,0.0,0.0,0.0,0.0,0.0,0.0,0.0,0.0,0.0,0.0,0.0,0.0,0.0,0.0,0.0,0.0,0.0,0.0,0.0,0.0,0.0,4.3969,4.8661,4.9185,4.9185,4.9185,4.9185,4.7783,4.453,0.0,0.0,0.0,0.0,0.0,0.0,0.0,0.0,0.0,0.0,0.0,0.0,0.0,0.0,0.0,0.0,0.0,0.0,0.0,0.0,0.0,0.0,0.0,0.0,0.0,0.0,0.0,0.0,0.0,0.0,0.0,0.0,0.0,0.0,0.0,0.0,0.0,0.0,0.0,0.0,0.0,0.0,0.0,0.0,0.0,0.0,0.0,0.0,0.0,0.0,0.0,0.0,0.0,0.0,0.0,0.0,0.0,0.0,0.0,0.0,0.0,0.0,0.0,0.0,0.0,0.0,0.0,0.0,0.0,0.0,0.0,0.0,0.0,0.0,0.0,0.0,0.0,0.0,0.0,0.0,0.0,0.0,0.0,0.0,0.0,0.0,0.0,0.0,0.0,0.0,0.0,0.0,0.0,0.0,0.0,0.0,0.0,0.0,0.0,0.0,0.0,0.0,0.0,0.0,0.0,0.0,4.9185,4.9185,4.9185,4.9185,4.7783,4.453,0.0,0.0,0.0,0.0,0.0,0.0,0.0,0.0,0.0,0.0,0.0,0.0,0.0,0.0]}],[{"header":{"parameterUnit":"kt","parameterCategory":2,"dx":1,"dy":1,"la1":29.285339999999998,"la2":30.599998999999997,"lo1":-89.70041500000002,"lo2":-87.6738589999976,"nx":112,"ny":82,"refTime":"2022-09-30T18:00:00:Z","depth":0,"parameterNumber":2,"parameterNumberName":"V-component_of_WINDS"},"data":[4.2804,4.1801,0.0,3.1666,2.9845,0.0,2.2513,0.0,0.0,0.0,0.0,0.0,0.0,0.0,1.6112,1.5642,1.4085,1.2434,0.0,0.0,0.0,0.0,0.0,0.0,0.0,0.0,0.0,0.0,0.0,0.0,0.0,0.0,4.7989,4.9146,5.002,4.8868,4.5463,4.6019,4.3546,3.8252,3.866,3.7929,3.6241,3.6241,3.6358,3.6566,3.6929,3.7098,3.7124,3.7501,3.7644,3.7644,3.7644,3.7644,3.7644,3.7644,3.7644,3.7644,3.7644,3.7644,3.7644,3.7644,3.7644,3.7682,3.789,3.7942,3.7942,3.7942,3.8085,3.8202,3.7994,3.8098,3.8332,3.8695,3.8786,3.8734,3.8527,3.8488,3.8267,3.7488,3.7033,3.6787,3.6787,3.6488,3.6306,3.6462,3.6176,3.6007,3.6215,3.6241,3.6319,3.6527,3.353,2.9334,2.4194,1.8469,1.5077,1.5077,1.5077,1.5031,1.4926,1.4919,1.4873,1.4774,1.4774,1.4774,1.4774,1.4774,1.4774,1.4774,1.4774,1.4563,0.0,0.0,3.6976,2.8409,0.0,0.0,0.0,0.0,0.0,0.0,0.0,0.0,0.0,1.532,1.4599,1.3535,1.3098,0.0,0.0,0.0,0.0,0.0,0.0,0.0,0.0,0.0,0.0,0.0,0.0,0.0,0.0,4.702,4.7856,4.871,4.9583,4.8236,4.4857,4.5173,4.3024,3.8806,3.8221,3.7707,3.7095,3.6058,3.5761,3.5968,3.6332,3.6501,3.6527,3.6916,3.7189,3.7358,3.7358,3.7475,3.7605,3.7215,3.7189,3.7358,3.7358,3.7488,3.7644,3.7644,3.7644,3.7644,3.7644,3.7644,3.7644,3.7644,3.7644,3.7644,3.7644,3.7644,3.7734,3.8111,3.8202,3.8202,3.8202,3.8202,3.8033,3.7462,3.7046,3.6787,3.6787,3.6319,3.6072,3.6436,3.602,3.5722,3.5917,3.5774,3.5353,3.4284,3.1133,2.7442,2.3937,1.8117,1.4774,1.4774,1.4774,1.4728,1.4623,1.4623,1.4576,1.4471,1.4471,1.4471,1.4471,1.4471,1.4471,1.4471,1.4471,1.426,0.0,0.0,0.0,2.5941,0.0,0.0,0.0,0.0,1.9025,0.0,0.0,0.0,0.0,0.0,1.4316,1.2718,0.0,0.0,0.0,0.0,0.0,0.0,0.0,0.0,0.0,0.0,0.0,0.0,0.0,0.0,4.554,4.7001,4.7837,4.8653,4.9564,4.9831,4.9641,4.9641,4.8426,4.5649,4.3068,4.086,3.8891,3.6264,3.5358,3.5891,3.5904,3.5917,3.5917,3.5943,3.6267,3.6761,3.6761,3.7098,3.7462,3.6345,3.628,3.6761,3.6761,3.7124,3.7592,3.7618,3.7618,3.7631,3.7644,3.7644,3.7644,3.7644,3.7644,3.7644,3.7644,3.7644,3.7644,3.7644,3.7644,3.7644,3.7644,3.7644,3.7475,3.6916,3.68,3.6787,3.6787,3.6332,3.5968,3.5968,3.5475,3.5306,3.5878,3.5449,3.4002,3.1281,2.7431,2.3917,2.0415,1.691,1.4748,1.4748,1.4748,1.4616,1.4326,1.4313,1.4174,1.3884,1.3878,1.3878,1.3878,1.3878,1.3878,1.3878,1.3878,1.3878,3.0352,0.0,0.0,0.0,0.0,0.0,0.0,0.0,0.0,0.0,0.0,0.0,0.0,0.0,0.0,0.0,0.0,0.0,0.0,0.0,0.0,0.0,0.0,0.0,0.0,0.0,0.0,0.0,0.0,0.0,4.4913,4.6679,4.7571,4.7799,4.9241,4.8236,4.4256,4.4273,4.2086,3.7549,3.6756,3.6055,3.5413,3.4822,3.4514,3.4683,3.5124,3.5319,3.5345,3.5774,3.6033,3.6176,3.6176,3.6267,3.6371,3.6059,3.6046,3.6176,3.6176,3.628,3.6475,3.689,3.702,3.7098,3.7514,3.7644,3.7644,3.7644,3.7644,3.7644,3.7644,3.7644,3.7644,3.7644,3.7644,3.7644,3.7644,3.7644,3.7592,3.7436,3.7072,3.6787,3.6787,3.6657,3.6553,3.6553,3.6072,3.5761,3.5917,3.5813,3.4294,3.0614,2.7134,2.3534,1.9647,1.6043,1.4121,1.4121,1.4121,1.4089,1.4009,1.4003,1.3963,1.3878,1.3878,1.3878,1.3878,1.3878,1.3878,1.3878,1.3878,1.3878,0.0,0.0,0.0,0.0,0.0,0.0,1.8991,0.0,1.7017,0.0,0.0,0.0,0.0,0.0,0.0,0.0,0.0,0.0,0.0,0.0,0.0,0.0,0.0,0.0,0.0,0.0,0.0,0.0,0.0,3.8176,4.4498,4.6242,4.6944,4.6944,4.8254,4.7396,4.4469,4.4798,4.2802,3.8525,3.7807,3.6958,3.5769,3.4777,3.4177,3.4203,3.454,3.4696,3.4722,3.506,3.5358,3.5553,3.5306,3.5202,3.5202,3.5202,3.5358,3.5579,3.5579,3.5735,3.5994,3.6319,3.6436,3.6488,3.6825,3.7098,3.7293,3.7293,3.7462,3.7644,3.7644,3.7644,3.7644,3.7644,3.7644,3.7644,3.7644,3.7644,3.7644,3.7644,3.7371,3.715,3.715,3.715,3.715,3.715,3.6657,3.6293,3.6293,3.4572,3.195,2.8127,2.4613,2.0922,1.7094,1.4931,1.3878,1.3878,1.3878,1.3878,1.3878,1.3878,1.3878,1.3878,1.3878,1.3878,1.3878,1.3878,1.3818,1.3706,1.3581,1.3522,0.0,0.0,0.0,0.0,2.4638,0.0,0.0,0.0,0.0,0.0,0.0,0.0,0.0,0.0,0.0,0.0,0.0,0.0,0.0,0.0,0.0,0.0,0.0,0.0,0.0,0.0,3.8774,4.4422,3.9693,3.8867,4.4535,4.5787,4.6242,4.6242,4.6843,4.7098,4.6899,4.7448,4.6471,4.4175,4.2316,4.0319,3.8237,3.5471,3.4316,3.4573,3.4381,3.4177,3.4177,3.4177,3.4501,3.493,3.4384,3.4177,3.4177,3.4177,3.4514,3.4969,3.4969,3.5319,3.5748,3.5748,3.5787,3.5839,3.5839,3.6241,3.6683,3.6683,3.7059,3.7462,3.7462,3.7501,3.7553,3.7553,3.7592,3.7644,3.7644,3.7644,3.7644,3.7644,3.7644,3.7605,3.7475,3.7462,3.7462,3.7462,3.702,3.6424,3.6063,3.2559,2.8661,2.4756,2.1198,1.7746,1.4103,1.3878,1.3878,1.3878,1.3878,1.3878,1.3878,1.3878,1.3878,1.3878,1.3878,1.3878,1.3878,1.3851,1.3693,1.3409,1.3146,1.3027,0.0,0.0,0.0,0.0,0.0,2.2012,0.0,0.0,0.0,0.0,0.0,0.0,0.0,0.0,0.0,0.0,0.0,0.0,0.0,0.0,0.0,0.0,0.0,0.0,0.0,4.3212,4.359,4.4725,4.376,4.3609,4.4913,4.5787,4.6242,4.6242,4.5196,4.4488,4.4323,4.257,4.1317,4.0568,3.825,3.8214,4.0059,3.5631,3.4932,3.716,3.5172,3.4177,3.4177,3.4177,3.4241,3.4332,3.4228,3.4177,3.4177,3.4177,3.4254,3.4345,3.4345,3.4423,3.4514,3.4514,3.4852,3.5241,3.5241,3.5644,3.6111,3.6111,3.6189,3.6267,3.6267,3.6605,3.6955,3.6955,3.7306,3.7644,3.7644,3.7644,3.7644,3.7644,3.7644,3.7358,3.6436,3.6267,3.6267,3.6267,3.6176,3.5104,3.2459,3.1353,2.8172,2.1511,2.0199,1.8012,1.4116,1.3878,1.3878,1.3878,1.3878,1.3878,1.3878,1.3878,1.3878,1.3878,1.3878,1.3878,1.3878,1.3653,1.3396,1.3113,1.3053,1.3027,0.0,0.0,0.0,2.1427,0.0,0.0,0.0,0.0,0.0,0.0,0.0,0.0,0.0,0.0,0.0,0.0,0.0,0.0,0.0,0.0,0.0,0.0,0.0,0.0,0.0,4.497,4.497,4.497,4.497,4.497,4.497,4.5388,4.5616,4.5616,4.4755,4.4411,4.4234,4.3524,4.1855,3.9085,3.8327,3.7542,3.6506,3.4044,3.3825,3.5281,3.4222,3.3761,3.3774,3.406,3.4008,3.3787,3.406,3.4177,3.4177,3.4177,3.4177,3.4177,3.4177,3.4177,3.4177,3.4177,3.4384,3.4631,3.4631,3.4826,3.5124,3.5423,3.5722,3.5943,3.5943,3.615,3.6358,3.6358,3.6579,3.68,3.68,3.68,3.68,3.68,3.68,3.6605,3.6046,3.5943,3.5943,3.5943,3.5943,3.476,3.102,2.8952,2.5591,1.995,1.7688,1.5621,1.3655,1.3449,1.3449,1.3449,1.3449,1.3449,1.3449,1.3449,1.3449,1.3449,1.3449,1.3449,1.3449,1.3166,1.2948,1.2796,1.2658,1.2599,2.2891,2.2671,2.2744,0.0,0.0,0.0,1.9616,1.9415,0.0,0.0,0.0,0.0,0.0,0.0,0.0,0.0,0.0,0.0,0.0,0.0,0.0,0.0,0.0,0.0,0.0,4.497,4.497,4.497,4.497,4.497,4.497,4.497,4.497,4.497,4.4441,4.4441,4.497,4.5116,4.3433,3.9816,3.9661,3.7798,3.4372,3.3439,3.3133,3.3253,3.3732,3.3759,3.3216,3.3774,3.3683,3.3229,3.3787,3.4021,3.4021,3.4138,3.4177,3.4177,3.4177,3.4177,3.4177,3.4177,3.4177,3.4177,3.4177,3.4177,3.428,3.4761,3.5241,3.5592,3.5592,3.5683,3.5774,3.5774,3.5865,3.5943,3.5943,3.5943,3.5878,3.5644,3.5592,3.5592,3.5592,3.5592,3.5592,3.5592,3.5592,3.4028,2.9659,2.6232,2.2715,1.8328,1.4922,1.3027,1.3027,1.3027,1.3027,1.3027,1.3027,1.3027,1.3027,1.3027,1.3027,1.3027,1.3027,1.3027,1.3027,1.2671,1.25,1.2493,1.2282,1.2177,2.0011,2.0402,2.1517,2.3037,0.0,0.0,3.5605,3.651,0.0,0.0,0.0,0.0,0.0,0.0,0.0,0.0,0.0,0.0,0.0,0.0,0.0,0.0,0.0,0.0,0.0,4.497,4.497,4.497,4.497,4.497,4.497,4.497,4.497,4.497,4.2825,4.2825,4.48,4.2916,4.2779,4.423,4.004,3.9357,4.1464,3.6878,3.5161,3.5882,3.5762,3.4469,3.2618,3.319,3.3086,3.2618,3.3203,3.3423,3.3488,3.3995,3.4177,3.4177,3.4177,3.4177,3.4177,3.4177,3.4177,3.4177,3.4177,3.4177,3.419,3.4254,3.4319,3.4371,3.4371,3.4774,3.5176,3.5176,3.5566,3.5943,3.5943,3.5943,3.5631,3.4579,3.4371,3.4371,3.4371,3.4371,3.4371,3.4371,3.4371,3.1943,2.5185,2.3836,2.1131,1.4455,1.3242,1.3027,1.3027,1.3027,1.3027,1.3027,1.3027,1.3027,1.3027,1.3027,1.3027,1.3027,1.3027,1.3027,1.3027,1.248,1.2216,1.2216,1.2203,1.2203,1.8473,1.9108,1.9987,2.028,0.0,0.0,0.0,3.4546,0.0,0.0,0.0,0.0,0.0,0.0,0.0,0.0,0.0,0.0,0.0,0.0,0.0,0.0,0.0,0.0,0.0,0.0,0.0,4.497,4.497,4.497,4.497,4.497,4.497,4.497,4.391,4.391,4.497,4.391,4.3187,4.2825,3.947,3.7881,3.784,3.4217,3.2708,3.3154,3.332,3.2912,3.2008,3.2242,3.2203,3.2034,3.2618,3.2839,3.2904,3.3475,3.3683,3.3735,3.406,3.4177,3.4177,3.4177,3.4177,3.4177,3.4177,3.4177,3.4177,3.4177,3.4177,3.4177,3.4177,3.4358,3.4553,3.4553,3.4735,3.4917,3.4917,3.4917,3.4774,3.428,3.4177,3.4177,3.4177,3.4177,3.4177,3.4177,3.2306,2.9141,2.4041,2.1354,1.81,1.3107,1.2526,1.2526,1.2526,1.2526,1.2526,1.2526,1.2526,1.2526,1.2526,1.2526,1.2526,1.2526,1.2526,1.2526,1.2526,1.2289,1.2177,1.219,1.2216,1.0976,1.7274,0.0,0.0,0.0,0.0,0.0,0.0,0.0,0.0,0.0,0.0,0.0,0.0,0.0,0.0,0.0,0.0,0.0,0.0,0.0,0.0,0.0,0.0,0.0,0.0,0.0,0.0,0.0,4.497,4.497,4.497,4.427,4.391,4.391,4.463,4.497,4.497,4.497,4.4081,4.229,4.0013,3.7898,3.6311,3.3817,3.2374,3.1695,3.2309,3.2136,3.1398,3.1398,3.1398,3.145,3.2021,3.2242,3.232,3.2878,3.3203,3.3397,3.38,3.4047,3.4177,3.4177,3.4177,3.4177,3.4177,3.3754,3.3125,3.3125,3.2495,3.1865,3.1865,3.2495,3.3125,3.3972,3.4177,3.4177,3.4177,3.4177,3.4177,3.4177,3.4177,3.4177,3.4177,3.4177,3.3804,3.2911,3.0411,2.7034,2.2301,1.9392,1.6319,1.2559,1.2321,1.2321,1.2321,1.2321,1.2321,1.2321,1.2321,1.2321,1.2321,1.2321,1.2321,1.2321,1.2321,1.2321,1.2321,1.2183,1.2196,1.221,1.0987,0.8371,0.0,0.0,0.0,2.9846,3.1042,3.397,4.7612,0.0,0.0,0.0,0.0,0.0,0.0,0.0,0.0,0.0,0.0,0.0,0.0,0.0,0.0,0.0,0.0,0.0,0.0,0.0,0.0,0.0,0.0,4.497,4.497,4.2825,4.1563,4.1563,4.372,4.497,4.497,4.497,4.48,4.48,4.2344,4.1269,4.1042,3.8766,3.6489,3.4194,3.4223,3.2963,3.08,3.08,3.08,3.0852,3.1424,3.1657,3.1722,3.2294,3.2852,3.3333,3.3358,3.3722,3.4177,3.4177,3.4177,3.4177,3.4177,3.2277,2.9968,2.9968,2.8086,2.6204,2.6204,2.8086,3.0808,3.3536,3.4177,3.4177,3.4177,3.4177,3.4177,3.4177,3.4177,3.4177,3.4177,3.4177,3.2987,2.9394,2.8927,2.6104,1.8716,1.7734,1.6319,1.2559,1.2321,1.2321,1.2321,1.2321,1.2321,1.2321,1.2321,1.2321,1.2321,1.2321,1.2321,1.2321,1.2321,1.2321,1.2321,1.2216,1.2236,1.2085,0.8059,0.4101,2.1298,2.4306,2.7674,3.3824,3.8851,4.3536,4.8246,5.2102,0.0,0.0,0.0,0.0,0.0,0.0,0.0,0.0,0.0,0.0,0.0,0.0,0.0,0.0,0.0,0.0,0.0,0.0,0.0,0.0,0.0,0.0,4.497,4.4081,4.372,4.372,4.4441,4.497,4.497,4.497,4.497,4.48,4.0903,3.9135,3.8942,3.4859,3.2739,3.2035,3.2035,3.1485,3.0774,3.0774,3.0774,3.0787,3.0982,3.106,3.1125,3.1709,3.2034,3.232,3.3073,3.3462,3.3683,3.406,3.4177,3.4177,3.4177,3.3536,3.2701,3.2701,3.2071,3.1015,2.9127,2.9334,3.0176,3.1222,3.144,3.1865,3.3754,3.1234,2.9761,3.3536,3.2701,3.2059,3.3959,3.4177,3.3898,3.2641,2.6756,2.0559,1.4836,1.4032,1.3581,1.2374,1.2183,1.2321,1.2321,1.2321,1.2321,1.2321,1.2321,1.2321,1.2321,1.2321,1.2321,1.2321,1.2183,1.0958,0.8046,0.8055,0.6692,0.4108,0.2737,0.1369,2.4453,2.7576,3.0846,3.8997,4.4952,4.9296,5.1272,5.4933,5.791,0.0,0.0,0.0,0.0,0.0,0.0,0.0,0.0,0.0,0.0,0.0,0.0,0.0,0.0,0.0,0.0,0.0,0.0,0.0,0.0,0.0,4.2326,4.2326,4.2843,4.3549,4.372,4.4081,4.497,4.497,4.497,4.48,4.1789,4.0013,3.9118,3.5039,3.2922,3.2035,3.113,3.0774,3.0774,3.0774,3.0774,3.0774,3.0774,3.0774,3.0813,3.119,3.145,3.1735,3.2476,3.2375,3.1955,3.2303,3.1913,3.1234,3.1234,3.0601,2.9761,2.9761,2.893,2.7877,2.7251,2.7668,2.8711,2.9761,3.0808,3.144,3.1234,2.9138,2.8294,3.2071,3.2071,3.2071,3.3959,3.4177,3.3514,3.1932,2.373,1.6032,1.0759,0.9981,1.0661,1.2059,1.2203,1.2196,1.2196,1.2196,1.219,1.2183,1.2183,1.2183,1.2183,1.2183,1.219,1.2196,1.221,0.955,0.3898,0.3866,0.2518,0.0,0.0,0.0,2.5971,2.8971,3.2957,4.5607,4.9442,5.1541,5.6739,5.791,0.0,0.0,0.0,0.0,0.0,0.0,0.0,0.0,0.0,0.0,0.0,0.0,0.0,0.0,0.0,0.0,0.0,0.0,0.0,0.0,0.0,3.7898,3.7898,3.7898,3.8942,4.1216,4.1216,4.229,4.4441,4.446,4.446,4.446,4.4441,4.3187,4.1042,3.859,3.6311,3.4027,3.1668,3.0774,3.0774,3.0774,3.0774,3.0774,3.0774,3.0774,3.0774,3.0774,3.1112,3.1403,3.1429,3.035,2.8956,2.9001,2.7484,2.5755,2.5784,2.3899,2.1799,2.1799,1.9907,1.8431,2.0957,2.3688,2.6204,2.8711,3.144,3.2071,2.6832,2.7877,2.9761,2.9761,3.1853,3.3754,3.3959,3.4125,3.2625,2.7924,1.9943,1.2425,0.6472,0.6072,0.7908,1.1775,1.2078,1.1927,1.1927,1.1927,1.1914,1.1895,1.2052,1.221,1.221,1.2052,1.1907,1.1927,1.1743,0.7805,0.0,0.0,0.0,0.0,0.0,0.0,3.4276,3.9974,4.4416,5.3999,5.6117,5.6202,5.7593,5.791,5.7433,0.0,0.0,0.0,0.0,0.0,0.0,0.0,0.0,0.0,0.0,0.0,0.0,0.0,0.0,0.0,0.0,0.0,0.0,0.0,0.0,3.7898,3.7898,3.7898,3.8236,3.8766,3.8766,3.9118,3.9662,3.9662,3.9662,3.9662,3.7914,3.6668,3.6132,3.3635,3.2205,3.1668,3.0946,3.0774,3.0774,3.0774,3.0774,3.0774,3.0774,3.0774,3.0774,3.0774,2.9715,2.8169,2.8749,2.7311,2.5485,2.6135,2.5809,2.5558,2.5686,2.5364,2.4733,2.4733,2.4321,2.3265,2.2011,2.2215,2.2215,2.0957,2.2639,2.4321,2.3062,2.4943,2.6832,2.6832,2.7459,2.8722,3.0601,3.2758,3.3715,3.256,1.6145,0.33,0.1692,0.6869,1.1041,1.213,0.9461,0.7601,0.7601,0.7601,0.7597,0.7597,1.0516,1.2229,1.2229,0.9284,0.7597,0.7601,0.4698,0.2156,0.0,0.0,0.0,0.0,0.0,0.0,3.2214,4.0027,4.7933,5.6473,5.8313,5.791,5.791,5.791,5.7584,5.6248,0.0,0.0,0.0,0.0,0.0,0.0,0.0,0.0,0.0,0.0,0.0,0.0,0.0,0.0,0.0,0.0,0.0,0.0,0.0,3.4693,3.4693,3.5773,3.6311,3.6311,3.7365,3.7898,3.7898,3.7898,3.7898,3.7882,3.6489,3.5444,3.439,3.2935,3.1668,3.0774,3.0774,3.0774,3.0787,3.1047,3.0995,3.08,3.1047,3.0995,3.0774,3.0774,2.9825,2.8712,2.9016,2.6773,2.3937,2.4408,2.3201,2.1691,2.1902,2.2088,2.2011,2.2011,2.2011,2.2011,2.1587,2.1587,2.1587,2.117,2.2215,2.2851,2.0326,2.0957,2.2436,2.3688,2.4943,2.6679,2.9035,3.0631,2.89,2.0392,0.8312,0.0,0.0,0.3971,0.6881,0.6881,0.4723,0.3346,0.3346,0.3346,0.487,0.8541,1.091,1.069,0.7046,0.4587,0.3384,0.3386,0.1136,0.0,0.0,0.0,0.0,0.0,0.0,0.0,2.6781,3.578,4.6953,5.6098,5.8036,5.791,5.791,5.791,5.791,0.0,0.0,0.0,0.0,0.0,0.0,0.0,0.0,0.0,0.0,0.0,0.0,0.0,0.0,0.0,0.0,0.0,0.0,0.0,0.0,0.0,3.0774,3.2753,3.3846,3.3846,3.5952,3.7009,3.7009,3.7009,3.7009,3.7009,3.7009,3.5952,3.3846,3.3846,3.2753,3.0774,3.0774,3.0813,3.0917,3.1424,3.1333,3.093,3.1437,3.1093,3.0208,3.0208,2.9825,2.9257,2.9257,2.6307,2.2606,2.2663,1.9994,1.6831,1.691,1.7115,1.7326,1.7365,1.7378,1.7795,2.0326,2.0957,2.1587,2.411,2.4742,2.3265,1.8431,1.7378,1.8009,2.0539,2.3062,2.5262,2.7266,2.6504,1.9872,0.2528,0.0,0.0,0.0,0.0,0.0,0.0,0.0,0.0,0.0,0.0,0.3039,1.0224,1.0602,0.7478,0.0292,0.0,0.0,0.0,0.0,0.0,0.0,0.0,0.0,0.0,0.0,0.0,3.2448,3.9522,4.6952,5.7565,5.8981,5.791,5.791,5.791,5.7409,5.5588,5.6425,0.0,0.0,0.0,0.0,0.0,0.0,0.0,0.0,0.0,0.0,0.0,0.0,0.0,0.0,0.0,0.0,0.0,0.0,0.0,3.0774,3.113,3.1314,3.1314,3.1655,3.2021,3.2021,3.2021,3.2021,3.2021,3.2021,3.1655,3.1314,3.1314,3.113,3.0774,3.0774,3.1047,3.1489,3.1593,3.158,3.1502,3.1593,3.0116,2.7723,2.7723,2.5094,2.1323,2.1323,1.9467,1.7083,1.7356,1.693,1.631,1.6785,1.697,1.7055,1.7306,1.7378,1.7372,1.8009,1.8009,1.8224,1.8639,1.8853,1.8431,1.7587,1.7378,1.7372,1.8009,1.8431,1.9559,2.2001,1.638,0.8841,0.1171,0.0,0.0,0.0,0.0,0.0,0.0,0.0,0.0,0.0,0.0,0.0592,0.2073,0.2169,0.1425,0.0,0.0,0.0,0.0,0.0,0.0,0.0,0.0,0.0,0.0,0.0,0.0,3.0163,3.7974,4.6363,5.2035,5.5754,5.791,5.791,5.791,5.7258,5.5102,5.5434,5.4947,0.0,0.0,0.0,0.0,0.0,0.0,0.0,0.0,0.0,0.0,0.0,0.0,0.0,0.0,0.0,0.0,0.0,0.0,0.0,3.0774,3.0774,3.0774,3.0774,3.0774,3.0774,3.0774,3.0774,3.0774,3.0774,3.0774,3.0774,3.0774,3.0774,3.0787,3.1086,3.1372,3.1657,3.0562,2.9923,2.9476,2.8317,2.6662,2.4906,2.4906,2.3408,2.1332,2.1332,1.9625,1.7561,1.7724,1.7116,1.6126,1.6403,1.6693,1.6963,1.7101,1.7253,1.7378,1.7378,1.7378,1.7378,1.7378,1.7378,1.7378,1.7378,1.7378,1.7378,1.7378,1.7246,1.7633,1.9021,1.506,0.9216,0.1126,0.0,0.0,0.0,0.0,0.0,0.0,0.0,0.0,0.0,0.0,0.0,0.0,0.0,0.0,0.0,0.0,0.0,0.0,0.0,0.0,0.0,0.0,0.0,0.0,0.0,0.0,2.6859,3.4615,4.3316,4.6323,5.1549,5.6176,5.7642,5.7584,5.6754,5.4924,5.4614,5.3318,4.8984,0.0,0.0,0.0,0.0,0.0,0.0,0.0,0.0,0.0,0.0,0.0,0.0,0.0,0.0,0.0,0.0,0.0,0.0,0.0,0.0,3.0774,3.0774,3.0774,3.0774,3.0774,3.0774,0.0,3.0774,3.0774,3.059,2.9628,2.9072,2.9096,3.0279,3.1124,3.1657,3.0119,2.8737,2.7675,2.5644,2.3904,2.2518,2.2339,2.1958,2.1641,2.155,2.019,1.8676,1.8676,1.7523,1.5994,1.6053,1.6436,1.6851,1.6917,1.7148,1.7378,1.7378,1.7378,1.7378,1.7378,1.7378,1.7378,1.7378,1.7378,1.7378,1.7378,1.7134,1.6953,1.6944,1.5324,1.0797,0.1416,0.0,0.0,0.0,0.0,0.0,0.0,0.0,0.0,0.0,0.0,0.0,0.0,0.0,0.0,0.0,0.0,0.0,0.0,0.0,0.0,0.0,0.0,0.0,0.0,0.0,0.0,2.7639,3.1004,3.5453,4.5429,4.8606,5.0724,5.664,5.6425,5.4924,5.4614,5.4614,5.3318,4.8984,4.9821,0.0,0.0,0.0,0.0,0.0,0.0,0.0,0.0,0.0,0.0,0.0,0.0,0.0,0.0,0.0,0.0,0.0,0.0,0.0,3.0774,3.0774,3.0774,3.0774,3.0774,3.0774,0.0,3.0774,3.0774,3.0577,2.5855,2.3786,2.3975,2.6461,2.9028,3.1631,3.1493,3.0214,2.8174,2.7697,2.4642,2.0521,1.9866,1.8501,1.6778,1.6293,1.6004,1.5811,1.5811,1.5838,1.5723,1.5994,1.629,1.6581,1.6857,1.7148,1.7378,1.7378,1.7378,1.7378,1.7378,1.7378,1.7378,1.7378,1.7378,1.7378,1.7378,1.7134,1.6673,1.6254,1.1952,0.6481,0.0818,0.0,0.0,0.0,0.0,0.0,0.0,0.0,0.0,0.0,0.0,0.0,0.0,0.0,0.0,0.0,0.0,0.0,0.0,0.0,0.0,0.0,0.0,0.0,0.0,0.0,0.0,2.1642,2.8205,3.4962,3.6566,4.2988,4.9791,5.2325,5.2184,5.1825,5.2554,5.2241,4.9664,4.337,4.5142,0.0,0.0,0.0,0.0,0.0,0.0,0.0,0.0,0.0,0.0,0.0,0.0,0.0,0.0,0.0,0.0,0.0,0.0,0.0,0.0,2.849,2.7735,2.6241,2.6241,2.6241,2.6241,2.6241,2.6241,2.6042,2.3975,2.3219,2.3219,2.4163,2.556,2.6995,2.5691,2.4686,2.3828,2.1807,1.9769,1.8045,1.7611,1.6954,1.6033,1.573,1.5625,1.5625,1.5625,1.5625,1.5651,1.577,1.6007,1.6297,1.6581,1.6877,1.7148,1.7326,1.7378,1.7378,1.7378,1.7378,1.7378,1.7378,1.7378,1.7378,1.7378,1.6939,1.6771,1.6457,0.8903,0.2329,0.0316,0.0,0.0,0.0,0.0,0.0,0.0,0.0,0.0,0.0,0.0,0.0,0.0,0.0,0.0,0.0,0.0,0.0,0.0,0.0,0.0,0.0,0.0,0.0,0.0,0.0,0.0,1.8394,2.4708,3.1269,3.0201,3.6998,4.4895,4.8482,4.8043,4.7638,5.086,4.953,4.5809,3.9309,4.154,0.0,0.0,0.0,0.0,0.0,0.0,0.0,0.0,0.0,0.0,0.0,0.0,0.0,0.0,0.0,0.0,0.0,0.0,0.0,0.0,2.735,2.6229,2.4352,2.3597,2.3219,2.3219,2.3219,2.2273,2.0952,2.0952,2.0952,2.0952,2.1703,2.2251,2.2744,2.1965,2.1419,2.0805,1.8628,1.7202,1.6693,1.6244,1.6126,1.6145,1.5763,1.5625,1.5625,1.5625,1.5625,1.5625,1.5625,1.5836,1.6119,1.631,1.664,1.6976,1.7194,1.7332,1.7202,1.7202,1.7202,1.7202,1.7202,1.7405,1.7365,1.7066,1.6822,1.6054,1.4257,0.6184,0.0,0.0,0.0,0.0,0.0,0.0,0.0,0.0,0.0,0.0,0.0,0.0,0.0,0.0,0.0,0.0,0.0,0.0,0.0,0.0,0.0,0.0,0.0,0.0,0.0,0.0,0.0,0.0,1.997,2.0102,2.1881,2.8929,3.0755,3.3985,4.5683,4.4255,4.2407,5.0002,4.7063,4.2142,3.869,4.0953,0.0,0.0,0.0,0.0,0.0,0.0,0.0,0.0,0.0,0.0,0.0,0.0,0.0,0.0,0.0,0.0,0.0,0.0,0.0,0.0,2.8305,2.6966,2.6977,2.4341,2.3219,2.3219,2.3219,2.0571,1.5625,1.5625,1.5625,1.5818,1.8292,1.9434,1.9658,2.2522,2.2579,2.0813,2.0439,1.8895,1.726,1.6396,1.6251,1.6403,1.5829,1.5625,1.5625,1.5625,1.5625,1.5625,1.5625,1.5836,1.608,1.608,1.6488,1.693,1.6937,1.7007,1.7293,1.7293,1.7293,1.7293,1.7293,1.7254,1.7137,1.6844,1.6693,1.4816,0.8871,0.357,0.0,0.0,0.0,0.0,0.0,0.0,0.0,0.0,0.0,0.0,0.0,0.0,0.0,0.0,0.0,0.0,0.0,0.0,0.0,0.0,0.0,0.0,0.0,0.0,0.0,0.0,0.0,0.0,1.9116,2.2735,2.6633,2.6831,2.9206,3.389,4.3051,4.4225,4.4074,4.6563,4.4944,4.136,3.5659,3.764,3.9279,0.0,0.0,0.0,0.0,0.0,0.0,0.0,0.0,0.0,0.0,0.0,0.0,0.0,0.0,0.0,0.0,0.0,0.0,0.0,2.2263,2.0934,1.9226,1.8285,1.7909,1.7909,1.7909,1.7154,1.5625,1.5625,1.5625,1.5625,1.639,1.6769,1.6811,1.8316,1.8465,1.7881,1.8214,1.7838,1.7319,1.6838,1.6719,1.6706,1.6132,1.5948,1.5928,1.5542,1.549,1.5503,1.5503,1.5568,1.5882,1.6292,1.6429,1.5866,1.2271,1.1388,1.1371,1.1507,1.1537,1.1537,1.1537,1.1528,1.2472,1.6362,1.6543,1.2989,0.3991,0.114,0.0,0.0,0.0,0.0,0.0,0.0,0.0,0.0,0.0,0.0,0.0,0.0,0.0,0.0,0.0,0.0,0.0,0.0,0.0,0.0,0.0,0.0,0.0,0.0,0.0,0.0,0.0,0.0,1.8269,2.2699,2.7131,2.6143,2.6652,2.9577,3.8283,3.97,3.9782,4.1528,4.1082,3.8563,3.223,3.3168,3.4633,3.3686,3.6869,0.0,0.0,0.0,0.0,0.0,0.0,0.0,0.0,0.0,0.0,0.0,0.0,0.0,0.0,0.0,0.0,2.0952,2.0007,1.8676,1.6962,1.6011,1.5625,1.5625,1.5625,1.5625,1.5625,1.5625,1.5638,1.5457,1.5457,1.5457,1.5697,1.6277,1.6508,1.6548,1.7141,1.7378,1.7339,1.7042,1.6943,1.689,1.6422,1.6198,1.5489,1.3305,1.2602,1.2538,1.2538,1.2538,1.2765,1.3124,1.3342,1.229,0.6952,0.5413,0.5529,0.5373,0.5412,0.5435,0.5435,0.8919,1.2864,1.6024,1.2879,0.7608,0.1179,0.0,0.0,0.0,0.0,0.0,0.0,0.0,0.0,0.0,0.0,0.0,0.0,0.0,0.0,0.0,0.0,0.0,0.0,0.0,0.0,0.0,0.0,0.0,0.0,0.0,0.0,0.0,0.0,0.0,1.7555,2.0443,2.396,2.6282,2.3702,2.3105,3.2588,3.2334,3.1264,3.5203,3.5731,3.3721,2.8036,2.7727,2.9156,3.1513,3.4111,3.6101,0.0,0.0,0.0,0.0,0.0,0.0,0.0,0.0,0.0,0.0,0.0,0.0,0.0,0.0,0.0,2.2652,2.038,1.9251,1.9251,1.6769,1.5625,1.5625,1.5625,1.5625,1.5625,1.5625,1.5457,1.5496,1.5296,1.5114,1.5171,1.633,1.6759,1.6587,1.7161,1.7385,1.7352,1.7075,1.6786,1.6773,1.6247,1.5362,1.3537,0.8839,0.7134,0.7225,0.7234,0.7231,0.7222,0.7222,0.7711,0.682,0.1411,0.0,0.0,0.0,0.0,0.0,0.0,0.8482,1.5812,1.4547,0.6615,0.0,0.0,0.0,0.0,0.0,0.0,0.0,0.0,0.0,0.0,0.0,0.0,0.0,0.0,0.0,0.0,0.0,0.0,0.0,0.0,0.0,0.0,0.0,0.0,0.0,0.0,0.0,0.0,0.0,0.0,0.0,1.7103,1.8554,2.057,2.3165,2.5863,2.8784,3.1884,3.2263,3.1012,2.7939,2.7774,2.6753,2.1932,2.4099,2.771,3.1175,3.164,3.1686,0.0,0.0,0.0,0.0,0.0,0.0,0.0,0.0,0.0,0.0,0.0,0.0,0.0,0.0,1.7339,1.7339,1.6769,1.639,1.639,1.5818,1.5625,1.5625,1.5625,1.5625,1.5625,1.5625,1.5631,1.5444,1.2895,1.1618,1.1997,1.5196,1.6739,1.7186,1.7339,1.7261,1.7254,1.7183,1.7163,1.6436,1.1484,0.72,0.348,0.2219,0.1787,0.1769,0.1794,0.1785,0.1764,0.1764,0.1966,0.1782,0.0402,0.0,0.0,0.0,0.0,0.0,0.0,0.2114,0.4041,0.3612,0.1617,0.0,0.0,0.0,0.0,0.0,0.0,0.0,0.0,0.0,0.0,0.0,0.0,0.0,0.0,0.0,0.0,0.0,0.0,0.0,0.0,0.0,0.0,0.0,0.0,0.0,0.0,0.0,0.0,0.0,0.0,0.0,1.6341,1.8592,2.0809,2.0007,2.2057,2.4571,2.541,2.577,2.5033,2.2081,2.1688,2.1295,1.9292,2.0528,2.2905,2.6141,2.8283,2.9585,2.9106,0.0,0.0,0.0,0.0,0.0,0.0,0.0,0.0,0.0,0.0,0.0,0.0,0.0,1.5625,1.5625,1.5625,1.5625,1.5625,1.5464,1.5477,1.5477,1.5477,1.5477,1.5477,1.5477,1.549,1.5509,0.0,1.2883,1.3125,1.569,1.5531,1.3415,1.3429,1.3299,1.3299,1.3299,1.3299,1.2385,0.6377,0.2314,0.0,0.0,0.0,0.0,0.0,0.0,0.0,0.0,0.0,0.0,0.0,0.0,0.0,0.0,0.0,0.0,0.0,0.0,0.0,0.0,0.0,0.0,0.0,0.0,0.0,0.0,0.0,0.0,0.0,0.0,0.0,0.0,0.0,0.0,0.0,0.0,0.0,0.0,0.0,0.0,0.0,0.0,0.0,0.0,0.0,0.0,0.0,0.0,0.0,0.0,0.0,0.0,1.5585,1.8887,2.1542,1.7438,1.6699,1.7157,1.7795,1.7979,1.7961,1.7706,1.7413,1.7444,1.8148,1.7648,1.7776,1.9802,2.4381,2.7689,0.0,0.0,2.7886,0.0,0.0,0.0,0.0,0.0,0.0,0.0,0.0,0.0,0.0,1.5625,1.5625,1.5625,1.5631,1.5244,1.4451,1.4306,1.433,1.433,1.433,1.433,1.433,1.433,1.4348,0.0,0.0,1.3156,1.3227,1.4274,1.1757,0.7455,0.7346,0.7388,0.7388,0.7388,0.7388,0.6735,0.1737,0.0,0.0,0.0,0.0,0.0,0.0,0.0,-0.0393,-0.1963,-0.1178,0.0,0.0,0.0,0.0,0.0,0.0,-0.0213,-0.1075,-0.0621,-0.0392,-0.1664,-0.087,0.0,0.0,0.0,0.0,0.0,0.0,0.0,0.0,0.0,0.0,0.0,0.0,0.0,0.0,0.0,0.0,0.0,0.0,0.0,0.0,0.0,0.0,0.0,0.0,0.0,0.0,0.0,0.0,0.0,0.0,0.0,1.5413,1.6655,1.7917,1.7151,1.6699,1.6485,1.6576,1.6895,1.6819,1.5936,1.6405,1.6868,1.6757,1.689,1.7387,1.8218,1.9914,2.2069,2.5009,2.5329,2.4664,2.2745,0.0,0.0,0.0,0.0,0.0,0.0,0.0,0.0,0.0,1.5625,1.5625,1.5625,1.547,1.3499,0.8973,0.8981,0.8984,0.8984,0.8984,0.8984,0.8984,0.8984,0.8984,0.0,0.0,0.0,0.247,0.2483,0.2111,0.1302,0.1305,0.1306,0.1306,0.1306,0.1306,0.1307,0.0218,0.0,0.0,0.0,0.0,0.0,0.0,0.0,-0.1767,-1.062,-0.6873,0.0,0.0,0.0,0.0,0.0,0.0,-0.1267,-0.6355,-0.3515,-0.203,-0.9043,-0.4717,0.0,0.0,0.0,0.0,0.0,0.0,0.0,0.0,0.0,0.0,0.0,0.0,0.0,0.0,0.0,0.0,0.0,0.0,0.0,0.0,0.0,0.0,0.0,0.0,0.0,0.0,0.0,0.0,0.0,0.0,0.0,1.5972,1.6491,1.7114,1.7114,1.6919,1.666,1.6348,1.6447,1.6343,1.5571,1.5769,1.6222,1.6668,1.6699,1.7257,1.9049,1.869,1.9376,2.2709,2.2102,2.1038,2.0767,1.8431,0.0,0.0,0.0,0.0,0.0,0.0,0.0,0.0,1.5477,1.5483,1.5483,1.5503,1.174,0.37,0.3512,0.2145,-0.0584,-0.0584,-0.0584,-0.0584,-0.0584,-0.0584,0.0,0.0,0.0,-0.4267,-0.4274,-0.4158,-0.4503,-0.731,-0.8875,-0.8505,-0.2397,0.0,0.0,0.0,0.0,0.0,0.0,0.0,-0.0613,-0.3431,-0.616,-0.8819,-1.0784,-0.7829,-0.4302,-0.4302,-0.4133,-0.4189,-0.4303,-0.6653,-0.8948,-0.8706,-0.829,-0.8924,-1.1678,-0.9154,-0.5194,-0.0763,0.0,0.0,0.0,0.0,0.0,0.0,0.0,0.0,0.0,0.0,0.0,0.0,0.0,0.0,0.0,0.0,0.0,0.0,0.0,0.0,0.0,0.0,0.0,0.0,0.0,0.0,0.0,0.0,0.0,1.7244,0.0,1.8724,1.8724,1.8413,1.7971,0.0,1.6958,1.6517,1.5933,1.5816,1.6088,1.6958,1.6764,1.7076,1.9012,1.7519,1.7317,2.028,1.8936,1.8157,1.8986,1.6835,0.0,0.0,0.0,0.0,0.0,0.0,0.0,0.0,1.3722,1.3734,1.3734,1.135,0.624,-0.1752,-0.3123,-0.5665,-0.9576,-0.9576,-0.9576,-0.9576,-0.9576,0.0,0.0,0.0,0.0,-0.9643,-0.9643,-0.9645,-0.9964,-1.4066,-1.6411,-1.6215,-0.7414,-0.2397,0.0,0.0,0.0,-0.0217,-0.1693,-0.2922,-0.4326,-0.6971,-1.1446,-1.5026,-1.0821,-0.9601,-0.9576,-0.9576,-0.9576,-0.9665,-0.9814,-1.312,-1.5408,-1.11,-1.2298,-1.3768,-1.2419,-1.1445,-0.903,-0.3816,-0.2901,-0.2289,-0.0305,0.0,0.0,0.0,0.0,0.0,0.0,0.0,0.0,0.0,0.0,0.0,0.0,0.0,0.0,0.0,0.0,0.0,0.0,0.0,0.0,0.0,0.0,0.0,0.0,0.0,0.0,0.0,2.1802,2.3425,2.3425,2.223,2.0919,2.036,1.8984,0.0,1.7114,1.6997,1.7023,1.7101,1.7088,1.6703,1.551,1.4404,1.4542,1.7126,1.6532,1.6242,0.0,1.6087,0.0,0.0,0.0,0.0,0.0,0.0,0.0,0.0,0.8393,0.8393,0.8393,-0.0973,-0.6434,-0.7219,-1.1949,-1.4537,-1.4932,-1.4932,-1.4932,-1.4932,-1.4932,0.0,0.0,0.0,0.0,0.0,-1.4945,-1.5058,-1.5118,-1.5987,-1.6826,-1.7102,-1.6432,-0.9161,0.0,0.0,0.0,-0.0872,-0.6313,-1.1309,-1.4308,-0.9289,-1.1857,-1.6345,-1.5688,-1.5305,-1.4932,-1.4932,-1.4932,-1.5064,-1.5387,-1.5974,-1.61,-1.4576,-1.3334,-1.237,-1.2319,-0.9163,-0.7462,-1.0737,-1.1369,-0.8731,-0.1221,0.0,0.0,0.0,0.0,0.0,0.0,0.0,0.0,0.0,0.0,0.0,0.0,0.0,0.0,0.0,0.0,0.0,0.0,0.0,0.0,0.0,0.0,0.0,0.0,0.0,0.0,2.1049,2.2464,2.3386,2.3386,2.1554,1.9929,2.0522,1.8359,1.6468,1.7024,1.7114,1.7114,1.7114,1.6382,1.5956,1.6482,1.4344,1.3235,1.4977,1.5723,0.0,1.488,0.0,0.0,0.0,0.0,0.0,0.0,0.0,0.0,0.0,-0.0195,-0.3317,-0.6632,-1.0562,-1.2533,-1.2523,-1.4512,-1.5496,-1.547,-1.547,-1.547,-1.547,-1.547,0.0,0.0,0.0,0.0,0.0,-1.5633,-1.5669,-1.5825,-1.5857,-1.6357,-1.6549,-1.2656,-0.8838,-0.5435,-0.5435,-0.5435,-0.5869,-0.8051,-1.0077,-1.1771,-1.2943,-1.4667,-1.6539,-1.6145,-1.602,-1.5901,-1.5516,-1.547,-1.5614,-1.6167,-1.6058,-1.5538,-1.484,-1.3753,-1.291,-1.2374,-1.097,-1.037,-1.1978,-1.2302,-0.9502,-0.1221,0.0,0.0,0.0,0.0,0.0,0.0,0.0,0.0,0.0,0.0,0.0,0.0,0.0,0.0,0.0,0.0,0.0,0.0,0.0,0.0,0.0,0.0,0.0,0.0,0.0,0.0,2.2983,2.4126,2.497,2.497,2.3231,2.1527,2.1361,1.9268,1.7049,1.6526,1.6382,1.6279,1.5853,1.4909,1.4535,1.5415,1.3465,1.2233,1.3278,1.4055,0.0,1.3238,1.3679,0.0,0.0,0.0,0.0,0.0,0.0,0.0,0.0,-0.6654,-1.0182,-1.5321,-1.5509,-1.549,-1.5477,-1.5477,-1.5464,-1.5625,-1.5625,-1.5625,-1.5625,-1.5625,0.0,0.0,0.0,0.0,0.0,-1.5625,-1.5803,-1.608,-1.59,-1.6009,-1.6016,-1.205,-1.0889,-1.1235,-1.1295,-1.1498,-1.1454,-1.1515,-1.1353,-1.1785,-1.5504,-1.6701,-1.6712,-1.6422,-1.6218,-1.6047,-1.5928,-1.5763,-1.5796,-1.6468,-1.5677,-1.4774,-1.4774,-1.3864,-1.2889,-1.2308,-1.2196,-1.221,-1.2262,-1.1181,-0.8869,-0.4581,-0.1679,0.0,0.0,0.0,0.0,0.0,0.0,0.0,0.0,0.0,0.0,0.0,0.0,0.0,0.0,0.0,0.0,0.0,0.0,0.0,0.0,0.0,0.0,0.0,0.0,0.0,2.5697,2.7359,2.9073,2.9073,2.8216,2.6619,2.3724,2.2178,2.0172,1.5848,1.4909,1.4481,1.3122,1.2807,1.2517,1.1496,1.1537,1.1659,1.1647,1.1386,1.1674,0.0,0.0,0.0,0.0,0.0,0.0,0.0,0.0,0.0,0.0,-1.0576,-1.0156,-1.549,-1.5651,-1.5625,-1.5625,-1.5625,-1.5625,-1.5625,-1.5631,-1.5625,-1.5625,-1.5625,-1.5625,0.0,0.0,0.0,0.0,-1.5625,-1.5803,-1.6272,-1.6272,-1.6264,-1.6164,-1.6668,-1.6594,-1.6672,-1.7183,-1.7319,-1.734,-1.7202,-1.6864,-1.6196,-1.6694,-1.6955,-1.7312,-1.7016,-1.6515,-1.6139,-1.6409,-1.606,-1.5849,-1.6719,-1.5367,-1.4042,-1.4642,-1.3403,-1.2321,-1.2321,-1.2321,-1.2177,-1.2203,-0.8821,-0.7454,-1.1668,-0.5346,-0.0153,-0.0,0.0,0.0,0.0,0.0,0.0,0.0,0.0,0.0,0.0,0.0,0.0,0.0,0.0,0.0,0.0,0.0,0.0,0.0,0.0,0.0,0.0,0.0,0.0,2.6554,2.7658,2.8476,2.8476,2.6752,2.4335,2.2174,2.0275,1.7993,1.4266,1.4273,1.4481,1.3122,1.206,1.1325,1.1266,1.0537,1.0274,1.0769,1.213,1.2132,0.0,0.0,0.0,0.0,0.0,0.0,0.0,0.0,0.0,0.0,-1.41,-1.4826,-1.8124,-1.659,-1.639,-1.8292,-1.639,-1.5625,-1.5625,-1.7339,-1.8292,-1.8292,-2.019,-2.0952,-2.0952,0.0,0.0,0.0,-2.0952,-2.1023,-2.1129,-2.1129,-2.1174,-2.1354,-1.9742,-1.9226,-1.9289,-1.7727,-1.7358,-1.7299,-1.7385,-1.7072,-1.6935,-1.702,-1.7167,-1.7042,-1.6956,-1.6515,-1.6093,-1.6178,-1.7632,-1.8976,-1.9516,-1.836,-1.7249,-1.7719,-1.4871,-1.2321,-1.2321,-1.2321,-1.2177,-1.2203,-1.1278,-1.083,-1.2137,-1.0127,-0.6576,-0.0763,0.0,0.0,0.0,0.0,0.0,0.0,0.0,0.0,0.0,0.0,0.0,0.0,0.0,0.0,0.0,0.0,0.0,0.0,0.0,0.0,0.0,0.0,0.0,2.5734,2.6241,2.6488,2.6488,2.4801,2.25,2.0964,1.9104,1.6658,1.2781,1.2556,1.2695,1.1399,1.0471,0.9999,1.0381,1.0101,0.9755,0.939,0.8695,0.733,0.4895,0.0,0.0,0.0,0.0,0.0,0.0,0.0,0.0,-1.6826,-1.8131,-1.9243,-2.0761,-1.8484,-1.7916,-1.9434,-1.6769,-1.6004,-1.7154,-1.8676,-2.0007,-2.0952,-2.2462,-2.3219,-2.3219,0.0,0.0,0.0,-2.3219,-2.3219,-2.3219,-2.3219,-2.3186,-2.3266,-2.2118,-2.1824,-2.1902,-2.0783,-1.9409,-1.8516,-1.898,-1.9521,-1.9715,-1.8683,-1.9162,-1.9615,-1.8592,-1.8212,-1.8189,-1.9242,-1.9897,-2.0346,-2.0322,-1.9272,-1.8124,-1.7034,-1.4438,-1.2321,-1.2321,-1.2321,-1.2177,-1.219,-1.2196,-1.2216,-1.2256,-1.2289,-1.0432,-0.5499,-0.1984,0.0,0.0,0.0,0.0,0.0,0.0,0.0,0.0,0.0,0.0,0.0,0.0,0.0,0.0,0.0,0.0,0.0,0.0,0.0,0.0,0.0,0.0,2.3797,2.3786,2.3631,2.3631,2.2608,2.1093,1.9995,1.8395,1.5867,1.1395,1.0398,0.9985,0.8909,0.8748,0.8701,0.8776,0.8998,0.8537,0.6674,0.2193,-0.0564,-0.0,0.0,0.0,0.0,0.0,0.0,0.0,0.0,0.0,-1.9625,-2.1903,-2.3219,-2.3408,-2.0761,-1.9625,-2.019,-1.7339,-1.7154,-1.9816,-2.0007,-2.1323,-2.3408,-2.3786,-2.3786,-2.3786,0.0,0.0,0.0,-2.3786,-2.3786,-2.3786,-2.3786,-2.3786,-2.3836,-2.4077,-2.4042,-2.4161,-2.459,-2.2998,-2.0601,-2.1484,-2.2895,-2.3708,-2.13,-2.2278,-2.3641,-2.1249,-2.0666,-2.1437,-2.3879,-2.2686,-2.092,-2.0337,-1.9578,-1.7981,-1.4588,-1.2941,-1.2321,-1.2321,-1.2321,-1.2321,-1.2321,-1.219,-1.2203,-1.2203,-1.2256,-1.2302,-1.2302,-0.5041,0.0,0.0,0.0,0.0,0.0,0.0,0.0,0.0,0.0,0.0,0.0,0.0,0.0,0.0,0.0,0.0,0.0,0.0,0.0,0.0,0.0,0.0,2.3454,2.2622,2.1286,2.1286,2.1031,1.9902,1.6532,1.6354,1.5279,0.9814,0.9704,1.0078,0.858,0.8599,0.7798,0.495,0.1677,-0.1354,-0.4083,-0.542,-0.4642,0.0,0.0,0.0,0.0,0.0,0.0,0.0,0.0,0.0,-2.2092,-2.2841,-2.3975,-2.6031,-2.1694,-2.1323,-2.5271,-2.0943,-1.9816,-2.2462,-2.4341,-2.5657,-2.6218,-2.8119,-2.9072,-2.9072,-2.9072,0.0,0.0,-2.9072,-2.9072,-2.9072,-2.9072,-2.9072,-2.8947,-2.7166,-2.6566,-2.646,-2.4856,-2.3774,-2.3335,-2.3513,-2.385,-2.4107,-2.3507,-2.347,-2.3595,-2.3204,-2.2848,-2.2852,-2.3332,-2.3431,-2.3966,-2.6167,-2.4456,-2.1091,-1.761,-1.4339,-1.2321,-1.2321,-1.2321,-1.2321,-1.2321,-1.2177,-1.2183,-1.2203,-1.2229,-1.2262,-1.2302,-0.5041,0.0,0.0,0.0,0.0,0.0,0.0,0.0,0.0,0.0,0.0,0.0,0.0,0.0,0.0,0.0,0.0,0.0,0.0,0.0,0.0,0.0,0.0,2.0457,1.9962,1.895,1.895,1.8104,1.6995,1.5484,1.482,1.3533,0.9784,0.9639,0.9838,0.8643,0.7013,0.4904,0.2256,-0.2235,-0.6885,-1.0975,0.0,0.0,0.0,0.0,0.0,0.0,0.0,0.0,0.0,0.0,-1.965,-2.4718,-2.4906,-2.6229,-2.8676,-2.5094,-2.4331,-2.6966,-2.321,-2.2462,-2.5094,-2.749,-2.8801,-2.8874,-3.1274,-3.1852,-3.0774,-3.0774,0.0,-3.0774,-3.0774,-3.0774,-3.0774,-3.0774,-3.0774,-3.0616,-2.9379,-2.8912,-2.8795,-2.7959,-2.6754,-2.5929,-2.6869,-2.7177,-2.6984,-2.5816,-2.6221,-2.6797,-2.5645,-2.5254,-2.5487,-2.7257,-2.6924,-2.6895,-3.0635,-2.6915,-2.2353,-2.0666,-1.6094,-1.2321,-1.2321,-1.2321,-1.2321,-1.2321,-1.2321,-1.2177,-1.219,-1.2216,-1.1466,-0.9471,-0.3812,0.0,0.0,0.0,0.0,0.0,0.0,0.0,0.0,0.0,0.0,0.0,0.0,0.0,0.0,0.0,0.0,0.0,0.0,0.0,0.0,0.0,0.0,1.7232,1.6941,1.677,1.677,1.5242,1.4153,1.5125,1.3772,1.1987,1.0559,0.9869,0.9369,0.8888,0.5955,0.2427,-0.1497,-0.4767,-0.8782,0.0,0.0,-1.0748,0.0,0.0,0.0,0.0,0.0,0.0,0.0,0.0,-2.2831,-2.735,-2.8095,-2.9035,-3.059,-2.922,-2.8083,-2.7723,-2.5458,-2.5635,-2.8269,-3.0593,-3.1731,-3.1498,-3.3482,-3.3118,-3.0774,0.0,0.0,-3.1314,-3.1314,-3.1314,-3.1314,-3.1314,-3.113,-3.0774,-3.0774,-3.0774,-3.0839,-3.132,-2.9925,-2.8309,-3.0162,-3.0774,-3.038,-2.8305,-2.9059,-3.0208,-2.8305,-2.7851,-2.8688,-3.1585,-3.0607,-2.9716,-3.3153,-2.8063,-2.2528,-2.3086,-1.7458,-1.2321,-1.2321,-1.2321,-1.2321,-1.2321,-1.2321,-1.2321,-1.2321,-1.221,-1.0685,-0.653,-0.2435,0.0,0.0,0.0,0.0,0.0,0.0,0.0,0.0,0.0,0.0,0.0,0.0,0.0,0.0,0.0,0.0,0.0,0.0,0.0,0.0,0.0,0.0,1.6523,1.5747,1.4221,1.4221,1.4049,1.3647,1.3251,1.2863,1.2347,1.1582,1.0586,0.9657,0.8891,0.8558,0.3616,-1.1006,0.0,-0.6008,-1.4408,-1.4913,-1.4707,-1.5496,-1.7569,-1.8876,-1.8868,-2.0952,-2.2273,-2.2652,-2.4718,-2.7164,-3.001,-3.2191,-3.2557,-3.0774,-3.2557,-3.2374,-3.0195,-2.9712,-3.0789,-3.3454,-3.5743,-3.5922,-3.3831,-3.4194,-3.3118,-3.0774,0.0,0.0,-3.3846,-3.3846,-3.3846,-3.3846,-3.3846,-3.257,-3.0774,-3.0774,-3.0774,-3.0787,-3.0852,-3.0508,-3.0297,-3.0603,-3.0774,-3.059,-3.038,-3.0392,-3.0577,-3.038,-3.0259,-3.0437,-3.1593,-3.1906,-3.224,-3.3294,-2.8075,-2.3086,-2.3148,-1.7458,-1.2321,-1.2321,-1.2321,-1.2321,-1.2321,-1.2321,-1.2321,-1.2321,-1.221,-1.0685,-0.653,-0.2435,0.0,0.0,0.0,0.0,0.0,0.0,0.0,0.0,0.0,0.0,0.0,0.0,0.0,0.0,0.0,0.0,0.0,0.0,0.0,0.0,0.0,0.0,1.4329,1.4169,1.3884,1.3738,1.3725,1.3785,1.3429,1.3344,1.3067,1.2234,0.9245,0.7161,0.8558,0.0,0.0,0.0,0.0,0.0,-1.6904,-1.7761,-1.8331,0.0,-2.077,0.0,-2.1523,-2.2472,-2.3786,0.0,-2.8998,-3.1615,-3.2753,-3.5068,-3.5952,-3.4693,-3.5773,-3.5249,-3.2767,-3.2698,-3.3244,-3.439,-3.8075,-3.859,-3.6489,-3.7705,-3.6994,-3.4693,0.0,-3.5414,-3.6311,-3.4918,-3.439,-3.4208,-3.2935,-3.1668,-3.0774,-3.0774,-3.0774,-3.0774,-3.0774,-3.0774,-3.0774,-3.0774,-3.0774,-3.0774,-3.0774,-3.0774,-3.0774,-3.0774,-3.1008,-3.1385,-3.1956,-3.2527,-3.3099,-3.367,-2.8286,-2.3159,-2.3159,-1.7458,-1.2321,-1.2321,-1.2321,-1.2321,-1.2321,-1.2183,-1.219,-1.219,-1.2236,-0.9937,-0.3496,-0.1066,0.0,0.0,0.0,0.0,0.0,0.0,0.0,0.0,0.0,0.0,0.0,0.0,0.0,0.0,0.0,0.1959,0.5895,0.5895,0.3797,0.0,0.0,0.0,1.246,1.3053,1.3614,1.3706,1.3738,1.3719,1.3771,1.3777,1.2895,0.9807,0.6352,0.441,0.0,0.0,0.0,-0.8807,-1.2105,0.0,-1.8001,-2.0016,0.0,-2.304,0.0,-2.4163,-2.4163,-2.4728,0.0,0.0,-3.1981,-3.439,-3.439,-3.7188,-3.859,-3.7898,-3.8413,-3.7721,-3.5263,-3.5263,-3.5608,-3.6311,-4.0345,-4.106,-3.8766,-4.0694,-4.0171,-3.7898,-3.7898,-3.7898,-3.7705,-3.5968,-3.4918,-3.4208,-3.2401,-3.1314,-3.0774,-3.0774,-3.0774,-3.0774,-3.0774,-3.113,-3.1498,-3.0959,-3.113,-3.1485,-3.0946,-3.0774,-3.0774,-3.0774,-3.119,-3.1952,-3.308,-3.3861,-3.4343,-3.385,-2.8876,-2.374,-2.2189,-1.6775,-1.2321,-1.2321,-1.2321,-1.2321,-1.2321,-1.219,-1.2045,-1.1272,-1.0078,-0.6877,-0.0762,0.0,0.0,0.0,0.0,0.0,0.0,0.0,0.0,0.0,0.0,0.0,0.0,0.0,0.0,0.0,0.1824,0.5221,1.0522,1.0522,0.6816,0.0,0.0,0.0,1.213,1.2612,1.2856,1.3556,1.3738,1.3725,1.379,1.379,1.13,0.2422,0.1804,0.2513,0.0,0.0,-0.5134,-1.233,-1.2843,-1.306,-1.54,-2.1378,-2.4706,0.0,0.0,0.0,0.0,0.0,0.0,-3.0577,0.0,-3.439,-3.439,-3.8766,-4.0171,-3.8075,-3.9979,-4.0171,-3.7721,-3.7721,-3.8766,-4.1042,-4.3549,-4.3549,-4.1216,-4.139,-4.0171,-3.7898,-3.7898,-3.7898,-3.7898,-3.7705,-3.6489,-3.4375,-3.4208,-3.2753,-3.0774,-3.0774,-3.0774,-3.0774,-3.0774,-3.2218,-3.3831,-3.1485,-3.2218,-3.3846,-3.1498,-3.0774,-3.0774,-3.0774,-3.119,-3.2319,-3.5342,-3.6729,-3.6319,-3.3361,-2.9789,-2.5302,-1.9336,-1.4991,-1.2321,-1.2321,-1.2321,-1.2321,-1.2321,-1.219,-1.1423,-0.8801,-0.3947,-0.0457,-0.0,0.0,0.0,0.0,0.0,0.0,0.0,0.0,0.0,0.0,0.0,0.0,0.0,0.0,0.0,0.0,0.6535,1.0118,1.0522,1.0522,0.6816,0.0,0.0,0.0,1.1418,1.2019,1.2677,1.3569,1.3771,1.3764,1.383,1.1511,0.7638,0.139,0.05,-0.0966,-0.7667,-0.9285,-1.0766,-1.4052,-1.6653,-1.944,-2.2431,-2.4927,-2.6858,-2.7944,-2.8874,0.0,0.0,0.0,0.0,-3.3118,-3.6653,-3.8942,-3.8942,-4.1945,-4.3187,-4.2499,-4.3187,-4.2481,-4.0171,-4.0171,-4.052,-4.139,-4.372,-4.5252,-4.5792,-4.4366,-4.3187,-4.2326,-4.2326,-4.1598,-3.9996,-3.859,-3.6489,-3.4194,-3.257,-3.1485,-3.0774,-3.0774,-3.0774,-3.0774,-3.0774,-3.2401,-3.4027,-3.1498,-3.2401,-3.4027,-3.1498,-3.0774,-3.0774,-3.0774,-3.145,-3.2781,-3.5633,-3.7034,-3.6974,-3.3523,-2.9906,-2.5439,-1.9086,-1.4803,-1.2321,-1.2321,-1.2321,-1.2321,-1.2321,-1.219,-1.0197,-0.3796,-0.1218,0.0,0.0,0.0,0.0,0.0,0.0,0.0,0.0,0.0,0.0,0.0,0.0,0.0,0.0,0.0,0.1092,0.3386,0.8094,1.0482,1.0502,0.824,0.47,0.0,0.0,0.0,1.0627,1.1511,1.1953,1.0956,1.1134,1.1852,1.3521,0.9073,0.3818,0.0695,-0.1189,-0.4661,-1.2401,-1.4562,-1.5365,-1.6084,-2.0216,-2.4212,-2.6666,-2.7723,-2.8874,-3.0577,-3.1498,0.0,0.0,0.0,0.0,-3.4556,-3.8766,-4.139,-4.139,-4.3549,-4.497,-4.497,-4.497,-4.4081,-4.2635,-4.2635,-4.2961,-4.378,-4.4573,-4.6096,-4.8182,-4.5947,-4.497,-4.497,-4.497,-4.3187,-4.0154,-3.859,-3.6132,-3.2935,-3.1314,-3.0774,-3.0774,-3.0774,-3.0774,-3.0774,-3.0774,-3.2401,-3.4027,-3.1498,-3.2401,-3.4027,-3.1498,-3.0774,-3.0774,-3.0774,-3.1593,-3.3226,-3.6807,-3.8546,-3.8243,-3.3283,-3.0301,-2.6275,-1.7761,-1.3955,-1.2321,-1.2321,-1.2321,-1.2177,-1.2183,-1.2196,-0.9436,-0.1217,0.0,0.0,0.0,0.0,0.0,0.0,0.0,0.0,0.0,0.0,0.0,0.0,0.0,0.0,0.0,0.0,0.2202,0.6916,0.9266,1.0463,1.0489,0.6907,0.3388,0.0,0.0,0.0,0.9856,1.1069,1.0959,0.5709,0.5772,0.8145,1.2627,0.6618,0.0173,0.0,-0.3818,-0.8507,-1.3062,-1.6032,-1.7897,-1.8438,-2.2789,-2.6383,-2.7083,-2.9245,-3.0774,-3.0774,-3.2753,-3.33,0.0,-3.2935,-3.4556,-3.439,-3.8766,-4.139,-4.139,-4.3549,-4.497,-4.497,-4.497,-4.497,-4.497,-4.497,-4.6096,-4.8182,-4.6096,-4.6264,-4.8182,-4.5947,-4.497,-4.497,-4.497,-4.2326,-3.7898,-3.7898,-3.5054,-3.0774,-3.0774,-3.0774,-3.0774,-3.0774,-3.0774,-3.0774,-3.0774,-3.2401,-3.4027,-3.1498,-3.2401,-3.4027,-3.1498,-3.0774,-3.0774,-3.0774,-3.158,-3.3587,-3.9031,-4.1203,-4.034,-3.2821,-3.1035,-2.771,-1.4934,-1.2321,-1.2321,-1.2321,-1.2321,-1.2177,-1.2203,-1.2203,-0.9284,-0.1217,0.0,0.0,0.0,0.0,0.0,0.0,0.0,0.0,0.0,0.0,0.0,0.0,0.0,0.0,0.0,0.0141,0.344,1.0366,1.0463,1.0463,1.0489,0.6907,0.3388,0.0,0.0,0.0,1.0713,1.0328,0.0,0.939,0.8119,0.7477,0.9596,0.6495,0.246,0.0344,-0.6429,-1.2376,-1.3598,-1.7029,-2.018,-2.1074,-2.5241,-2.8551,-2.9502,-3.0208,-3.0774,-3.0774,-3.1314,-3.1498,-3.0774,-3.4527,-3.6311,-3.4571,-3.8766,-4.139,-4.139,-4.3549,-4.497,-4.497,-4.497,-4.497,-4.497,-4.6412,-4.7541,-4.8182,-4.9189,-4.9189,-4.8182,-4.7541,-4.6412,-4.497,-4.497,-4.2326,-3.7898,-3.7898,-3.5054,-3.0774,-3.0774,-3.0774,-3.0774,-3.0774,-3.0774,-3.0774,-3.0774,-3.2401,-3.4027,-3.1498,-3.2401,-3.4027,-3.1498,-3.0774,-3.0774,-3.0774,-3.1294,-3.3253,-3.8921,-4.1022,-3.9738,-3.272,-3.1035,-2.771,-1.4934,-1.2321,-1.2321,-1.2321,-1.2321,-1.2177,-1.2203,-0.9738,-0.5924,-0.0761,0.0,0.0,0.0,0.0,0.0,0.0,0.0,0.0,0.0,0.0,0.0,0.0,0.0,0.0,0.0,0.2473,0.5942,1.0366,1.0449,1.0449,1.0489,0.6907,0.3388,0.0,0.0,0.0,1.0252,0.932,0.0,0.0,0.8479,0.7245,0.8425,0.5547,0.0904,-0.4606,-0.9978,-1.3727,-1.3851,-1.7021,-2.0472,0.0,-2.5517,-2.795,-2.9751,-3.0268,-3.0424,-3.0424,-2.9485,-2.901,-2.9232,-3.3593,-3.5968,-3.4556,-3.7898,-4.0345,-4.139,-4.2653,-4.391,-4.48,-4.497,-4.497,-4.497,-4.7061,-4.8676,-4.9658,-4.9983,-4.9983,-4.9495,-4.7706,-4.6096,-4.48,-4.391,-4.1234,-3.7898,-3.6847,-3.4165,-3.0774,-3.0774,-3.0774,-3.0774,-3.0774,-3.0774,-3.0774,-3.0774,-3.1682,-3.2584,-3.113,-3.1668,-3.257,-3.113,-3.0774,-3.0774,-3.0774,-3.119,-3.2996,-3.8514,-3.8655,-3.6098,-3.1644,-2.8739,-2.4425,-1.4398,-1.2321,-1.2321,-1.2321,-1.2321,-1.2183,-1.2216,-0.8821,-0.4708,-0.0609,0.0,0.0,0.0,0.0,0.0,0.0,0.0,0.0,0.0,0.0,0.0,0.0,0.0,0.0,0.0,0.3396,0.6842,1.0496,1.0443,1.0436,1.0476,0.6907,0.4955,0.432,0.1309,0.0,0.8748,0.8086,0.7594,0.8096,0.7751,0.7269,0.0,0.0,-0.2683,-1.1907,-1.3756,-1.3632,-1.3181,-1.595,-1.9548,-2.3056,-2.406,-2.5416,-2.81,-2.8781,-2.9072,-2.9009,-2.7286,-2.6429,-2.6852,-3.1012,-3.365,-3.4027,-3.6132,-3.8413,-4.052,-4.0868,-4.2118,-4.4441,-4.4441,-4.463,-4.497,-4.7394,-4.9495,-5.1479,-4.9495,-4.9658,-5.1297,-4.6934,-4.497,-4.48,-4.2653,-4.052,-3.8059,-3.5429,-3.2935,-3.0774,-3.0774,-3.0774,-3.0761,-3.0392,-3.0392,-3.059,-3.0392,-3.0392,-3.0774,-3.0774,-3.0774,-3.0774,-3.0774,-3.0774,-3.0774,-3.0774,-3.1325,-3.3007,-3.7814,-3.5562,-3.1814,-3.0069,-2.5623,-1.9931,-1.3539,-1.2321,-1.2321,-1.2321,-1.2321,-1.2183,-1.2229,-0.8825,-0.4711,-0.061,0.0,0.0,0.0,0.0,0.0,0.0,0.0,0.0,0.0,0.0,0.0,0.0,0.0,0.0,0.0,0.338,0.695,1.0489,1.0443,1.0559,1.0456,0.7297,0.744,1.0385,0.3272,0.0,0.0,0.0,0.0,0.0,0.0,0.0,0.0,0.0,-0.2603,-1.1953,-1.3784,-1.2687,-0.9005,-1.3916,-1.8917,-2.015,-2.1372,-2.264,-2.3451,-2.3776,-2.3691,-2.3319,-2.3408,-2.4263,-2.6577,-2.7673,-2.922,-3.1301,-3.365,-3.5263,-3.5788,-3.7543,-3.9645,-4.1927,-4.21,-4.3016,-4.48,-4.8861,-5.1136,-5.1479,-5.1136,-5.1136,-5.1297,-4.6934,-4.497,-4.4819,-4.4441,-4.2843,-4.0345,-3.6147,-3.2935,-3.0774,-3.0774,-3.0774,-3.0392,-2.849,-2.9059,-3.0392,-2.849,-2.9059,-3.0774,-3.0774,-3.0774,-3.0774,-3.0774,-3.0774,-3.0774,-3.0774,-3.23,-3.4666,-3.8236,-3.6459,-3.3139,-3.0458,-2.5623,-1.9931,-1.3539,-1.2321,-1.2321,-1.2321,-1.2321,-1.2183,-1.2229,-0.8825,-0.4711,-0.061,0.0,0.0,0.0,0.0,0.0,0.0,0.0,0.0,0.0,0.0,0.0,0.0,0.0,0.0,0.0,0.3412,0.6942,1.0463,1.0436,1.0559,1.0456,0.9809,0.9827,1.0385,0.3272,0.0,0.0,0.0,0.0,0.0,0.0,0.0,0.0,0.0,0.0,0.0,0.0,-0.6209,0.0,0.0,-1.429,-1.9178,-1.9672,-1.9765,-2.1205,-2.18,-2.0984,-1.8349,-1.9365,-2.1473,-2.4042,-2.5779,-2.7738,-3.0164,-3.169,-3.3118,-3.439,-3.5429,-3.7721,-4.1251,-4.1407,-4.2463,-4.4819,-4.9352,-5.1479,-5.1479,-5.1479,-5.1479,-5.1297,-4.6934,-4.497,-4.48,-4.372,-4.1772,-3.947,-3.5788,-3.2935,-3.0577,-2.943,-2.8874,-2.849,-2.6031,-2.6604,-2.8676,-2.7537,-2.8676,-3.0774,-3.0774,-3.0774,-3.0774,-3.0774,-3.0774,-3.0774,-3.0774,-3.257,-3.4991,-3.7777,-3.4086,-2.9665,-2.9335,-2.2947,-1.6012,-1.2848,-1.2321,-1.2321,-1.2321,-1.2321,-1.2183,-1.2229,-0.8749,-0.4629,-0.0599,0.0,0.0,0.0,0.0,0.0,0.0,0.0,0.0,0.0,0.0,0.0,0.0,0.0,0.0,0.0,0.5078,0.8748,1.0456,1.0559,1.0559,1.0436,1.0469,0.9561,0.7845,0.6017,0.3403,0.0,0.0,0.0,0.0,0.0,0.0,0.0,0.0,0.0,0.0,0.0,0.0,0.0,0.0,0.0,-1.8007,-1.7588,-1.7009,-1.8937,-1.9614,-1.8657,-1.4755,-1.6036,-1.8627,-2.1588,-2.419,-2.6843,-2.9583,-3.0281,-3.1508,-3.3493,-3.4136,0.0,-4.0571,-4.1234,-4.2463,-4.4819,-4.9352,-5.1297,-5.0814,0.0,0.0,-5.0814,-4.6767,-4.463,-4.4081,-4.2272,-3.9821,-3.7009,-3.5263,-3.2935,-3.0367,-2.7708,-2.6496,-2.5941,-2.3812,-2.4832,-2.6977,-2.6977,-2.8676,-3.0774,-3.0774,-3.0774,-3.0774,-3.0774,-3.113,0.0,-3.0761,-3.3104,-3.6147,-3.7543,-3.19,-2.621,-2.8098,-2.0241,-1.2321,-1.2321,-1.2321,-1.2321,-1.2321,-1.2321,-1.2183,-1.2229,-0.818,-0.3786,-0.0438,0.0,0.0,0.0,0.0,0.0,0.0,0.0,0.0,0.0,0.0,0.0273,0.0836,0.0817,0.0926,0.1282,0.719,1.0438,1.0285,1.0265,1.0311,1.0552,1.0463,0.8754,0.5328,0.7927,0.588,0.0,0.0,0.0,0.0,0.0,0.0,0.0,0.0,0.0,0.0,0.0,0.0,0.0,0.0,0.0,0.0,-1.3971,-1.4191,-1.4266,-1.4371,-1.4153,-1.3897,-1.4336,-1.6609,-2.1169,-2.2099,-2.4331,-2.8814,-2.971,-3.0201,-3.0381,0.0,0.0,0.0,0.0,-4.2463,-4.4819,-4.9352,-5.0491,-4.8676,-5.0652,-5.0469,-4.8512,-4.6116,-4.372,-4.1754,-4.1563,-3.8942,-3.4737,-3.4556,-3.2935,-3.029,-2.7108,-2.4586,-2.2818,-2.2858,-2.4547,0.0,0.0,0.0,0.0,-3.0774,-3.0774,-3.0774,-3.0774,-3.2218,-3.3482,-3.1314,-3.5563,-4.0171,-3.8413,-3.3072,-2.8259,-2.8566,-2.0241,-1.2321,-1.2321,-1.2321,-1.2321,-1.2321,-1.2321,-1.2183,-1.2229,-0.5857,-0.0568,-0.0,0.0,0.0,0.0,0.0,0.0,0.0,0.0,0.0,0.0,0.0,0.1051,0.3685,0.3846,0.448,0.6155,0.8959,1.0184,0.9665,0.9658,0.9909,1.0552,1.0443,0.8737,0.5182,0.4616,0.2701,0.0,0.0,0.0,0.0,0.0,0.0,0.0,0.0,0.0,0.0,0.0,0.0,0.0,0.0,0.0,0.0,-1.3364,-1.3163,-1.3115,-1.3454,-1.364,-1.3587,-1.3891,-1.5949,-2.055,-2.1467,-2.3658,-2.8237,-2.9112,-2.9437,-2.9437,-3.0708,-3.3255,-3.7289,-3.7903,-4.0343,-4.48,-4.7021,-4.7337,-4.5654,-4.6112,-4.5189,-4.3023,-4.0859,-3.9233,0.0,-3.6989,-3.5285,-3.3242,-3.1878,-2.9927,0.0,0.0,0.0,0.0,0.0,-2.1932,-2.4136,-2.441,-2.7105,-3.0333,-3.0658,-3.0774,-3.0774,-3.0774,-3.1485,-3.2035,-3.0946,-3.4859,-3.9118,-3.8236,-3.3123,-2.8358,-2.8358,-1.9778,-1.1649,-1.1649,-1.1649,-1.1649,-1.1649,0.0,0.0,-0.8611,-0.3676,0.0,0.0,0.0,0.0,0.0,0.0,0.0,0.0,0.0,0.0,0.0,0.0,0.0,0.0,0.0,0.8174,0.8962,0.0,0.0,0.0,0.0,0.0,0.0,0.0,0.0,0.0,0.3019,0.1579,0.0,0.0,0.0,0.0,0.0,0.0,0.0,0.0,0.0,0.0,0.0,0.0,0.0,0.0,0.0,0.0,0.0,-1.3078,-1.3078,-1.3397,-1.3523,-1.3491,-1.3538,-1.5268,-1.9651,-2.0448,-2.228,-2.5888,-2.729,-2.7948,-2.7948,-2.9303,-3.1986,-3.5693,-3.59,-3.7983,-4.253,-4.3548,-4.3163,-4.1617,-4.1641,-4.054,-3.841,-3.6898,-3.5796,-3.5109,-3.342,-3.1887,-3.0513,-2.886,-2.6749,-2.4576,-2.2009,-1.9445,-1.7164,-1.7258,-1.89,-2.1103,-2.297,-2.5849,-2.8868,-3.0164,-3.0541,-3.0567,-3.0723,-3.113,-3.1668,-3.0946,-3.4165,-3.7577,-3.5923,-3.1368,-2.6956,-2.5974,-1.835,-1.1273,-1.1273,-1.1273,-1.1273,-1.1273,-1.1319,-0.9691,-0.4693,-0.1632,0.0,0.0,0.0,0.0,0.0,0.0,0.0,0.0,0.0,0.0,0.0,0.1631,0.4804,0.0,1.0133,1.0383,1.0469,1.0304,1.006,0.9744,0.925,0.8755,0.0,0.0,0.0,0.0,0.0,0.0,0.0,0.0,0.0,0.0,0.0,0.0,0.0,0.0,0.0,0.0,0.0,0.0,0.0,0.0,0.0,0.0,0.0,0.0,-1.3746,-1.331,-1.311,-1.375,-1.3436,-1.4695,-1.8163,-1.853,-1.9139,-2.0724,-2.3437,-2.5082,-2.5082,-2.9843,-3.2584,-3.2784,-3.4957,-3.6314,-3.6363,-3.8609,-3.8591,-3.6481,-3.8591,-3.8428,-3.6282,-3.6131,-3.4941,-3.2755,-3.2755,-2.9995,-2.5857,-2.5869,-2.4422,-2.2189,-1.8785,-1.5948,-1.3937,-1.441,-1.6087,-1.8926,-2.3938,-2.5715,-2.6327,-2.9034,-2.9956,-3.006,-3.0606,-3.2401,-3.3846,-3.1314,-3.4165,-3.6508,-3.0922,-2.7178,-2.3949,-2.0455,-1.5341,-1.1273,-1.1273,-1.1273,-1.1273,-1.1273,-1.0865,-0.8385,-0.1305,-0.0131,0.0,0.0,0.0,0.0,0.0,0.0,0.0,0.0,0.0,0.0,0.0,0.5954,0.9882,1.0436,1.0159,1.012,1.0539,0.9882,0.9447,0.9151,0.8847,0.8544,0.8158,0.0,0.0,0.0,0.0,0.0,0.0,0.0,0.0,0.0,0.0,0.0,0.0,0.0,0.0,0.0,0.0,0.0,0.0,0.0,0.0,0.0,0.0,0.0,0.0,0.0,-1.0015,-1.2891,-1.1444,-1.1591,-1.4982,-1.7995,-2.0135,-2.0591,-2.2292,-2.3397,-2.3593,-2.4064,-2.5372,-2.7564,-2.7853,-2.9847,-3.3914,-3.3635,-3.3301,-3.3259,-3.3394,-3.2397,-3.0384,-3.0384,-2.9888,-2.9072,-2.7493,-2.5972,-2.4308,-2.2948,-2.0027,-1.6561,-1.5493,-1.4557,-1.3891,-1.3996,-1.4543,-1.5754,-1.8967,-2.1437,-2.3679,-2.7925,-2.9372,-2.9015,-2.7212,-2.7247,-2.7249,-2.4519,-2.738,-3.0491,-2.6846,-2.4771,-2.2973,-1.9991,-1.4895,-1.0706,-1.0706,-1.0706,-1.0713,-1.0726,-0.8333,-0.5039,-0.0741,0.0,0.0,0.0,0.0,0.0,0.0,0.0,0.0,0.0,0.0,0.1951,0.651,0.905,1.0344,1.043,1.0331,1.0318,1.0545,1.0238,0.9994,0.9691,0.9408,0.865,0.7397,0.0,0.0,0.0,0.0,0.0,0.0,0.0,0.0,0.0,0.0,0.0,0.0,0.0,0.0,0.0,0.0,0.0,0.0,0.0,0.0,0.0,0.0,0.0,0.0,0.0,0.0,-1.1779,-0.9366,0.0,0.0,-1.6377,-1.7444,-1.593,-1.787,-1.9091,-1.8611,-2.0061,-2.1131,-2.1363,-2.1965,-2.4332,-2.834,-2.7288,-2.71,-2.7736,-2.8054,-2.7432,-2.6183,-2.7031,-2.7031,-2.6006,-2.4649,-2.2966,-2.1423,-1.9167,-1.632,-1.3599,-1.3727,-1.3804,-1.3804,-1.3804,-1.3804,-1.3965,-1.5558,-1.8296,-2.2018,-2.6931,-2.7615,-2.6102,-2.4449,-2.335,-2.2057,-1.9389,-2.1703,-2.4599,-2.2051,-2.0812,-1.9377,-1.638,-1.2865,-1.0265,-1.0271,-1.0265,-1.0245,-0.9921,-0.5988,-0.2194,-0.0355,0.0,0.0,0.0,0.0,0.0,0.0,0.0,0.0522,0.1691,0.2992,0.5594,1.0061,1.0449,1.0436,1.0552,1.0552,1.0552,1.0552,1.0318,1.0027,0.952,0.9131,0.8234,0.0,0.0,0.0,0.0,0.0,0.0,0.0,0.0,0.0,0.0,0.0,0.0,0.0,0.0,0.0,0.0,0.0,0.0,0.0,0.0,0.0,0.0,0.0,0.0,0.0,0.0,0.0,-0.9351,-0.6784,0.0,0.0,0.0,0.0,-0.6969,-1.0976,-1.2787,-1.1174,-1.7556,-1.9296,-1.4654,-1.7812,-1.9644,-2.004,-2.008,-2.0144,-2.0556,-2.2724,-2.3729,-2.3752,-2.5982,-2.5817,-2.3797,-2.362,-2.1108,-1.7174,-1.4706,-1.3349,-1.3009,-1.3291,-1.3476,-1.3476,-1.3492,-1.35,-1.35,-1.3516,-1.6401,-2.0949,-2.5433,-2.4534,-2.1729,-2.2205,-2.0707,0.0,0.0,-1.7222,-1.8985,-1.684,-1.5308,-1.3552,-1.024,-0.9764,-0.9962,-0.9981,-0.9845,-0.9387,0.0,-0.3811,0.0,0.0,0.0,0.0,0.0,0.0,0.0,0.0,0.026,0.1818,0.5205,0.8478,1.0456,1.0456,1.0436,1.0552,1.0552,1.0552,1.0552,1.0552,1.012,0.954,0.8777,0.8083,0.0,0.0,0.0,0.0,0.0,0.0,0.0,0.0,0.0,0.0,0.0,0.0,0.0,0.0,0.0,0.0,0.0,0.0,0.0,0.0,0.0,0.0,0.0,0.0,0.0,0.0,-0.9665,-0.7379,0.2653,0.0763,-0.1921,0.0,0.0,0.0,0.0,0.0,0.0,-1.3061,-0.955,-0.9339,-1.3266,-1.4366,-1.6133,-1.8385,-1.7651,-1.8278,-2.0002,-2.0642,-2.0968,-2.1116,-2.1779,-2.1806,-2.1296,-1.9794,-1.8285,-1.6771,-1.4122,-1.1236,-0.8642,-0.8644,-0.8804,-0.8693,-0.8718,-0.8776,-0.8803,-0.8698,-1.1712,-1.5743,-1.7921,0.0,-2.0151,-1.8192,0.0,0.0,0.0,0.0,-1.3777,-1.1414,0.0,-1.0512,-0.9731,-0.9545,-0.9724,-1.0226,-0.8244,-0.5592,0.0,-0.0984,0.0,0.0,0.0,0.0,0.0,0.0,0.0,0.0,0.4116,0.7661,0.8984,0.9926,1.0449,1.0559,1.0552,1.0552,1.0552,1.0552,1.0552,1.0552,0.9935,0.9256,0.0,0.0,0.0,0.0,0.0,0.0,0.0,0.0,0.0,0.0,0.0,0.0,0.0,0.0,0.0,0.0,0.0,0.0,0.0,0.0,0.0,0.0,0.0,0.0,0.0,0.0,0.0,0.0,-0.8613,-0.3907,0.4939,0.2471,0.0,0.0,0.0,0.0,0.0,0.0,0.0,0.0,0.0,0.0,-0.9871,-1.0074,-1.194,-1.577,-1.5185,-1.5518,-1.6863,-1.8298,-1.8994,-1.923,-1.9713,-1.9506,-1.8582,-1.7448,-1.6172,-1.4461,-0.9355,-0.5881,-0.3976,0.0,0.0,0.0,0.0,0.0,-0.3894,-0.3967,0.0,0.0,0.0,0.0,0.0,0.0,0.0,0.0,0.0,0.0,0.0,0.0,0.0,0.0,-0.7178,-0.7445,-0.7285,-0.6107,-0.4391,-0.234,0.0,0.0,0.0,0.0,0.0,0.0,0.0,0.0,0.0,0.3784,0.7379,0.9889,1.041,1.0443,1.0436,1.0552,1.0552,1.0552,1.0552,1.0552,1.0311,1.006,0.9368,0.8412,0.0,0.0,0.0,0.0,0.0,0.0,0.0,0.0,0.0,0.0,0.0,0.0,0.0,0.0,0.0,0.0,0.0,0.0,0.0,0.0,0.0,0.0,0.0,0.0,0.0,0.0,0.0,0.0,0.0,0.0646,0.2817,0.0,0.0,0.0,0.0,0.0,0.0,0.0,0.0,0.0,0.0,0.0,0.0,0.0,0.0,-1.2939,-1.2397,-1.2103,-1.2115,-1.4966,-1.6686,-1.7282,-1.8352,-1.777,-1.5826,-1.5257,0.0,-1.0125,-0.291,0.0,0.0,0.0,0.0,0.0,0.0,0.0,0.0,0.0,0.0,0.0,0.0,0.0,0.0,0.0,0.0,0.0,0.0,0.0,0.0,0.0,0.0,-0.3719,-0.3722,-0.4147,-0.3673,0.0,0.0,0.0,0.0,0.0,0.0,0.0,0.0,0.0,0.0,0.0,0.0,0.8708,0.9737,1.0054,1.0331,1.0525,1.0552,1.0552,1.0512,1.0364,1.0364,1.0378,0.9948,0.9408,0.8516,0.0,0.0,0.0,0.0,0.0,0.0,0.0,0.0,0.0,0.0,0.0,0.0,0.0,0.0,0.0,0.0,0.0,0.0,0.0,0.0,0.0,0.0,0.0,0.0,0.0,0.0,0.0,0.0,0.0,0.0,0.0,0.0,0.0,0.0,0.0,0.0,0.0,0.0,0.0,0.0,0.0,0.0,0.0,0.0,0.0,0.0,0.0,0.0,0.0,0.0,0.0,-1.0167,-1.3879,-1.4122,-1.3967,-1.3328,-0.9468,-0.5631,-0.1972,0.0,0.0,0.0,0.0,0.0,0.0,0.0,0.0,0.0,0.0,0.0,0.0,0.0,0.0,0.0,0.0,0.0,0.0,0.0,0.0,0.0,0.0,0.0,0.0,0.0,-0.0785,-0.0779,0.0,0.0,0.0,0.0,0.0,0.0,0.0,0.0,0.0,0.0,0.0,0.0,0.8456,0.9284,0.9744,1.0021,1.0271,1.0552,1.0552,1.0192,1.0054,1.0054,0.9375,0.8828,0.0,0.0,0.0,0.0,0.0,0.0,0.0,0.0,0.0,0.0,0.0,0.0,0.0,0.0,0.0,0.0,0.0,0.0,0.0,0.0,0.0,0.0,0.0,0.0,0.0,0.0,0.0,0.0,0.0,0.0,0.0,0.0,0.0,0.0,0.0,0.0,0.0,0.0,0.0,0.0,0.0,0.0,0.0,0.0,0.0,0.0,0.0,0.0,0.0,0.0,0.0,0.0,0.0,0.0,0.0,0.0,0.0,0.0,0.0,-0.1762,0.0,0.0,0.0,0.0,0.0,0.0,0.0,0.0,0.0,0.0,0.0,0.0,0.0,0.0,0.0,0.0,0.0,0.0,0.0,0.0,0.0,0.0,0.0,0.0,0.0,0.0,0.0,0.0,0.0,0.0,0.0,0.0,0.0,0.0,0.0,0.0,0.0,0.0,0.0,0.0,0.8524,0.9113,0.95,0.9929,1.01,1.0186,1.0186,1.0054,0.9784,0.9329,0.8768,0.0,0.0,0.0,0.0,0.0,0.0,0.0,0.0,0.0,0.0,0.0,0.0,0.0,0.0,0.0,0.0,0.0,0.0,0.0,0.0,0.0,0.0,0.0,0.0,0.0,0.0,0.0,0.0,0.0,0.0,0.0,0.0,0.0,0.0,0.0,0.0,0.0,0.0,0.0,0.0,0.0,0.0,0.0,0.0,0.0,0.0,0.0,0.0,0.0,0.0,0.0,0.0,0.0,0.0,0.0,0.0,0.0,0.0,0.0,-0.1365,0.0,0.0,0.0,0.0,0.0,0.0,0.0,0.0,0.0,0.0,0.0,0.0,0.0,0.0,0.0,0.0,0.0,0.0,0.0,0.0,0.0,0.0,0.0,0.0,0.0,0.0,0.0,0.0,0.0,0.0,0.0,0.0,0.0,0.0,0.0,0.0,0.0,0.0,0.0,0.0,0.0,0.8427,0.8837,0.9289,0.9744,0.9843,0.9882,0.9882,0.9823,0.9447,0.8636,0.0,0.0,0.0,0.0,0.0,0.0,0.0,0.0,0.0,0.0,0.0,0.0,0.0,0.0,0.0,0.0,0.0,0.0,0.0,0.0,0.0,0.0,0.0,0.0,0.0,0.0,0.0,0.0,0.0,0.0,0.0,0.0,0.0,0.0,0.0,0.0,0.0,0.0,0.0,0.0,0.0,0.0,0.0,0.0,0.0,0.0,0.0,0.0,0.0,0.0,0.0,0.0,0.0,0.0,0.0,0.0,0.0,0.0,0.0,0.0,0.0,0.0,0.0,0.0,0.0,0.0,0.0,0.0,0.0,0.0,0.0,0.0,0.0,0.0,0.0,0.0,0.0,0.0,0.0,0.0,0.0,0.0,0.0,0.0,0.0,0.0,0.0,0.0,0.0,0.0,0.0,0.0,0.0,0.0,0.0,0.0,0.0,0.0,0.0,0.0,0.0,0.0,0.7904,0.859,0.9137,0.919,0.9441,0.9599,0.9599,0.9355,0.894,0.823,0.0,0.0,0.0,0.0,0.0,0.0,0.0,0.0,0.0,0.0,0.0,0.0,0.0,0.0,0.0,0.0,0.0,0.0,0.0,0.0,0.0,0.0,0.0,0.0,0.0,0.0,0.0,0.0,0.0,0.0,0.0,0.0,0.0,0.0,0.0,0.0,0.0,0.0,0.0,0.0,0.0,0.0,0.0,0.0,0.0,0.0,0.0,0.0,0.0,0.0,0.0,0.0,0.0,0.0,0.0,0.0,0.0,0.0,0.0,0.0,0.0,0.0,0.0,0.0,0.0,0.0,0.0,0.0,0.0,0.0,0.0,0.0,0.0,0.0,0.0,0.0,0.0,0.0,0.0,0.0,0.0,0.0,0.0,0.0,0.0,0.0,0.0,0.0,0.0,0.0,0.0,0.0,0.0,0.0,0.0,0.0,0.0,0.0,0.0,0.0,0.0,0.0,0.7687,0.8419,0.892,0.9098,0.9223,0.9296,0.9296,0.9184,0.865,0.7549,0.0,0.0,0.0,0.0,0.0,0.0,0.0,0.0,0.0,0.0,0.0,0.0,0.0,0.0,0.0,0.0,0.0,0.0,0.0,0.0,0.0,0.0,0.0,0.0,0.0,0.0,0.0,0.0,0.0,0.0,0.0,0.0,0.0,0.0,0.0,0.0,0.0,0.0,0.0,0.0,0.0,0.0,0.0,0.0,0.0,0.0,0.0,0.0,0.0,0.0,0.0,0.0,0.0,0.0,0.0,0.0,0.0,0.0,0.0,0.0,0.0,0.0,0.0,0.0,0.0,0.0,0.0,0.0,0.0,0.0,0.0,0.0,0.0,0.0,0.0,0.0,0.0,0.0,0.0,0.0,0.0,0.0,0.0,0.0,0.0,0.0,0.0,0.0,0.0,0.0,0.0,0.0,0.0,0.0,0.0,0.0,0.0,0.0,0.0,0.0,0.0,0.0,0.0,0.8313,0.8863,0.8966,0.8986,0.8986,0.8986,0.8986,0.8406,0.7048,0.0,0.0,0.0,0.0,0.0,0.0,0.0,0.0,0.0,0.0,0.0,0.0,0.0,0.0,0.0,0.0,0.0,0.0,0.0,0.0,0.0,0.0,0.0,0.0,0.0,0.0,0.0,0.0,0.0,0.0,0.0,0.0,0.0,0.0,0.0,0.0,0.0,0.0,0.0,0.0,0.0,0.0,0.0,0.0,0.0,0.0,0.0,0.0,0.0,0.0,0.0,0.0,0.0,0.0,0.0,0.0,0.0,0.0,0.0,0.0,0.0,0.0,0.0,0.0,0.0,0.0,0.0,0.0,0.0,0.0,0.0,0.0,0.0,0.0,0.0,0.0,0.0,0.0,0.0,0.0,0.0,0.0,0.0,0.0,0.0,0.0,0.0,0.0,0.0,0.0,0.0,0.0,0.0,0.0,0.0,0.0,0.0,0.0,0.0,0.0,0.0,0.0,0.77,0.8313,0.8783,0.8783,0.8783,0.8783,0.8783,0.8783,0.8289,0.0,0.0,0.0,0.0,0.0,0.0,0.0,0.0,0.0,0.0,0.0,0.0,0.0,0.0,0.0,0.0,0.0,0.0,0.0,0.0,0.0,0.0,0.0,0.0,0.0,0.0,0.0,0.0,0.0,0.0,0.0,0.0,0.0,0.0,0.0,0.0,0.0,0.0,0.0,0.0,0.0,0.0,0.0,0.0,0.0,0.0,0.0,0.0,0.0,0.0,0.0,0.0,0.0,0.0,0.0,0.0,0.0,0.0,0.0,0.0,0.0,0.0,0.0,0.0,0.0,0.0,0.0,0.0,0.0,0.0,0.0,0.0,0.0,0.0,0.0,0.0,0.0,0.0,0.0,0.0,0.0,0.0,0.0,0.0,0.0,0.0,0.0,0.0,0.0,0.0,0.0,0.0,0.0,0.0,0.0,0.0,0.0,0.0,0.0,0.0,0.0,0.0,0.0,0.77,0.8149,0.8465,0.0,0.8783,0.8783,0.8783,0.8783,0.8363,0.7305,0.0,0.0,0.0,0.0,0.0,0.0,0.0,0.0,0.0,0.0,0.0,0.0,0.0,0.0,0.0,0.0,0.0,0.0,0.0,0.0,0.0,0.0,0.0,0.0,0.0,0.0,0.0,0.0,0.0,0.0,0.0,0.0,0.0,0.0,0.0,0.0,0.0,0.0,0.0,0.0,0.0,0.0,0.0,0.0,0.0,0.0,0.0,0.0,0.0,0.0,0.0,0.0,0.0,0.0,0.0,0.0,0.0,0.0,0.0,0.0,0.0,0.0,0.0,0.0,0.0,0.0,0.0,0.0,0.0,0.0,0.0,0.0,0.0,0.0,0.0,0.0,0.0,0.0,0.0,0.0,0.0,0.0,0.0,0.0,0.0,0.0,0.0,0.0,0.0,0.0,0.0,0.0,0.0,0.0,0.0,0.0,0.0,0.0,0.0,0.0,0.0,0.0,0.0,0.8168,0.8478,0.0,0.8783,0.8783,0.8783,0.8783,0.8403,0.7423,0.0,0.0,0.0,0.0,0.0,0.0,0.0,0.0,0.0,0.0,0.0,0.0,0.0,0.0,0.0,0.0,0.0,0.0,0.0,0.0,0.0,0.0,0.0,0.0,0.0,0.0,0.0,0.0,0.0,0.0,0.0,0.0,0.0,0.0,0.0,0.0,0.0,0.0,0.0,0.0,0.0,0.0,0.0,0.0,0.0,0.0,0.0,0.0,0.0,0.0,0.0,0.0,0.0,0.0,0.0,0.0,0.0,0.0,0.0,0.0,0.0,0.0,0.0,0.0,0.0,0.0,0.0,0.0,0.0,0.0,0.0,0.0,0.0,0.0,0.0,0.0,0.0,0.0,0.0,0.0,0.0,0.0,0.0,0.0,0.0,0.0,0.0,0.0,0.0,0.0,0.0,0.0,0.0,0.0,0.0,0.0,0.0,0.0,0.0,0.0,0.0,0.0,0.0,0.8313,0.8763,0.8777,0.8783,0.8783,0.8783,0.8783,0.8416,0.7456,0.656,0.0,0.0,0.0,0.0,0.0,0.0,0.0,0.0,0.0,0.0,0.0,0.0,0.0,0.0,0.0,0.0,0.0,0.0,0.0,0.0,0.0,0.0,0.0,0.0,0.0,0.0,0.0,0.0,0.0,0.0,0.0,0.0,0.0,0.0,0.0,0.0,0.0,0.0,0.0,0.0,0.0,0.0,0.0,0.0,0.0,0.0,0.0,0.0,0.0,0.0,0.0,0.0,0.0,0.0,0.0,0.0,0.0,0.0,0.0,0.0,0.0,0.0,0.0,0.0,0.0,0.0,0.0,0.0,0.0,0.0,0.0,0.0,0.0,0.0,0.0,0.0,0.0,0.0,0.0,0.0,0.0,0.0,0.0,0.0,0.0,0.0,0.0,0.0,0.0,0.0,0.0,0.0,0.0,0.0,0.0,0.0,0.0,0.0,0.0,0.0,0.0,0.0,0.8171,0.8439,0.8757,0.8783,0.8783,0.8783,0.8783,0.8399,0.7746,0.6678,0.0,0.0,0.0,0.0,0.0,0.0,0.0,0.0,0.0,0.0,0.0,0.0,0.0,0.0,0.0,0.0,0.0,0.0,0.0,0.0,0.0,0.0,0.0,0.0,0.0,0.0,0.0,0.0,0.0,0.0,0.0,0.0,0.0,0.0,0.0,0.0,0.0,0.0,0.0,0.0,0.0,0.0,0.0,0.0,0.0,0.0,0.0,0.0,0.0,0.0,0.0,0.0,0.0,0.0,0.0,0.0,0.0,0.0,0.0,0.0,0.0,0.0,0.0,0.0,0.0,0.0,0.0,0.0,0.0,0.0,0.0,0.0,0.0,0.0,0.0,0.0,0.0,0.0,0.0,0.0,0.0,0.0,0.0,0.0,0.0,0.0,0.0,0.0,0.0,0.0,0.0,0.0,0.0,0.0,0.0,0.0,0.0,0.0,0.0,0.0,0.0,0.0,0.7773,0.8063,0.8723,0.8783,0.8783,0.8783,0.8783,0.8425,0.7852,0.6843,0.0,0.0,0.0,0.0,0.0,0.0,0.0,0.0,0.0,0.0,0.0,0.0,0.0,0.0,0.0,0.0,0.0,0.0,0.0,0.0,0.0,0.0,0.0,0.0,0.0,0.0,0.0,0.0,0.0,0.0,0.0,0.0,0.0,0.0,0.0,0.0,0.0,0.0,0.0,0.0,0.0,0.0,0.0,0.0,0.0,0.0,0.0,0.0,0.0,0.0,0.0,0.0,0.0,0.0,0.0,0.0,0.0,0.0,0.0,0.0,0.0,0.0,0.0,0.0,0.0,0.0,0.0,0.0,0.0,0.0,0.0,0.0,0.0,0.0,0.0,0.0,0.0,0.0,0.0,0.0,0.0,0.0,0.0,0.0,0.0,0.0,0.0,0.0,0.0,0.0,0.0,0.0,0.0,0.0,0.0,0.0,0.0,0.0,0.0,0.0,0.0,0.0,0.0,0.7753,0.869,0.8783,0.8783,0.8783,0.8783,0.8425,0.7852,0.0,0.0,0.0,0.0,0.0,0.0,0.0,0.0,0.0,0.0,0.0,0.0,0.0,0.0,0.0,0.0,0.0,0.0,0.0,0.0,0.0,0.0,0.0,0.0,0.0,0.0,0.0,0.0,0.0,0.0,0.0,0.0,0.0,0.0,0.0,0.0,0.0,0.0,0.0,0.0,0.0,0.0,0.0,0.0,0.0,0.0,0.0,0.0,0.0,0.0,0.0,0.0,0.0,0.0,0.0,0.0,0.0,0.0,0.0,0.0,0.0,0.0,0.0,0.0,0.0,0.0,0.0,0.0,0.0,0.0,0.0,0.0,0.0,0.0,0.0,0.0,0.0,0.0,0.0,0.0,0.0,0.0,0.0,0.0,0.0,0.0,0.0,0.0,0.0,0.0,0.0,0.0,0.0,0.0,0.0,0.0,0.0,0.0,0.0,0.0,0.0,0.0,0.0,0.0,0.0,0.0,0.8783,0.8783,0.8783,0.8783,0.8425,0.7852,0.0,0.0,0.0,0.0,0.0,0.0,0.0,0.0,0.0,0.0,0.0,0.0,0.0,0.0]}]]]